Wetterdaten: Donnerstag, 12.05.2016
Datum Zeit Temp. A. Feuchte A. Luftdruck Regen Wind Richtung Richtung Sonnenschein ET UV Solar Taupunkt Windchill Windben Empfang
12.05.2016 00:00 14,1 C 81 % 1000,4 hPa 0,0 l/m 25,2 km/h (4 Bft) NO 45 0 min 0,000 mm 0,0 UV-I 0 W/m 10,9 C 7,3 C 29,0 km/h (5 Bft) 100,00 %
12.05.2016 00:02 14,2 C 81 % 1000,4 hPa 0,0 l/m 19,8 km/h (3 Bft) NO 52 0 min 0,000 mm 0,0 UV-I 0 W/m 11,0 C 8,8 C 27,4 km/h (4 Bft) 93,94 %
12.05.2016 00:03 14,2 C 81 % 1000,4 hPa 0,0 l/m 18,0 km/h (3 Bft) NO 51 0 min 0,000 mm 0,0 UV-I 0 W/m 11,0 C 9,3 C 25,7 km/h (4 Bft) 100,00 %
12.05.2016 00:04 14,1 C 81 % 1000,4 hPa 0,0 l/m 17,4 km/h (3 Bft) NO 41 0 min 0,000 mm 0,0 UV-I 0 W/m 10,9 C 9,3 C 22,5 km/h (4 Bft) 100,00 %
12.05.2016 00:05 14,1 C 81 % 1000,4 hPa 0,0 l/m 17,8 km/h (3 Bft) NO 51 0 min 0,000 mm 0,0 UV-I 0 W/m 10,9 C 9,2 C 27,4 km/h (4 Bft) 100,00 %
12.05.2016 00:06 14,1 C 81 % 1000,4 hPa 0,0 l/m 17,8 km/h (3 Bft) NO 38 0 min 0,000 mm 0,0 UV-I 0 W/m 10,9 C 9,2 C 24,1 km/h (4 Bft) 100,00 %
12.05.2016 00:07 14,1 C 81 % 1000,4 hPa 0,0 l/m 23,4 km/h (4 Bft) O-NO 57 0 min 0,000 mm 0,0 UV-I 0 W/m 10,9 C 7,7 C 32,2 km/h (5 Bft) 100,00 %
12.05.2016 00:08 14,1 C 81 % 1000,4 hPa 0,0 l/m 21,3 km/h (4 Bft) NO 48 0 min 0,000 mm 0,0 UV-I 0 W/m 10,9 C 8,2 C 25,7 km/h (4 Bft) 100,00 %
12.05.2016 00:09 14,1 C 81 % 1000,4 hPa 0,0 l/m 18,4 km/h (3 Bft) NO 55 0 min 0,000 mm 0,0 UV-I 0 W/m 10,9 C 9,0 C 29,0 km/h (5 Bft) 100,00 %
12.05.2016 00:10 14,1 C 81 % 1000,4 hPa 0,0 l/m 18,0 km/h (3 Bft) NO 51 0 min 0,000 mm 0,0 UV-I 0 W/m 10,9 C 9,1 C 22,5 km/h (4 Bft) 100,00 %
12.05.2016 00:11 14,1 C 81 % 1000,4 hPa 0,0 l/m 15,4 km/h (3 Bft) NO 42 0 min 0,000 mm 0,0 UV-I 0 W/m 10,9 C 10,0 C 19,3 km/h (3 Bft) 100,00 %
12.05.2016 00:12 14,1 C 81 % 1000,4 hPa 0,0 l/m 17,2 km/h (3 Bft) NO 46 0 min 0,000 mm 0,0 UV-I 0 W/m 10,9 C 9,4 C 22,5 km/h (4 Bft) 100,00 %
12.05.2016 00:13 14,1 C 81 % 1000,4 hPa 0,0 l/m 17,0 km/h (3 Bft) O-NO 69 0 min 0,000 mm 0,0 UV-I 0 W/m 10,9 C 9,4 C 25,7 km/h (4 Bft) 100,00 %
12.05.2016 00:14 14,1 C 81 % 1000,3 hPa 0,0 l/m 19,8 km/h (3 Bft) NO 44 0 min 0,000 mm 0,0 UV-I 0 W/m 10,9 C 8,6 C 24,1 km/h (4 Bft) 100,00 %
12.05.2016 00:15 14,1 C 81 % 1000,3 hPa 0,0 l/m 26,9 km/h (4 Bft) O-NO 57 0 min 0,000 mm 0,0 UV-I 0 W/m 10,9 C 7,0 C 35,4 km/h (5 Bft) 100,00 %
12.05.2016 00:16 14,1 C 81 % 1000,3 hPa 0,0 l/m 22,3 km/h (4 Bft) O-NO 63 0 min 0,000 mm 0,0 UV-I 0 W/m 10,9 C 8,0 C 35,4 km/h (5 Bft) 100,00 %
12.05.2016 00:17 14,1 C 81 % 1000,3 hPa 0,0 l/m 20,2 km/h (4 Bft) NO 51 0 min 0,000 mm 0,0 UV-I 0 W/m 10,9 C 8,5 C 25,7 km/h (4 Bft) 100,00 %
12.05.2016 00:18 14,1 C 81 % 1000,3 hPa 0,0 l/m 20,0 km/h (4 Bft) O 89 0 min 0,000 mm 0,0 UV-I 0 W/m 10,9 C 8,6 C 25,7 km/h (4 Bft) 100,00 %
12.05.2016 00:19 14,1 C 81 % 1000,3 hPa 0,0 l/m 20,0 km/h (4 Bft) NO 42 0 min 0,000 mm 0,0 UV-I 0 W/m 10,9 C 8,6 C 24,1 km/h (4 Bft) 100,00 %
12.05.2016 00:20 14,1 C 81 % 1000,3 hPa 0,0 l/m 17,9 km/h (3 Bft) O-NO 59 0 min 0,000 mm 0,0 UV-I 0 W/m 10,9 C 9,2 C 24,1 km/h (4 Bft) 100,00 %
12.05.2016 00:21 14,1 C 82 % 1000,3 hPa 0,0 l/m 18,9 km/h (3 Bft) O-NO 67 0 min 0,000 mm 0,0 UV-I 0 W/m 11,1 C 8,9 C 22,5 km/h (4 Bft) 100,00 %
12.05.2016 00:22 14,1 C 82 % 1000,3 hPa 0,0 l/m 19,4 km/h (3 Bft) O-NO 57 0 min 0,000 mm 0,0 UV-I 0 W/m 11,1 C 8,7 C 24,1 km/h (4 Bft) 100,00 %
12.05.2016 00:23 14,1 C 82 % 1000,3 hPa 0,0 l/m 21,9 km/h (4 Bft) O-NO 69 0 min 0,000 mm 0,0 UV-I 0 W/m 11,1 C 8,1 C 29,0 km/h (5 Bft) 100,00 %
12.05.2016 00:24 14,1 C 82 % 1000,3 hPa 0,0 l/m 19,8 km/h (3 Bft) O-NO 78 0 min 0,000 mm 0,0 UV-I 0 W/m 11,1 C 8,6 C 30,6 km/h (5 Bft) 100,00 %
12.05.2016 00:25 14,0 C 82 % 1000,3 hPa 0,0 l/m 20,3 km/h (4 Bft) O-NO 59 0 min 0,000 mm 0,0 UV-I 0 W/m 11,0 C 8,4 C 27,4 km/h (4 Bft) 100,00 %
12.05.2016 00:26 14,0 C 82 % 1000,3 hPa 0,0 l/m 22,9 km/h (4 Bft) O-NO 69 0 min 0,000 mm 0,0 UV-I 0 W/m 11,0 C 7,7 C 27,4 km/h (4 Bft) 100,00 %
12.05.2016 00:27 14,0 C 82 % 1000,2 hPa 0,0 l/m 19,0 km/h (3 Bft) O-NO 58 0 min 0,000 mm 0,0 UV-I 0 W/m 11,0 C 8,7 C 25,7 km/h (4 Bft) 100,00 %
12.05.2016 00:28 14,0 C 82 % 1000,2 hPa 0,0 l/m 18,7 km/h (3 Bft) NO 55 0 min 0,000 mm 0,0 UV-I 0 W/m 11,0 C 8,8 C 30,6 km/h (5 Bft) 96,67 %
12.05.2016 00:29 14,0 C 82 % 1000,2 hPa 0,0 l/m 22,3 km/h (4 Bft) NO 42 0 min 0,000 mm 0,0 UV-I 0 W/m 11,0 C 7,9 C 30,6 km/h (5 Bft) 100,00 %
12.05.2016 00:30 14,0 C 82 % 1000,2 hPa 0,0 l/m 22,2 km/h (4 Bft) NO 36 0 min 0,000 mm 0,0 UV-I 0 W/m 11,0 C 7,9 C 30,6 km/h (5 Bft) 100,00 %
12.05.2016 00:31 14,0 C 82 % 1000,2 hPa 0,0 l/m 16,3 km/h (3 Bft) NO 55 0 min 0,000 mm 0,0 UV-I 0 W/m 11,0 C 9,5 C 22,5 km/h (4 Bft) 100,00 %
12.05.2016 00:32 14,0 C 82 % 1000,2 hPa 0,0 l/m 21,6 km/h (4 Bft) NO 41 0 min 0,000 mm 0,0 UV-I 0 W/m 11,0 C 8,0 C 29,0 km/h (5 Bft) 100,00 %
12.05.2016 00:33 14,0 C 82 % 1000,2 hPa 0,0 l/m 20,3 km/h (4 Bft) O-NO 63 0 min 0,000 mm 0,0 UV-I 0 W/m 11,0 C 8,4 C 29,0 km/h (5 Bft) 96,15 %
12.05.2016 00:34 13,9 C 82 % 1000,2 hPa 0,0 l/m 19,0 km/h (3 Bft) NO 46 0 min 0,000 mm 0,0 UV-I 0 W/m 10,9 C 8,6 C 24,1 km/h (4 Bft) 100,00 %
12.05.2016 00:35 13,9 C 82 % 1000,2 hPa 0,0 l/m 18,7 km/h (3 Bft) O-NO 74 0 min 0,000 mm 0,0 UV-I 0 W/m 10,9 C 8,7 C 24,1 km/h (4 Bft) 96,15 %
12.05.2016 00:36 13,9 C 82 % 1000,2 hPa 0,0 l/m 18,9 km/h (3 Bft) O-NO 58 0 min 0,000 mm 0,0 UV-I 0 W/m 10,9 C 8,6 C 22,5 km/h (4 Bft) 100,00 %
12.05.2016 00:37 13,9 C 82 % 1000,2 hPa 0,0 l/m 20,0 km/h (4 Bft) O-NO 74 0 min 0,000 mm 0,0 UV-I 0 W/m 10,9 C 8,3 C 25,7 km/h (4 Bft) 100,00 %
12.05.2016 00:38 13,9 C 82 % 1000,2 hPa 0,0 l/m 20,3 km/h (4 Bft) NO 48 0 min 0,000 mm 0,0 UV-I 0 W/m 10,9 C 8,2 C 29,0 km/h (5 Bft) 100,00 %
12.05.2016 00:39 13,9 C 82 % 1000,1 hPa 0,0 l/m 22,9 km/h (4 Bft) O-NO 59 0 min 0,000 mm 0,0 UV-I 0 W/m 10,9 C 7,6 C 30,6 km/h (5 Bft) 100,00 %
12.05.2016 00:40 13,9 C 82 % 1000,1 hPa 0,0 l/m 24,0 km/h (4 Bft) NO 46 0 min 0,000 mm 0,0 UV-I 0 W/m 10,9 C 7,3 C 30,6 km/h (5 Bft) 100,00 %
12.05.2016 00:41 13,9 C 82 % 1000,1 hPa 0,0 l/m 19,7 km/h (3 Bft) NO 55 0 min 0,000 mm 0,0 UV-I 0 W/m 10,9 C 8,4 C 25,7 km/h (4 Bft) 100,00 %
12.05.2016 00:42 13,9 C 82 % 1000,1 hPa 0,0 l/m 17,5 km/h (3 Bft) O-NO 62 0 min 0,000 mm 0,0 UV-I 0 W/m 10,9 C 9,0 C 22,5 km/h (4 Bft) 100,00 %
12.05.2016 00:43 13,9 C 82 % 1000,0 hPa 0,0 l/m 21,0 km/h (4 Bft) NO 35 0 min 0,000 mm 0,0 UV-I 0 W/m 10,9 C 8,1 C 30,6 km/h (5 Bft) 100,00 %
12.05.2016 00:44 13,9 C 82 % 1000,1 hPa 0,0 l/m 25,1 km/h (4 Bft) O-NO 57 0 min 0,000 mm 0,0 UV-I 0 W/m 10,9 C 7,1 C 32,2 km/h (5 Bft) 100,00 %
12.05.2016 00:45 13,9 C 82 % 1000,1 hPa 0,0 l/m 19,8 km/h (3 Bft) O-NO 64 0 min 0,000 mm 0,0 UV-I 0 W/m 10,9 C 8,4 C 24,1 km/h (4 Bft) 100,00 %
12.05.2016 00:46 13,9 C 82 % 1000,0 hPa 0,0 l/m 16,0 km/h (3 Bft) NO 46 0 min 0,000 mm 0,0 UV-I 0 W/m 10,9 C 9,5 C 20,9 km/h (4 Bft) 100,00 %
12.05.2016 00:47 13,9 C 82 % 1000,0 hPa 0,0 l/m 21,0 km/h (4 Bft) NO 38 0 min 0,000 mm 0,0 UV-I 0 W/m 10,9 C 8,1 C 27,4 km/h (4 Bft) 100,00 %
12.05.2016 00:48 13,9 C 82 % 1000,0 hPa 0,0 l/m 18,0 km/h (3 Bft) NO 45 0 min 0,000 mm 0,0 UV-I 0 W/m 10,9 C 8,9 C 25,7 km/h (4 Bft) 100,00 %
12.05.2016 00:49 13,9 C 82 % 1000,1 hPa 0,0 l/m 24,1 km/h (4 Bft) O-NO 65 0 min 0,000 mm 0,0 UV-I 0 W/m 10,9 C 7,3 C 29,0 km/h (5 Bft) 100,00 %
12.05.2016 00:50 13,9 C 82 % 1000,0 hPa 0,0 l/m 20,5 km/h (4 Bft) N-NO 33 0 min 0,000 mm 0,0 UV-I 0 W/m 10,9 C 8,2 C 29,0 km/h (5 Bft) 100,00 %
12.05.2016 00:51 13,9 C 83 % 1000,0 hPa 0,0 l/m 21,5 km/h (4 Bft) NO 38 0 min 0,000 mm 0,0 UV-I 0 W/m 11,1 C 7,9 C 30,6 km/h (5 Bft) 100,00 %
12.05.2016 00:52 13,9 C 83 % 1000,0 hPa 0,0 l/m 24,5 km/h (4 Bft) O-NO 59 0 min 0,000 mm 0,0 UV-I 0 W/m 11,1 C 7,2 C 32,2 km/h (5 Bft) 100,00 %
12.05.2016 00:53 13,9 C 82 % 999,9 hPa 0,0 l/m 16,7 km/h (3 Bft) NO 51 0 min 0,000 mm 0,0 UV-I 0 W/m 10,9 C 9,3 C 22,5 km/h (4 Bft) 100,00 %
12.05.2016 00:54 13,9 C 83 % 999,9 hPa 0,0 l/m 21,6 km/h (4 Bft) O-NO 58 0 min 0,000 mm 0,0 UV-I 0 W/m 11,1 C 7,9 C 27,4 km/h (4 Bft) 100,00 %
12.05.2016 00:55 13,9 C 83 % 999,9 hPa 0,0 l/m 18,3 km/h (3 Bft) O-NO 65 0 min 0,000 mm 0,0 UV-I 0 W/m 11,1 C 8,8 C 30,6 km/h (5 Bft) 96,30 %
12.05.2016 00:56 13,9 C 83 % 999,9 hPa 0,0 l/m 24,2 km/h (4 Bft) O-NO 78 0 min 0,000 mm 0,0 UV-I 0 W/m 11,1 C 7,3 C 32,2 km/h (5 Bft) 100,00 %
12.05.2016 00:57 13,9 C 83 % 999,9 hPa 0,0 l/m 19,3 km/h (3 Bft) NO 53 0 min 0,000 mm 0,0 UV-I 0 W/m 11,1 C 8,5 C 25,7 km/h (4 Bft) 100,00 %
12.05.2016 00:58 13,9 C 83 % 999,8 hPa 0,0 l/m 14,6 km/h (3 Bft) NO 52 0 min 0,000 mm 0,0 UV-I 0 W/m 11,1 C 10,0 C 20,9 km/h (4 Bft) 100,00 %
12.05.2016 00:59 13,9 C 83 % 999,9 hPa 0,0 l/m 20,5 km/h (4 Bft) O-NO 63 0 min 0,000 mm 0,0 UV-I 0 W/m 11,1 C 8,2 C 29,0 km/h (5 Bft) 100,00 %
12.05.2016 01:00 13,9 C 83 % 999,9 hPa 0,0 l/m 18,7 km/h (3 Bft) O 88 0 min 0,051 mm 0,0 UV-I 0 W/m 11,1 C 8,7 C 25,7 km/h (4 Bft) 100,00 %
12.05.2016 01:01 13,9 C 83 % 999,8 hPa 0,0 l/m 15,1 km/h (3 Bft) NO 52 0 min 0,000 mm 0,0 UV-I 0 W/m 11,1 C 9,8 C 20,9 km/h (4 Bft) 100,00 %
12.05.2016 01:02 13,8 C 83 % 999,8 hPa 0,0 l/m 22,5 km/h (4 Bft) NO 44 0 min 0,000 mm 0,0 UV-I 0 W/m 11,0 C 7,6 C 29,0 km/h (5 Bft) 100,00 %
12.05.2016 01:03 13,9 C 83 % 999,8 hPa 0,0 l/m 17,5 km/h (3 Bft) O-NO 65 0 min 0,000 mm 0,0 UV-I 0 W/m 11,1 C 9,0 C 22,5 km/h (4 Bft) 100,00 %
12.05.2016 01:04 13,9 C 83 % 999,7 hPa 0,0 l/m 19,2 km/h (3 Bft) O-NO 64 0 min 0,000 mm 0,0 UV-I 0 W/m 11,1 C 8,5 C 24,1 km/h (4 Bft) 100,00 %
12.05.2016 01:05 13,9 C 83 % 999,7 hPa 0,0 l/m 15,8 km/h (3 Bft) NO 47 0 min 0,000 mm 0,0 UV-I 0 W/m 11,1 C 9,6 C 19,3 km/h (3 Bft) 100,00 %
12.05.2016 01:06 13,9 C 83 % 999,8 hPa 0,0 l/m 17,4 km/h (3 Bft) NO 53 0 min 0,000 mm 0,0 UV-I 0 W/m 11,1 C 9,1 C 22,5 km/h (4 Bft) 100,00 %
12.05.2016 01:07 13,8 C 83 % 999,7 hPa 0,0 l/m 16,4 km/h (3 Bft) NO 36 0 min 0,000 mm 0,0 UV-I 0 W/m 11,0 C 9,3 C 22,5 km/h (4 Bft) 100,00 %
12.05.2016 01:08 13,8 C 83 % 999,7 hPa 0,0 l/m 20,5 km/h (4 Bft) O-NO 59 0 min 0,000 mm 0,0 UV-I 0 W/m 11,0 C 8,1 C 29,0 km/h (5 Bft) 100,00 %
12.05.2016 01:09 13,8 C 83 % 999,7 hPa 0,0 l/m 24,9 km/h (4 Bft) NO 34 0 min 0,000 mm 0,0 UV-I 0 W/m 11,0 C 7,0 C 30,6 km/h (5 Bft) 100,00 %
12.05.2016 01:10 13,8 C 83 % 999,7 hPa 0,0 l/m 17,3 km/h (3 Bft) O-NO 61 0 min 0,000 mm 0,0 UV-I 0 W/m 11,0 C 9,0 C 20,9 km/h (4 Bft) 100,00 %
12.05.2016 01:11 13,8 C 83 % 999,6 hPa 0,0 l/m 16,0 km/h (3 Bft) NO 56 0 min 0,000 mm 0,0 UV-I 0 W/m 11,0 C 9,4 C 19,3 km/h (3 Bft) 100,00 %
12.05.2016 01:12 13,8 C 83 % 999,7 hPa 0,0 l/m 18,1 km/h (3 Bft) NO 49 0 min 0,000 mm 0,0 UV-I 0 W/m 11,0 C 8,7 C 24,1 km/h (4 Bft) 100,00 %
12.05.2016 01:13 13,8 C 83 % 999,6 hPa 0,0 l/m 14,7 km/h (3 Bft) O 81 0 min 0,000 mm 0,0 UV-I 0 W/m 11,0 C 9,8 C 19,3 km/h (3 Bft) 100,00 %
12.05.2016 01:14 13,8 C 83 % 999,6 hPa 0,0 l/m 18,1 km/h (3 Bft) O-NO 65 0 min 0,000 mm 0,0 UV-I 0 W/m 11,0 C 8,7 C 25,7 km/h (4 Bft) 100,00 %
12.05.2016 01:15 13,8 C 83 % 999,7 hPa 0,0 l/m 16,4 km/h (3 Bft) NO 55 0 min 0,000 mm 0,0 UV-I 0 W/m 11,0 C 9,3 C 24,1 km/h (4 Bft) 88,24 %
12.05.2016 01:16 13,8 C 83 % 999,6 hPa 0,0 l/m 13,8 km/h (3 Bft) NO 40 0 min 0,000 mm 0,0 UV-I 0 W/m 11,0 C 10,2 C 24,1 km/h (4 Bft) 100,00 %
12.05.2016 01:17 13,8 C 83 % 999,7 hPa 0,0 l/m 20,7 km/h (4 Bft) O-NO 57 0 min 0,000 mm 0,0 UV-I 0 W/m 11,0 C 8,0 C 25,7 km/h (4 Bft) 96,55 %
12.05.2016 01:18 13,8 C 83 % 999,6 hPa 0,0 l/m 17,2 km/h (3 Bft) NO 36 0 min 0,000 mm 0,0 UV-I 0 W/m 11,0 C 9,0 C 20,9 km/h (4 Bft) 100,00 %
12.05.2016 01:19 13,8 C 83 % 999,6 hPa 0,0 l/m 13,5 km/h (3 Bft) NO 44 0 min 0,000 mm 0,0 UV-I 0 W/m 11,0 C 10,3 C 20,9 km/h (4 Bft) 96,15 %
12.05.2016 01:20 13,8 C 83 % 999,6 hPa 0,0 l/m 18,9 km/h (3 Bft) N-NO 32 0 min 0,000 mm 0,0 UV-I 0 W/m 11,0 C 8,5 C 27,4 km/h (4 Bft) 95,83 %
12.05.2016 01:21 13,8 C 83 % 999,6 hPa 0,0 l/m 21,1 km/h (4 Bft) N-NO 17 0 min 0,000 mm 0,0 UV-I 0 W/m 11,0 C 7,9 C 29,0 km/h (5 Bft) 100,00 %
12.05.2016 01:22 13,8 C 83 % 999,6 hPa 0,0 l/m 13,4 km/h (3 Bft) O-NO 69 0 min 0,000 mm 0,0 UV-I 0 W/m 11,0 C 10,3 C 20,9 km/h (4 Bft) 95,65 %
12.05.2016 01:23 13,8 C 83 % 999,6 hPa 0,0 l/m 16,2 km/h (3 Bft) O-NO 74 0 min 0,000 mm 0,0 UV-I 0 W/m 11,0 C 9,3 C 22,5 km/h (4 Bft) 100,00 %
12.05.2016 01:24 13,8 C 84 % 999,6 hPa 0,0 l/m 17,0 km/h (3 Bft) O-NO 63 0 min 0,000 mm 0,0 UV-I 0 W/m 11,1 C 9,1 C 22,5 km/h (4 Bft) 96,15 %
12.05.2016 01:25 13,8 C 83 % 999,6 hPa 0,0 l/m 17,7 km/h (3 Bft) NO 55 0 min 0,000 mm 0,0 UV-I 0 W/m 11,0 C 8,9 C 22,5 km/h (4 Bft) 100,00 %
12.05.2016 01:26 13,8 C 84 % 999,6 hPa 0,0 l/m 18,3 km/h (3 Bft) O-NO 72 0 min 0,000 mm 0,0 UV-I 0 W/m 11,1 C 8,7 C 25,7 km/h (4 Bft) 96,15 %
12.05.2016 01:27 13,8 C 84 % 999,6 hPa 0,0 l/m 16,2 km/h (3 Bft) NO 44 0 min 0,000 mm 0,0 UV-I 0 W/m 11,1 C 9,3 C 24,1 km/h (4 Bft) 96,30 %
12.05.2016 01:28 13,8 C 84 % 999,6 hPa 0,0 l/m 12,6 km/h (3 Bft) NO 55 0 min 0,000 mm 0,0 UV-I 0 W/m 11,1 C 10,6 C 17,7 km/h (3 Bft) 100,00 %
12.05.2016 01:29 13,8 C 84 % 999,6 hPa 0,0 l/m 16,0 km/h (3 Bft) NO 43 0 min 0,000 mm 0,0 UV-I 0 W/m 11,1 C 9,4 C 19,3 km/h (3 Bft) 91,67 %
12.05.2016 01:30 13,8 C 84 % 999,6 hPa 0,0 l/m 14,4 km/h (3 Bft) O-NO 69 0 min 0,000 mm 0,0 UV-I 0 W/m 11,1 C 10,0 C 20,9 km/h (4 Bft) 100,00 %
12.05.2016 01:31 13,7 C 84 % 999,5 hPa 0,0 l/m 19,8 km/h (3 Bft) O-NO 69 0 min 0,000 mm 0,0 UV-I 0 W/m 11,0 C 8,1 C 22,5 km/h (4 Bft) 93,33 %
12.05.2016 01:32 13,7 C 84 % 999,5 hPa 0,0 l/m 15,4 km/h (3 Bft) O-NO 59 0 min 0,000 mm 0,0 UV-I 0 W/m 11,0 C 9,5 C 19,3 km/h (3 Bft) 100,00 %
12.05.2016 01:33 13,7 C 84 % 999,5 hPa 0,0 l/m 17,0 km/h (3 Bft) NO 56 0 min 0,000 mm 0,0 UV-I 0 W/m 11,0 C 8,9 C 25,7 km/h (4 Bft) 96,30 %
12.05.2016 01:34 13,7 C 84 % 999,5 hPa 0,0 l/m 16,3 km/h (3 Bft) O 84 0 min 0,000 mm 0,0 UV-I 0 W/m 11,0 C 9,2 C 20,9 km/h (4 Bft) 95,65 %
12.05.2016 01:35 13,7 C 84 % 999,5 hPa 0,0 l/m 18,6 km/h (3 Bft) O-NO 69 0 min 0,000 mm 0,0 UV-I 0 W/m 11,0 C 8,5 C 25,7 km/h (4 Bft) 100,00 %
12.05.2016 01:36 13,7 C 84 % 999,5 hPa 0,0 l/m 17,3 km/h (3 Bft) O-NO 63 0 min 0,000 mm 0,0 UV-I 0 W/m 11,0 C 8,9 C 24,1 km/h (4 Bft) 97,14 %
12.05.2016 01:37 13,7 C 84 % 999,4 hPa 0,0 l/m 19,4 km/h (3 Bft) NO 49 0 min 0,000 mm 0,0 UV-I 0 W/m 11,0 C 8,2 C 25,7 km/h (4 Bft) 100,00 %
12.05.2016 01:38 13,7 C 84 % 999,4 hPa 0,0 l/m 15,0 km/h (3 Bft) O-NO 66 0 min 0,000 mm 0,0 UV-I 0 W/m 11,0 C 9,6 C 19,3 km/h (3 Bft) 92,86 %
12.05.2016 01:39 13,7 C 84 % 999,4 hPa 0,0 l/m 14,2 km/h (3 Bft) O-NO 63 0 min 0,000 mm 0,0 UV-I 0 W/m 11,0 C 9,9 C 19,3 km/h (3 Bft) 100,00 %
12.05.2016 01:40 13,7 C 84 % 999,4 hPa 0,0 l/m 17,2 km/h (3 Bft) O-NO 62 0 min 0,000 mm 0,0 UV-I 0 W/m 11,0 C 8,9 C 22,5 km/h (4 Bft) 92,31 %
12.05.2016 01:41 13,7 C 84 % 999,4 hPa 0,0 l/m 15,4 km/h (3 Bft) NO 42 0 min 0,000 mm 0,0 UV-I 0 W/m 11,0 C 9,5 C 22,5 km/h (4 Bft) 100,00 %
12.05.2016 01:42 13,7 C 84 % 999,5 hPa 0,0 l/m 20,1 km/h (4 Bft) O-NO 69 0 min 0,000 mm 0,0 UV-I 0 W/m 11,0 C 8,0 C 24,1 km/h (4 Bft) 96,30 %
12.05.2016 01:43 13,7 C 84 % 999,4 hPa 0,0 l/m 21,5 km/h (4 Bft) NO 56 0 min 0,000 mm 0,0 UV-I 0 W/m 11,0 C 7,7 C 30,6 km/h (5 Bft) 96,15 %
12.05.2016 01:44 13,7 C 84 % 999,4 hPa 0,0 l/m 17,9 km/h (3 Bft) NO 40 0 min 0,000 mm 0,0 UV-I 0 W/m 11,0 C 8,7 C 29,0 km/h (5 Bft) 100,00 %
12.05.2016 01:45 13,7 C 84 % 999,4 hPa 0,0 l/m 21,1 km/h (4 Bft) O-NO 62 0 min 0,000 mm 0,0 UV-I 0 W/m 11,0 C 7,8 C 27,4 km/h (4 Bft) 94,44 %
12.05.2016 01:46 13,7 C 84 % 999,4 hPa 0,0 l/m 23,7 km/h (4 Bft) NO 42 0 min 0,000 mm 0,0 UV-I 0 W/m 11,0 C 7,1 C 32,2 km/h (5 Bft) 100,00 %
12.05.2016 01:47 13,7 C 84 % 999,4 hPa 0,0 l/m 15,1 km/h (3 Bft) N-NO 31 0 min 0,000 mm 0,0 UV-I 0 W/m 11,0 C 9,6 C 20,9 km/h (4 Bft) 96,15 %
12.05.2016 01:48 13,7 C 84 % 999,4 hPa 0,0 l/m 15,9 km/h (3 Bft) O 80 0 min 0,000 mm 0,0 UV-I 0 W/m 11,0 C 9,3 C 24,1 km/h (4 Bft) 100,00 %
12.05.2016 01:49 13,7 C 84 % 999,4 hPa 0,0 l/m 18,6 km/h (3 Bft) O-NO 63 0 min 0,000 mm 0,0 UV-I 0 W/m 11,0 C 8,5 C 24,1 km/h (4 Bft) 96,15 %
12.05.2016 01:50 13,7 C 84 % 999,3 hPa 0,0 l/m 16,4 km/h (3 Bft) O-NO 71 0 min 0,000 mm 0,0 UV-I 0 W/m 11,0 C 9,1 C 22,5 km/h (4 Bft) 100,00 %
12.05.2016 01:51 13,7 C 84 % 999,3 hPa 0,0 l/m 17,2 km/h (3 Bft) NO 53 0 min 0,000 mm 0,0 UV-I 0 W/m 11,0 C 8,9 C 24,1 km/h (4 Bft) 100,00 %
12.05.2016 01:52 13,7 C 84 % 999,3 hPa 0,0 l/m 19,8 km/h (3 Bft) O-NO 64 0 min 0,000 mm 0,0 UV-I 0 W/m 11,0 C 8,1 C 27,4 km/h (4 Bft) 100,00 %
12.05.2016 01:53 13,7 C 84 % 999,3 hPa 0,0 l/m 20,8 km/h (4 Bft) NO 43 0 min 0,000 mm 0,0 UV-I 0 W/m 11,0 C 7,9 C 25,7 km/h (4 Bft) 100,00 %
12.05.2016 01:54 13,7 C 84 % 999,3 hPa 0,0 l/m 19,2 km/h (3 Bft) O 101 0 min 0,000 mm 0,0 UV-I 0 W/m 11,0 C 8,3 C 25,7 km/h (4 Bft) 96,30 %
12.05.2016 01:55 13,7 C 85 % 999,2 hPa 0,0 l/m 19,2 km/h (3 Bft) O-NO 57 0 min 0,000 mm 0,0 UV-I 0 W/m 11,2 C 8,3 C 27,4 km/h (4 Bft) 100,00 %
12.05.2016 01:56 13,7 C 85 % 999,3 hPa 0,0 l/m 20,8 km/h (4 Bft) NO 54 0 min 0,000 mm 0,0 UV-I 0 W/m 11,2 C 7,9 C 29,0 km/h (5 Bft) 100,00 %
12.05.2016 01:57 13,6 C 85 % 999,2 hPa 0,0 l/m 19,9 km/h (4 Bft) O-NO 73 0 min 0,000 mm 0,0 UV-I 0 W/m 11,1 C 8,0 C 27,4 km/h (4 Bft) 100,00 %
12.05.2016 01:58 13,6 C 85 % 999,2 hPa 0,0 l/m 20,4 km/h (4 Bft) O-NO 62 0 min 0,000 mm 0,0 UV-I 0 W/m 11,1 C 7,8 C 25,7 km/h (4 Bft) 96,15 %
12.05.2016 01:59 13,6 C 85 % 999,3 hPa 0,0 l/m 13,5 km/h (3 Bft) NO 39 0 min 0,000 mm 0,0 UV-I 0 W/m 11,1 C 10,1 C 17,7 km/h (3 Bft) 100,00 %
12.05.2016 02:00 13,6 C 85 % 999,3 hPa 0,0 l/m 16,7 km/h (3 Bft) O 82 0 min 0,025 mm 0,0 UV-I 0 W/m 11,1 C 8,9 C 22,5 km/h (4 Bft) 96,30 %
12.05.2016 02:02 13,6 C 85 % 999,2 hPa 0,0 l/m 16,3 km/h (3 Bft) O-NO 58 0 min 0,000 mm 0,0 UV-I 0 W/m 11,1 C 9,1 C 22,5 km/h (4 Bft) 97,37 %
12.05.2016 02:03 13,6 C 85 % 999,2 hPa 0,0 l/m 17,2 km/h (3 Bft) O-NO 57 0 min 0,000 mm 0,0 UV-I 0 W/m 11,1 C 8,8 C 22,5 km/h (4 Bft) 100,00 %
12.05.2016 02:04 13,6 C 85 % 999,2 hPa 0,0 l/m 17,4 km/h (3 Bft) O-NO 64 0 min 0,000 mm 0,0 UV-I 0 W/m 11,1 C 8,7 C 24,1 km/h (4 Bft) 100,00 %
12.05.2016 02:05 13,6 C 85 % 999,2 hPa 0,0 l/m 17,5 km/h (3 Bft) NO 51 0 min 0,000 mm 0,0 UV-I 0 W/m 11,1 C 8,7 C 22,5 km/h (4 Bft) 100,00 %
12.05.2016 02:06 13,6 C 85 % 999,2 hPa 0,0 l/m 16,2 km/h (3 Bft) O-NO 62 0 min 0,000 mm 0,0 UV-I 0 W/m 11,1 C 9,1 C 20,9 km/h (4 Bft) 96,15 %
12.05.2016 02:07 13,6 C 85 % 999,2 hPa 0,0 l/m 16,7 km/h (3 Bft) O-NO 68 0 min 0,000 mm 0,0 UV-I 0 W/m 11,1 C 8,9 C 19,3 km/h (3 Bft) 100,00 %
12.05.2016 02:08 13,6 C 85 % 999,2 hPa 0,0 l/m 16,0 km/h (3 Bft) NO 40 0 min 0,000 mm 0,0 UV-I 0 W/m 11,1 C 9,2 C 22,5 km/h (4 Bft) 96,88 %
12.05.2016 02:09 13,6 C 85 % 999,2 hPa 0,0 l/m 18,0 km/h (3 Bft) O-NO 69 0 min 0,000 mm 0,0 UV-I 0 W/m 11,1 C 8,5 C 30,6 km/h (5 Bft) 100,00 %
12.05.2016 02:10 13,5 C 85 % 999,2 hPa 0,0 l/m 23,3 km/h (4 Bft) NO 51 0 min 0,000 mm 0,0 UV-I 0 W/m 11,0 C 7,0 C 29,0 km/h (5 Bft) 100,00 %
12.05.2016 02:11 13,5 C 85 % 999,2 hPa 0,0 l/m 18,7 km/h (3 Bft) O-NO 71 0 min 0,000 mm 0,0 UV-I 0 W/m 11,0 C 8,2 C 22,5 km/h (4 Bft) 100,00 %
12.05.2016 02:12 13,5 C 85 % 999,2 hPa 0,0 l/m 17,6 km/h (3 Bft) NO 53 0 min 0,000 mm 0,0 UV-I 0 W/m 11,0 C 8,5 C 22,5 km/h (4 Bft) 100,00 %
12.05.2016 02:13 13,6 C 85 % 999,2 hPa 0,0 l/m 20,5 km/h (4 Bft) NO 43 0 min 0,000 mm 0,0 UV-I 0 W/m 11,1 C 7,8 C 27,4 km/h (4 Bft) 100,00 %
12.05.2016 02:14 13,5 C 85 % 999,1 hPa 0,0 l/m 18,5 km/h (3 Bft) O-NO 64 0 min 0,000 mm 0,0 UV-I 0 W/m 11,0 C 8,2 C 27,4 km/h (4 Bft) 100,00 %
12.05.2016 02:15 13,5 C 85 % 999,2 hPa 0,0 l/m 16,6 km/h (3 Bft) NO 51 0 min 0,000 mm 0,0 UV-I 0 W/m 11,0 C 8,8 C 22,5 km/h (4 Bft) 100,00 %
12.05.2016 02:16 13,5 C 85 % 999,1 hPa 0,0 l/m 18,6 km/h (3 Bft) O-NO 69 0 min 0,000 mm 0,0 UV-I 0 W/m 11,0 C 8,2 C 22,5 km/h (4 Bft) 100,00 %
12.05.2016 02:17 13,5 C 85 % 999,1 hPa 0,0 l/m 18,5 km/h (3 Bft) O-NO 69 0 min 0,000 mm 0,0 UV-I 0 W/m 11,0 C 8,2 C 24,1 km/h (4 Bft) 100,00 %
12.05.2016 02:18 13,5 C 85 % 999,1 hPa 0,0 l/m 15,2 km/h (3 Bft) NO 39 0 min 0,000 mm 0,0 UV-I 0 W/m 11,0 C 9,3 C 17,7 km/h (3 Bft) 100,00 %
12.05.2016 02:19 13,4 C 85 % 999,1 hPa 0,0 l/m 15,0 km/h (3 Bft) NO 53 0 min 0,000 mm 0,0 UV-I 0 W/m 10,9 C 9,3 C 20,9 km/h (4 Bft) 100,00 %
12.05.2016 02:20 13,5 C 85 % 999,1 hPa 0,0 l/m 16,7 km/h (3 Bft) NO 45 0 min 0,000 mm 0,0 UV-I 0 W/m 11,0 C 8,8 C 20,9 km/h (4 Bft) 100,00 %
12.05.2016 02:21 13,5 C 85 % 999,1 hPa 0,0 l/m 17,1 km/h (3 Bft) O-NO 69 0 min 0,000 mm 0,0 UV-I 0 W/m 11,0 C 8,7 C 24,1 km/h (4 Bft) 100,00 %
12.05.2016 02:22 13,4 C 85 % 999,0 hPa 0,0 l/m 18,5 km/h (3 Bft) NO 44 0 min 0,000 mm 0,0 UV-I 0 W/m 10,9 C 8,1 C 22,5 km/h (4 Bft) 100,00 %
12.05.2016 02:23 13,4 C 85 % 999,0 hPa 0,0 l/m 16,7 km/h (3 Bft) O-NO 73 0 min 0,000 mm 0,0 UV-I 0 W/m 10,9 C 8,7 C 20,9 km/h (4 Bft) 100,00 %
12.05.2016 02:24 13,4 C 85 % 999,0 hPa 0,0 l/m 19,7 km/h (3 Bft) NO 54 0 min 0,000 mm 0,0 UV-I 0 W/m 10,9 C 7,8 C 27,4 km/h (4 Bft) 100,00 %
12.05.2016 02:25 13,4 C 86 % 999,0 hPa 0,0 l/m 15,4 km/h (3 Bft) O-NO 61 0 min 0,000 mm 0,0 UV-I 0 W/m 11,1 C 9,1 C 19,3 km/h (3 Bft) 100,00 %
12.05.2016 02:26 13,4 C 86 % 999,0 hPa 0,0 l/m 16,1 km/h (3 Bft) NO 40 0 min 0,000 mm 0,0 UV-I 0 W/m 11,1 C 8,9 C 20,9 km/h (4 Bft) 100,00 %
12.05.2016 02:27 13,4 C 86 % 998,9 hPa 0,0 l/m 16,7 km/h (3 Bft) O-NO 69 0 min 0,000 mm 0,0 UV-I 0 W/m 11,1 C 8,7 C 22,5 km/h (4 Bft) 100,00 %
12.05.2016 02:28 13,4 C 86 % 998,9 hPa 0,0 l/m 17,8 km/h (3 Bft) O 86 0 min 0,000 mm 0,0 UV-I 0 W/m 11,1 C 8,3 C 24,1 km/h (4 Bft) 100,00 %
12.05.2016 02:29 13,4 C 86 % 998,9 hPa 0,0 l/m 18,4 km/h (3 Bft) O-NO 57 0 min 0,000 mm 0,0 UV-I 0 W/m 11,1 C 8,1 C 24,1 km/h (4 Bft) 92,86 %
12.05.2016 02:30 13,4 C 86 % 998,9 hPa 0,0 l/m 20,0 km/h (4 Bft) NO 54 0 min 0,000 mm 0,0 UV-I 0 W/m 11,1 C 7,7 C 24,1 km/h (4 Bft) 100,00 %
12.05.2016 02:31 13,4 C 86 % 998,9 hPa 0,0 l/m 20,2 km/h (4 Bft) O-NO 63 0 min 0,000 mm 0,0 UV-I 0 W/m 11,1 C 7,6 C 25,7 km/h (4 Bft) 100,00 %
12.05.2016 02:32 13,4 C 86 % 998,9 hPa 0,0 l/m 19,6 km/h (3 Bft) N-NO 31 0 min 0,000 mm 0,0 UV-I 0 W/m 11,1 C 7,8 C 27,4 km/h (4 Bft) 100,00 %
12.05.2016 02:33 13,4 C 86 % 998,9 hPa 0,0 l/m 16,1 km/h (3 Bft) O-NO 60 0 min 0,000 mm 0,0 UV-I 0 W/m 11,1 C 8,9 C 19,3 km/h (3 Bft) 100,00 %
12.05.2016 02:34 13,4 C 86 % 998,9 hPa 0,0 l/m 20,5 km/h (4 Bft) O-NO 71 0 min 0,000 mm 0,0 UV-I 0 W/m 11,1 C 7,5 C 27,4 km/h (4 Bft) 100,00 %
12.05.2016 02:35 13,4 C 86 % 998,8 hPa 0,0 l/m 20,0 km/h (4 Bft) NO 45 0 min 0,000 mm 0,0 UV-I 0 W/m 11,1 C 7,7 C 24,1 km/h (4 Bft) 91,30 %
12.05.2016 02:36 13,4 C 86 % 998,8 hPa 0,0 l/m 18,9 km/h (3 Bft) NO 41 0 min 0,000 mm 0,0 UV-I 0 W/m 11,1 C 8,0 C 24,1 km/h (4 Bft) 96,30 %
12.05.2016 02:37 13,4 C 86 % 998,8 hPa 0,0 l/m 20,2 km/h (4 Bft) NO 46 0 min 0,000 mm 0,0 UV-I 0 W/m 11,1 C 7,6 C 25,7 km/h (4 Bft) 100,00 %
12.05.2016 02:38 13,4 C 86 % 998,8 hPa 0,0 l/m 19,2 km/h (3 Bft) NO 42 0 min 0,000 mm 0,0 UV-I 0 W/m 11,1 C 7,9 C 22,5 km/h (4 Bft) 100,00 %
12.05.2016 02:39 13,4 C 86 % 998,7 hPa 0,0 l/m 19,9 km/h (4 Bft) NO 42 0 min 0,000 mm 0,0 UV-I 0 W/m 11,1 C 7,7 C 25,7 km/h (4 Bft) 96,67 %
12.05.2016 02:40 13,4 C 86 % 998,7 hPa 0,0 l/m 17,0 km/h (3 Bft) O-NO 67 0 min 0,000 mm 0,0 UV-I 0 W/m 11,1 C 8,6 C 22,5 km/h (4 Bft) 100,00 %
12.05.2016 02:41 13,4 C 86 % 998,7 hPa 0,0 l/m 15,5 km/h (3 Bft) O-NO 58 0 min 0,000 mm 0,0 UV-I 0 W/m 11,1 C 9,1 C 29,0 km/h (5 Bft) 96,15 %
12.05.2016 02:42 13,4 C 86 % 998,6 hPa 0,0 l/m 17,8 km/h (3 Bft) O-NO 69 0 min 0,000 mm 0,0 UV-I 0 W/m 11,1 C 8,3 C 25,7 km/h (4 Bft) 100,00 %
12.05.2016 02:43 13,4 C 86 % 998,6 hPa 0,0 l/m 14,8 km/h (3 Bft) O-NO 57 0 min 0,000 mm 0,0 UV-I 0 W/m 11,1 C 9,3 C 20,9 km/h (4 Bft) 100,00 %
12.05.2016 02:44 13,4 C 86 % 998,7 hPa 0,0 l/m 18,9 km/h (3 Bft) O-NO 64 0 min 0,000 mm 0,0 UV-I 0 W/m 11,1 C 8,0 C 25,7 km/h (4 Bft) 96,15 %
12.05.2016 02:45 13,4 C 86 % 998,7 hPa 0,0 l/m 16,6 km/h (3 Bft) NO 44 0 min 0,000 mm 0,0 UV-I 0 W/m 11,1 C 8,7 C 20,9 km/h (4 Bft) 100,00 %
12.05.2016 02:46 13,4 C 86 % 998,7 hPa 0,0 l/m 15,7 km/h (3 Bft) O-NO 61 0 min 0,000 mm 0,0 UV-I 0 W/m 11,1 C 9,0 C 19,3 km/h (3 Bft) 100,00 %
12.05.2016 02:47 13,4 C 86 % 998,7 hPa 0,0 l/m 15,2 km/h (3 Bft) NO 52 0 min 0,000 mm 0,0 UV-I 0 W/m 11,1 C 9,2 C 20,9 km/h (4 Bft) 100,00 %
12.05.2016 02:48 13,4 C 86 % 998,6 hPa 0,0 l/m 17,5 km/h (3 Bft) NO 55 0 min 0,000 mm 0,0 UV-I 0 W/m 11,1 C 8,4 C 25,7 km/h (4 Bft) 96,15 %
12.05.2016 02:49 13,4 C 86 % 998,6 hPa 0,0 l/m 19,1 km/h (3 Bft) O-NO 61 0 min 0,000 mm 0,0 UV-I 0 W/m 11,1 C 7,9 C 25,7 km/h (4 Bft) 100,00 %
12.05.2016 02:50 13,4 C 86 % 998,6 hPa 0,0 l/m 17,4 km/h (3 Bft) NO 51 0 min 0,000 mm 0,0 UV-I 0 W/m 11,1 C 8,4 C 20,9 km/h (4 Bft) 100,00 %
12.05.2016 02:51 13,4 C 86 % 998,6 hPa 0,0 l/m 16,0 km/h (3 Bft) NO 44 0 min 0,000 mm 0,0 UV-I 0 W/m 11,1 C 8,9 C 24,1 km/h (4 Bft) 100,00 %
12.05.2016 02:52 13,4 C 86 % 998,6 hPa 0,0 l/m 15,3 km/h (3 Bft) O-NO 60 0 min 0,000 mm 0,0 UV-I 0 W/m 11,1 C 9,1 C 22,5 km/h (4 Bft) 100,00 %
12.05.2016 02:53 13,4 C 86 % 998,6 hPa 0,0 l/m 9,0 km/h (2 Bft) O-NO 74 0 min 0,000 mm 0,0 UV-I 0 W/m 11,1 C 11,9 C 14,5 km/h (3 Bft) 100,00 %
12.05.2016 02:54 13,4 C 86 % 998,6 hPa 0,0 l/m 14,8 km/h (3 Bft) O-NO 58 0 min 0,000 mm 0,0 UV-I 0 W/m 11,1 C 9,3 C 24,1 km/h (4 Bft) 95,65 %
12.05.2016 02:55 13,4 C 86 % 998,6 hPa 0,0 l/m 13,4 km/h (3 Bft) O-NO 77 0 min 0,000 mm 0,0 UV-I 0 W/m 11,1 C 9,9 C 20,9 km/h (4 Bft) 100,00 %
12.05.2016 02:56 13,4 C 86 % 998,6 hPa 0,0 l/m 17,9 km/h (3 Bft) O 82 0 min 0,000 mm 0,0 UV-I 0 W/m 11,1 C 8,3 C 25,7 km/h (4 Bft) 100,00 %
12.05.2016 02:57 13,4 C 86 % 998,6 hPa 0,0 l/m 16,7 km/h (3 Bft) NO 49 0 min 0,000 mm 0,0 UV-I 0 W/m 11,1 C 8,7 C 20,9 km/h (4 Bft) 100,00 %
12.05.2016 02:58 13,4 C 86 % 998,5 hPa 0,0 l/m 18,1 km/h (3 Bft) NO 47 0 min 0,000 mm 0,0 UV-I 0 W/m 11,1 C 8,2 C 22,5 km/h (4 Bft) 100,00 %
12.05.2016 02:59 13,3 C 86 % 998,5 hPa 0,0 l/m 17,5 km/h (3 Bft) O-NO 73 0 min 0,000 mm 0,0 UV-I 0 W/m 11,0 C 8,3 C 22,5 km/h (4 Bft) 100,00 %
12.05.2016 03:00 13,3 C 86 % 998,6 hPa 0,0 l/m 16,8 km/h (3 Bft) O-NO 57 0 min 0,026 mm 0,0 UV-I 0 W/m 11,0 C 8,5 C 20,9 km/h (4 Bft) 96,55 %
12.05.2016 03:01 13,3 C 86 % 998,6 hPa 0,0 l/m 18,6 km/h (3 Bft) O-NO 67 0 min 0,000 mm 0,0 UV-I 0 W/m 11,0 C 8,0 C 25,7 km/h (4 Bft) 100,00 %
12.05.2016 03:02 13,3 C 86 % 998,5 hPa 0,0 l/m 18,3 km/h (3 Bft) NO 43 0 min 0,000 mm 0,0 UV-I 0 W/m 11,0 C 8,0 C 22,5 km/h (4 Bft) 100,00 %
12.05.2016 03:03 13,3 C 86 % 998,6 hPa 0,0 l/m 16,4 km/h (3 Bft) O-NO 65 0 min 0,000 mm 0,0 UV-I 0 W/m 11,0 C 8,6 C 20,9 km/h (4 Bft) 95,83 %
12.05.2016 03:04 13,3 C 86 % 998,5 hPa 0,0 l/m 11,5 km/h (2 Bft) O-NO 59 0 min 0,000 mm 0,0 UV-I 0 W/m 11,0 C 10,5 C 19,3 km/h (3 Bft) 100,00 %
12.05.2016 03:05 13,3 C 86 % 998,5 hPa 0,0 l/m 17,2 km/h (3 Bft) O-NO 78 0 min 0,000 mm 0,0 UV-I 0 W/m 11,0 C 8,4 C 22,5 km/h (4 Bft) 100,00 %
12.05.2016 03:06 13,3 C 86 % 998,5 hPa 0,0 l/m 17,5 km/h (3 Bft) NO 44 0 min 0,000 mm 0,0 UV-I 0 W/m 11,0 C 8,3 C 24,1 km/h (4 Bft) 100,00 %
12.05.2016 03:07 13,3 C 86 % 998,5 hPa 0,0 l/m 13,8 km/h (3 Bft) NO 45 0 min 0,000 mm 0,0 UV-I 0 W/m 11,0 C 9,6 C 17,7 km/h (3 Bft) 96,88 %
12.05.2016 03:08 13,3 C 86 % 998,5 hPa 0,0 l/m 17,1 km/h (3 Bft) NO 54 0 min 0,000 mm 0,0 UV-I 0 W/m 11,0 C 8,4 C 24,1 km/h (4 Bft) 100,00 %
12.05.2016 03:09 13,3 C 86 % 998,5 hPa 0,0 l/m 17,1 km/h (3 Bft) NO 55 0 min 0,000 mm 0,0 UV-I 0 W/m 11,0 C 8,4 C 20,9 km/h (4 Bft) 100,00 %
12.05.2016 03:10 13,3 C 86 % 998,5 hPa 0,0 l/m 16,1 km/h (3 Bft) NO 49 0 min 0,000 mm 0,0 UV-I 0 W/m 11,0 C 8,7 C 20,9 km/h (4 Bft) 93,33 %
12.05.2016 03:11 13,3 C 86 % 998,5 hPa 0,0 l/m 13,4 km/h (3 Bft) NO 55 0 min 0,000 mm 0,0 UV-I 0 W/m 11,0 C 9,7 C 17,7 km/h (3 Bft) 100,00 %
12.05.2016 03:12 13,3 C 86 % 998,5 hPa 0,0 l/m 16,0 km/h (3 Bft) O-NO 63 0 min 0,000 mm 0,0 UV-I 0 W/m 11,0 C 8,8 C 22,5 km/h (4 Bft) 100,00 %
12.05.2016 03:13 13,3 C 86 % 998,4 hPa 0,0 l/m 13,5 km/h (3 Bft) NO 48 0 min 0,000 mm 0,0 UV-I 0 W/m 11,0 C 9,7 C 19,3 km/h (3 Bft) 95,65 %
12.05.2016 03:14 13,2 C 86 % 998,4 hPa 0,0 l/m 17,9 km/h (3 Bft) O-NO 73 0 min 0,000 mm 0,0 UV-I 0 W/m 10,9 C 8,0 C 25,7 km/h (4 Bft) 100,00 %
12.05.2016 03:15 13,2 C 86 % 998,4 hPa 0,0 l/m 16,7 km/h (3 Bft) O-NO 68 0 min 0,000 mm 0,0 UV-I 0 W/m 10,9 C 8,4 C 32,2 km/h (5 Bft) 96,15 %
12.05.2016 03:16 13,2 C 86 % 998,4 hPa 0,0 l/m 14,6 km/h (3 Bft) NO 40 0 min 0,000 mm 0,0 UV-I 0 W/m 10,9 C 9,2 C 29,0 km/h (5 Bft) 100,00 %
12.05.2016 03:17 13,2 C 86 % 998,4 hPa 0,0 l/m 15,6 km/h (3 Bft) NO 47 0 min 0,000 mm 0,0 UV-I 0 W/m 10,9 C 8,8 C 20,9 km/h (4 Bft) 92,31 %
12.05.2016 03:18 13,2 C 86 % 998,4 hPa 0,0 l/m 20,7 km/h (4 Bft) O-NO 78 0 min 0,000 mm 0,0 UV-I 0 W/m 10,9 C 7,2 C 27,4 km/h (4 Bft) 95,83 %
12.05.2016 03:19 13,2 C 86 % 998,3 hPa 0,0 l/m 16,8 km/h (3 Bft) O-NO 65 0 min 0,000 mm 0,0 UV-I 0 W/m 10,9 C 8,4 C 22,5 km/h (4 Bft) 100,00 %
12.05.2016 03:20 13,2 C 86 % 998,3 hPa 0,0 l/m 17,8 km/h (3 Bft) O-NO 58 0 min 0,000 mm 0,0 UV-I 0 W/m 10,9 C 8,1 C 20,9 km/h (4 Bft) 96,55 %
12.05.2016 03:21 13,2 C 86 % 998,3 hPa 0,0 l/m 20,3 km/h (4 Bft) O-NO 57 0 min 0,000 mm 0,0 UV-I 0 W/m 10,9 C 7,3 C 27,4 km/h (4 Bft) 100,00 %
12.05.2016 03:22 13,2 C 86 % 998,3 hPa 0,0 l/m 20,4 km/h (4 Bft) O-NO 74 0 min 0,000 mm 0,0 UV-I 0 W/m 10,9 C 7,3 C 27,4 km/h (4 Bft) 96,30 %
12.05.2016 03:23 13,2 C 86 % 998,3 hPa 0,0 l/m 18,6 km/h (3 Bft) NO 54 0 min 0,000 mm 0,0 UV-I 0 W/m 10,9 C 7,8 C 24,1 km/h (4 Bft) 93,33 %
12.05.2016 03:24 13,2 C 86 % 998,3 hPa 0,0 l/m 16,7 km/h (3 Bft) O-NO 60 0 min 0,000 mm 0,0 UV-I 0 W/m 10,9 C 8,4 C 19,3 km/h (3 Bft) 91,30 %
12.05.2016 03:25 13,2 C 86 % 998,3 hPa 0,0 l/m 18,1 km/h (3 Bft) O-NO 66 0 min 0,000 mm 0,0 UV-I 0 W/m 10,9 C 8,0 C 22,5 km/h (4 Bft) 100,00 %
12.05.2016 03:26 13,2 C 86 % 998,3 hPa 0,0 l/m 19,1 km/h (3 Bft) NO 49 0 min 0,000 mm 0,0 UV-I 0 W/m 10,9 C 7,7 C 24,1 km/h (4 Bft) 94,12 %
12.05.2016 03:27 13,2 C 86 % 998,4 hPa 0,0 l/m 23,0 km/h (4 Bft) NO 47 0 min 0,000 mm 0,0 UV-I 0 W/m 10,9 C 6,6 C 30,6 km/h (5 Bft) 100,00 %
12.05.2016 03:28 13,2 C 86 % 998,3 hPa 0,0 l/m 23,0 km/h (4 Bft) NO 43 0 min 0,000 mm 0,0 UV-I 0 W/m 10,9 C 6,6 C 30,6 km/h (5 Bft) 96,15 %
12.05.2016 03:29 13,2 C 86 % 998,3 hPa 0,0 l/m 19,4 km/h (3 Bft) O-NO 77 0 min 0,000 mm 0,0 UV-I 0 W/m 10,9 C 7,6 C 29,0 km/h (5 Bft) 96,30 %
12.05.2016 03:30 13,2 C 86 % 998,3 hPa 0,0 l/m 18,3 km/h (3 Bft) O-NO 64 0 min 0,000 mm 0,0 UV-I 0 W/m 10,9 C 7,9 C 22,5 km/h (4 Bft) 95,65 %
12.05.2016 03:31 13,2 C 86 % 998,3 hPa 0,0 l/m 18,6 km/h (3 Bft) O-NO 71 0 min 0,000 mm 0,0 UV-I 0 W/m 10,9 C 7,8 C 25,7 km/h (4 Bft) 95,83 %
12.05.2016 03:32 13,2 C 86 % 998,3 hPa 0,0 l/m 17,5 km/h (3 Bft) N-NO 33 0 min 0,000 mm 0,0 UV-I 0 W/m 10,9 C 8,2 C 24,1 km/h (4 Bft) 100,00 %
12.05.2016 03:33 13,2 C 86 % 998,3 hPa 0,0 l/m 18,0 km/h (3 Bft) NO 45 0 min 0,000 mm 0,0 UV-I 0 W/m 10,9 C 8,0 C 20,9 km/h (4 Bft) 96,30 %
12.05.2016 03:34 13,2 C 86 % 998,3 hPa 0,0 l/m 15,9 km/h (3 Bft) O-NO 58 0 min 0,000 mm 0,0 UV-I 0 W/m 10,9 C 8,7 C 20,9 km/h (4 Bft) 96,55 %
12.05.2016 03:35 13,1 C 86 % 998,3 hPa 0,0 l/m 17,9 km/h (3 Bft) O-NO 67 0 min 0,000 mm 0,0 UV-I 0 W/m 10,8 C 7,9 C 20,9 km/h (4 Bft) 100,00 %
12.05.2016 03:36 13,1 C 86 % 998,3 hPa 0,0 l/m 23,2 km/h (4 Bft) O-NO 59 0 min 0,000 mm 0,0 UV-I 0 W/m 10,8 C 6,5 C 37,0 km/h (5 Bft) 96,55 %
12.05.2016 03:37 13,1 C 86 % 998,2 hPa 0,0 l/m 20,6 km/h (4 Bft) O-NO 76 0 min 0,000 mm 0,0 UV-I 0 W/m 10,8 C 7,1 C 25,7 km/h (4 Bft) 96,30 %
12.05.2016 03:38 13,1 C 86 % 998,2 hPa 0,0 l/m 18,2 km/h (3 Bft) O-NO 64 0 min 0,000 mm 0,0 UV-I 0 W/m 10,8 C 7,8 C 24,1 km/h (4 Bft) 96,15 %
12.05.2016 03:39 13,1 C 86 % 998,2 hPa 0,0 l/m 20,3 km/h (4 Bft) O-NO 58 0 min 0,000 mm 0,0 UV-I 0 W/m 10,8 C 7,2 C 27,4 km/h (4 Bft) 100,00 %
12.05.2016 03:40 13,1 C 86 % 998,3 hPa 0,0 l/m 23,2 km/h (4 Bft) O-NO 61 0 min 0,000 mm 0,0 UV-I 0 W/m 10,8 C 6,5 C 29,0 km/h (5 Bft) 96,67 %
12.05.2016 03:41 13,1 C 86 % 998,2 hPa 0,0 l/m 22,8 km/h (4 Bft) NO 56 0 min 0,000 mm 0,0 UV-I 0 W/m 10,8 C 6,6 C 29,0 km/h (5 Bft) 100,00 %
12.05.2016 03:42 13,1 C 86 % 998,2 hPa 0,0 l/m 19,9 km/h (4 Bft) O-NO 69 0 min 0,000 mm 0,0 UV-I 0 W/m 10,8 C 7,3 C 25,7 km/h (4 Bft) 92,31 %
12.05.2016 03:43 13,1 C 86 % 998,1 hPa 0,0 l/m 15,0 km/h (3 Bft) NO 50 0 min 0,000 mm 0,0 UV-I 0 W/m 10,8 C 8,9 C 19,3 km/h (3 Bft) 100,00 %
12.05.2016 03:44 13,1 C 86 % 998,1 hPa 0,0 l/m 16,8 km/h (3 Bft) O-NO 64 0 min 0,000 mm 0,0 UV-I 0 W/m 10,8 C 8,3 C 20,9 km/h (4 Bft) 96,30 %
12.05.2016 03:45 13,1 C 86 % 998,2 hPa 0,0 l/m 18,9 km/h (3 Bft) NO 56 0 min 0,000 mm 0,0 UV-I 0 W/m 10,8 C 7,6 C 24,1 km/h (4 Bft) 92,31 %
12.05.2016 03:46 13,1 C 86 % 998,2 hPa 0,0 l/m 22,0 km/h (4 Bft) NO 55 0 min 0,000 mm 0,0 UV-I 0 W/m 10,8 C 6,8 C 32,2 km/h (5 Bft) 100,00 %
12.05.2016 03:47 13,1 C 86 % 998,1 hPa 0,0 l/m 20,1 km/h (4 Bft) NO 49 0 min 0,000 mm 0,0 UV-I 0 W/m 10,8 C 7,3 C 27,4 km/h (4 Bft) 94,12 %
12.05.2016 03:48 13,1 C 86 % 998,1 hPa 0,0 l/m 16,1 km/h (3 Bft) O 80 0 min 0,000 mm 0,0 UV-I 0 W/m 10,8 C 8,5 C 19,3 km/h (3 Bft) 100,00 %
12.05.2016 03:49 13,1 C 86 % 998,1 hPa 0,0 l/m 16,9 km/h (3 Bft) NO 47 0 min 0,000 mm 0,0 UV-I 0 W/m 10,8 C 8,2 C 24,1 km/h (4 Bft) 95,65 %
12.05.2016 03:50 13,1 C 86 % 998,1 hPa 0,0 l/m 22,9 km/h (4 Bft) O-NO 78 0 min 0,000 mm 0,0 UV-I 0 W/m 10,8 C 6,5 C 30,6 km/h (5 Bft) 100,00 %
12.05.2016 03:51 13,1 C 86 % 998,1 hPa 0,0 l/m 14,0 km/h (3 Bft) O-NO 57 0 min 0,000 mm 0,0 UV-I 0 W/m 10,8 C 9,3 C 20,9 km/h (4 Bft) 100,00 %
12.05.2016 03:52 13,1 C 86 % 998,1 hPa 0,0 l/m 16,2 km/h (3 Bft) O-NO 58 0 min 0,000 mm 0,0 UV-I 0 W/m 10,8 C 8,5 C 22,5 km/h (4 Bft) 100,00 %
12.05.2016 03:53 13,1 C 86 % 998,0 hPa 0,0 l/m 20,0 km/h (4 Bft) NO 49 0 min 0,000 mm 0,0 UV-I 0 W/m 10,8 C 7,3 C 27,4 km/h (4 Bft) 100,00 %
12.05.2016 03:54 13,1 C 86 % 998,1 hPa 0,0 l/m 17,5 km/h (3 Bft) O-NO 70 0 min 0,000 mm 0,0 UV-I 0 W/m 10,8 C 8,0 C 22,5 km/h (4 Bft) 96,30 %
12.05.2016 03:55 13,1 C 86 % 998,1 hPa 0,0 l/m 19,6 km/h (3 Bft) O-NO 75 0 min 0,000 mm 0,0 UV-I 0 W/m 10,8 C 7,4 C 25,7 km/h (4 Bft) 100,00 %
12.05.2016 03:56 13,1 C 86 % 998,0 hPa 0,0 l/m 22,7 km/h (4 Bft) O-NO 57 0 min 0,000 mm 0,0 UV-I 0 W/m 10,8 C 6,6 C 29,0 km/h (5 Bft) 95,83 %
12.05.2016 03:57 13,1 C 86 % 998,0 hPa 0,0 l/m 18,8 km/h (3 Bft) NO 51 0 min 0,000 mm 0,0 UV-I 0 W/m 10,8 C 7,6 C 29,0 km/h (5 Bft) 96,55 %
12.05.2016 03:58 13,1 C 86 % 998,0 hPa 0,0 l/m 17,0 km/h (3 Bft) O-NO 65 0 min 0,000 mm 0,0 UV-I 0 W/m 10,8 C 8,2 C 20,9 km/h (4 Bft) 100,00 %
12.05.2016 03:59 13,1 C 86 % 998,0 hPa 0,0 l/m 13,4 km/h (3 Bft) NO 53 0 min 0,000 mm 0,0 UV-I 0 W/m 10,8 C 9,5 C 17,7 km/h (3 Bft) 100,00 %
12.05.2016 04:00 13,0 C 86 % 998,0 hPa 0,0 l/m 21,5 km/h (4 Bft) NO 49 0 min 0,025 mm 0,0 UV-I 0 W/m 10,7 C 6,8 C 30,6 km/h (5 Bft) 96,15 %
12.05.2016 04:01 13,0 C 86 % 998,0 hPa 0,0 l/m 19,1 km/h (3 Bft) O-NO 63 0 min 0,000 mm 0,0 UV-I 0 W/m 10,7 C 7,4 C 24,1 km/h (4 Bft) 100,00 %
12.05.2016 04:02 13,0 C 86 % 998,0 hPa 0,0 l/m 20,7 km/h (4 Bft) O-NO 71 0 min 0,000 mm 0,0 UV-I 0 W/m 10,7 C 7,0 C 29,0 km/h (5 Bft) 100,00 %
12.05.2016 04:03 13,1 C 86 % 997,9 hPa 0,0 l/m 14,8 km/h (3 Bft) NO 49 0 min 0,000 mm 0,0 UV-I 0 W/m 10,8 C 9,0 C 24,1 km/h (4 Bft) 100,00 %
12.05.2016 04:04 13,0 C 86 % 997,9 hPa 0,0 l/m 18,9 km/h (3 Bft) O 80 0 min 0,000 mm 0,0 UV-I 0 W/m 10,7 C 7,5 C 22,5 km/h (4 Bft) 91,30 %
12.05.2016 04:05 13,0 C 86 % 998,0 hPa 0,0 l/m 20,8 km/h (4 Bft) NO 46 0 min 0,000 mm 0,0 UV-I 0 W/m 10,7 C 6,9 C 30,6 km/h (5 Bft) 100,00 %
12.05.2016 04:06 13,0 C 86 % 997,9 hPa 0,0 l/m 15,9 km/h (3 Bft) NO 51 0 min 0,000 mm 0,0 UV-I 0 W/m 10,7 C 8,4 C 20,9 km/h (4 Bft) 100,00 %
12.05.2016 04:07 13,0 C 86 % 997,8 hPa 0,0 l/m 16,3 km/h (3 Bft) O 80 0 min 0,000 mm 0,0 UV-I 0 W/m 10,7 C 8,3 C 20,9 km/h (4 Bft) 100,00 %
12.05.2016 04:08 12,9 C 86 % 997,8 hPa 0,0 l/m 15,1 km/h (3 Bft) O-NO 74 0 min 0,000 mm 0,0 UV-I 0 W/m 10,6 C 8,6 C 24,1 km/h (4 Bft) 100,00 %
12.05.2016 04:09 12,9 C 86 % 997,8 hPa 0,0 l/m 18,3 km/h (3 Bft) O-NO 70 0 min 0,000 mm 0,0 UV-I 0 W/m 10,6 C 7,5 C 24,1 km/h (4 Bft) 100,00 %
12.05.2016 04:10 12,9 C 86 % 997,8 hPa 0,0 l/m 15,2 km/h (3 Bft) O-NO 76 0 min 0,000 mm 0,0 UV-I 0 W/m 10,6 C 8,6 C 20,9 km/h (4 Bft) 96,55 %
12.05.2016 04:11 12,9 C 86 % 997,8 hPa 0,0 l/m 18,2 km/h (3 Bft) NO 51 0 min 0,000 mm 0,0 UV-I 0 W/m 10,6 C 7,6 C 24,1 km/h (4 Bft) 100,00 %
12.05.2016 04:12 12,9 C 86 % 997,8 hPa 0,0 l/m 14,8 km/h (3 Bft) NO 50 0 min 0,000 mm 0,0 UV-I 0 W/m 10,6 C 8,7 C 24,1 km/h (4 Bft) 100,00 %
12.05.2016 04:13 12,9 C 86 % 997,8 hPa 0,0 l/m 18,9 km/h (3 Bft) O-NO 59 0 min 0,000 mm 0,0 UV-I 0 W/m 10,6 C 7,4 C 25,7 km/h (4 Bft) 100,00 %
12.05.2016 04:14 12,9 C 86 % 997,7 hPa 0,0 l/m 17,5 km/h (3 Bft) O-NO 68 0 min 0,000 mm 0,0 UV-I 0 W/m 10,6 C 7,8 C 24,1 km/h (4 Bft) 100,00 %
12.05.2016 04:15 12,8 C 87 % 997,7 hPa 0,0 l/m 18,0 km/h (3 Bft) O-NO 69 0 min 0,000 mm 0,0 UV-I 0 W/m 10,7 C 7,5 C 25,7 km/h (4 Bft) 100,00 %
12.05.2016 04:16 12,9 C 87 % 997,7 hPa 0,0 l/m 16,0 km/h (3 Bft) O-NO 63 0 min 0,000 mm 0,0 UV-I 0 W/m 10,8 C 8,3 C 27,4 km/h (4 Bft) 100,00 %
12.05.2016 04:17 12,8 C 87 % 997,7 hPa 0,0 l/m 17,5 km/h (3 Bft) O 89 0 min 0,000 mm 0,0 UV-I 0 W/m 10,7 C 7,7 C 25,7 km/h (4 Bft) 100,00 %
12.05.2016 04:18 12,8 C 87 % 997,7 hPa 0,0 l/m 18,2 km/h (3 Bft) O-NO 69 0 min 0,000 mm 0,0 UV-I 0 W/m 10,7 C 7,4 C 20,9 km/h (4 Bft) 95,65 %
12.05.2016 04:19 12,8 C 87 % 997,7 hPa 0,0 l/m 20,3 km/h (4 Bft) O-NO 71 0 min 0,000 mm 0,0 UV-I 0 W/m 10,7 C 6,8 C 24,1 km/h (4 Bft) 100,00 %
12.05.2016 04:20 12,8 C 87 % 997,7 hPa 0,0 l/m 13,1 km/h (3 Bft) NO 54 0 min 0,000 mm 0,0 UV-I 0 W/m 10,7 C 9,3 C 16,1 km/h (3 Bft) 100,00 %
12.05.2016 04:21 12,8 C 87 % 997,7 hPa 0,0 l/m 13,9 km/h (3 Bft) O-NO 59 0 min 0,000 mm 0,0 UV-I 0 W/m 10,7 C 8,9 C 19,3 km/h (3 Bft) 100,00 %
12.05.2016 04:22 12,8 C 87 % 997,6 hPa 0,0 l/m 16,0 km/h (3 Bft) O-NO 67 0 min 0,000 mm 0,0 UV-I 0 W/m 10,7 C 8,2 C 20,9 km/h (4 Bft) 100,00 %
12.05.2016 04:23 12,8 C 87 % 997,7 hPa 0,0 l/m 20,0 km/h (4 Bft) NO 44 0 min 0,000 mm 0,0 UV-I 0 W/m 10,7 C 6,9 C 27,4 km/h (4 Bft) 100,00 %
12.05.2016 04:24 12,8 C 87 % 997,6 hPa 0,0 l/m 17,3 km/h (3 Bft) NO 53 0 min 0,000 mm 0,0 UV-I 0 W/m 10,7 C 7,7 C 20,9 km/h (4 Bft) 100,00 %
12.05.2016 04:25 12,8 C 87 % 997,6 hPa 0,0 l/m 19,5 km/h (3 Bft) O-NO 61 0 min 0,000 mm 0,0 UV-I 0 W/m 10,7 C 7,0 C 27,4 km/h (4 Bft) 96,15 %
12.05.2016 04:26 12,8 C 87 % 997,6 hPa 0,0 l/m 15,0 km/h (3 Bft) O-NO 69 0 min 0,000 mm 0,0 UV-I 0 W/m 10,7 C 8,5 C 24,1 km/h (4 Bft) 100,00 %
12.05.2016 04:27 12,8 C 87 % 997,6 hPa 0,0 l/m 20,9 km/h (4 Bft) O-NO 60 0 min 0,000 mm 0,0 UV-I 0 W/m 10,7 C 6,7 C 24,1 km/h (4 Bft) 100,00 %
12.05.2016 04:28 12,8 C 87 % 997,6 hPa 0,0 l/m 18,1 km/h (3 Bft) NO 52 0 min 0,000 mm 0,0 UV-I 0 W/m 10,7 C 7,5 C 22,5 km/h (4 Bft) 100,00 %
12.05.2016 04:29 12,8 C 87 % 997,6 hPa 0,0 l/m 21,9 km/h (4 Bft) O-NO 61 0 min 0,000 mm 0,0 UV-I 0 W/m 10,7 C 6,4 C 29,0 km/h (5 Bft) 100,00 %
12.05.2016 04:30 12,8 C 87 % 997,6 hPa 0,0 l/m 19,9 km/h (4 Bft) O-NO 63 0 min 0,000 mm 0,0 UV-I 0 W/m 10,7 C 6,9 C 27,4 km/h (4 Bft) 100,00 %
12.05.2016 04:31 12,8 C 87 % 997,5 hPa 0,0 l/m 17,0 km/h (3 Bft) NO 52 0 min 0,000 mm 0,0 UV-I 0 W/m 10,7 C 7,8 C 20,9 km/h (4 Bft) 100,00 %
12.05.2016 04:32 12,8 C 87 % 997,6 hPa 0,0 l/m 18,6 km/h (3 Bft) NO 53 0 min 0,000 mm 0,0 UV-I 0 W/m 10,7 C 7,3 C 25,7 km/h (4 Bft) 100,00 %
12.05.2016 04:33 12,8 C 87 % 997,5 hPa 0,0 l/m 16,9 km/h (3 Bft) O-NO 67 0 min 0,000 mm 0,0 UV-I 0 W/m 10,7 C 7,9 C 24,1 km/h (4 Bft) 100,00 %
12.05.2016 04:34 12,8 C 87 % 997,5 hPa 0,0 l/m 15,0 km/h (3 Bft) O-NO 65 0 min 0,000 mm 0,0 UV-I 0 W/m 10,7 C 8,5 C 20,9 km/h (4 Bft) 100,00 %
12.05.2016 04:35 12,8 C 87 % 997,5 hPa 0,0 l/m 15,8 km/h (3 Bft) NO 48 0 min 0,000 mm 0,0 UV-I 0 W/m 10,7 C 8,2 C 19,3 km/h (3 Bft) 100,00 %
12.05.2016 04:36 12,8 C 87 % 997,5 hPa 0,0 l/m 17,5 km/h (3 Bft) O-NO 67 0 min 0,000 mm 0,0 UV-I 0 W/m 10,7 C 7,7 C 20,9 km/h (4 Bft) 100,00 %
12.05.2016 04:37 12,8 C 87 % 997,5 hPa 0,0 l/m 14,0 km/h (3 Bft) O-NO 59 0 min 0,000 mm 0,0 UV-I 0 W/m 10,7 C 8,9 C 20,9 km/h (4 Bft) 100,00 %
12.05.2016 04:38 12,8 C 87 % 997,5 hPa 0,0 l/m 15,7 km/h (3 Bft) NO 50 0 min 0,000 mm 0,0 UV-I 0 W/m 10,7 C 8,3 C 25,7 km/h (4 Bft) 100,00 %
12.05.2016 04:39 12,8 C 87 % 997,5 hPa 0,0 l/m 15,5 km/h (3 Bft) O-NO 72 0 min 0,000 mm 0,0 UV-I 0 W/m 10,7 C 8,3 C 20,9 km/h (4 Bft) 100,00 %
12.05.2016 04:40 12,7 C 87 % 997,5 hPa 0,0 l/m 19,1 km/h (3 Bft) O-NO 58 0 min 0,000 mm 0,0 UV-I 0 W/m 10,6 C 7,0 C 24,1 km/h (4 Bft) 100,00 %
12.05.2016 04:41 12,7 C 87 % 997,5 hPa 0,0 l/m 15,1 km/h (3 Bft) NO 49 0 min 0,000 mm 0,0 UV-I 0 W/m 10,6 C 8,4 C 19,3 km/h (3 Bft) 100,00 %
12.05.2016 04:42 12,7 C 87 % 997,5 hPa 0,0 l/m 16,9 km/h (3 Bft) NO 42 0 min 0,000 mm 0,0 UV-I 0 W/m 10,6 C 7,7 C 19,3 km/h (3 Bft) 100,00 %
12.05.2016 04:43 12,7 C 87 % 997,4 hPa 0,0 l/m 17,1 km/h (3 Bft) O-NO 60 0 min 0,000 mm 0,0 UV-I 0 W/m 10,6 C 7,7 C 20,9 km/h (4 Bft) 96,15 %
12.05.2016 04:44 12,7 C 87 % 997,4 hPa 0,0 l/m 21,2 km/h (4 Bft) NO 46 0 min 0,000 mm 0,0 UV-I 0 W/m 10,6 C 6,4 C 30,6 km/h (5 Bft) 86,67 %
12.05.2016 04:45 12,7 C 87 % 997,4 hPa 0,0 l/m 20,9 km/h (4 Bft) NO 49 0 min 0,000 mm 0,0 UV-I 0 W/m 10,6 C 6,5 C 25,7 km/h (4 Bft) 100,00 %
12.05.2016 04:46 12,7 C 87 % 997,4 hPa 0,0 l/m 19,6 km/h (3 Bft) O-NO 65 0 min 0,000 mm 0,0 UV-I 0 W/m 10,6 C 6,9 C 22,5 km/h (4 Bft) 100,00 %
12.05.2016 04:47 12,7 C 87 % 997,4 hPa 0,0 l/m 21,3 km/h (4 Bft) NO 49 0 min 0,000 mm 0,0 UV-I 0 W/m 10,6 C 6,4 C 27,4 km/h (4 Bft) 100,00 %
12.05.2016 04:48 12,8 C 87 % 997,4 hPa 0,0 l/m 18,3 km/h (3 Bft) N-NO 30 0 min 0,000 mm 0,0 UV-I 0 W/m 10,7 C 7,4 C 25,7 km/h (4 Bft) 100,00 %
12.05.2016 04:49 12,7 C 87 % 997,4 hPa 0,0 l/m 17,8 km/h (3 Bft) O-NO 65 0 min 0,000 mm 0,0 UV-I 0 W/m 10,6 C 7,4 C 24,1 km/h (4 Bft) 100,00 %
12.05.2016 04:50 12,8 C 87 % 997,4 hPa 0,0 l/m 17,1 km/h (3 Bft) O-NO 61 0 min 0,000 mm 0,0 UV-I 0 W/m 10,7 C 7,8 C 20,9 km/h (4 Bft) 100,00 %
12.05.2016 04:51 12,8 C 87 % 997,4 hPa 0,0 l/m 14,7 km/h (3 Bft) NO 46 0 min 0,000 mm 0,0 UV-I 0 W/m 10,7 C 8,6 C 22,5 km/h (4 Bft) 100,00 %
12.05.2016 04:52 12,7 C 87 % 997,3 hPa 0,0 l/m 15,8 km/h (3 Bft) NO 46 0 min 0,000 mm 0,0 UV-I 0 W/m 10,6 C 8,1 C 19,3 km/h (3 Bft) 100,00 %
12.05.2016 04:53 12,7 C 87 % 997,3 hPa 0,0 l/m 15,2 km/h (3 Bft) NO 55 0 min 0,000 mm 0,0 UV-I 0 W/m 10,6 C 8,3 C 20,9 km/h (4 Bft) 100,00 %
12.05.2016 04:54 12,7 C 87 % 997,3 hPa 0,0 l/m 17,6 km/h (3 Bft) O-NO 59 0 min 0,000 mm 0,0 UV-I 0 W/m 10,6 C 7,5 C 22,5 km/h (4 Bft) 96,15 %
12.05.2016 04:55 12,7 C 87 % 997,3 hPa 0,0 l/m 16,1 km/h (3 Bft) O-NO 57 0 min 0,000 mm 0,0 UV-I 0 W/m 10,6 C 8,0 C 25,7 km/h (4 Bft) 100,00 %
12.05.2016 04:56 12,7 C 87 % 997,3 hPa 0,0 l/m 15,8 km/h (3 Bft) O-NO 71 0 min 0,000 mm 0,0 UV-I 0 W/m 10,6 C 8,1 C 25,7 km/h (4 Bft) 100,00 %
12.05.2016 04:57 12,7 C 87 % 997,3 hPa 0,0 l/m 18,2 km/h (3 Bft) O-NO 69 0 min 0,000 mm 0,0 UV-I 0 W/m 10,6 C 7,3 C 22,5 km/h (4 Bft) 96,15 %
12.05.2016 04:58 12,7 C 87 % 997,3 hPa 0,0 l/m 22,0 km/h (4 Bft) O 84 0 min 0,000 mm 0,0 UV-I 0 W/m 10,6 C 6,2 C 27,4 km/h (4 Bft) 100,00 %
12.05.2016 04:59 12,7 C 87 % 997,3 hPa 0,0 l/m 18,9 km/h (3 Bft) NO 54 0 min 0,000 mm 0,0 UV-I 0 W/m 10,6 C 7,1 C 25,7 km/h (4 Bft) 100,00 %
12.05.2016 05:00 12,7 C 88 % 997,3 hPa 0,0 l/m 24,3 km/h (4 Bft) O-NO 65 0 min 0,025 mm 0,0 UV-I 0 W/m 10,8 C 5,7 C 32,2 km/h (5 Bft) 100,00 %
12.05.2016 05:01 12,7 C 88 % 997,2 hPa 0,0 l/m 18,8 km/h (3 Bft) O-NO 61 0 min 0,000 mm 0,0 UV-I 0 W/m 10,8 C 7,1 C 22,5 km/h (4 Bft) 100,00 %
12.05.2016 05:02 12,7 C 88 % 997,2 hPa 0,0 l/m 16,5 km/h (3 Bft) N 5 0 min 0,000 mm 0,0 UV-I 0 W/m 10,8 C 7,9 C 22,5 km/h (4 Bft) 100,00 %
12.05.2016 05:03 12,7 C 87 % 997,3 hPa 0,0 l/m 15,0 km/h (3 Bft) O-NO 65 0 min 0,000 mm 0,0 UV-I 0 W/m 10,6 C 8,4 C 19,3 km/h (3 Bft) 100,00 %
12.05.2016 05:04 12,7 C 87 % 997,3 hPa 0,0 l/m 18,9 km/h (3 Bft) O-NO 63 0 min 0,000 mm 0,0 UV-I 0 W/m 10,6 C 7,1 C 25,7 km/h (4 Bft) 100,00 %
12.05.2016 05:05 12,7 C 88 % 997,2 hPa 0,0 l/m 16,5 km/h (3 Bft) NO 49 0 min 0,000 mm 0,0 UV-I 0 W/m 10,8 C 7,9 C 24,1 km/h (4 Bft) 100,00 %
12.05.2016 05:06 12,7 C 88 % 997,2 hPa 0,0 l/m 15,0 km/h (3 Bft) O-NO 70 0 min 0,000 mm 0,0 UV-I 0 W/m 10,8 C 8,4 C 24,1 km/h (4 Bft) 100,00 %
12.05.2016 05:07 12,7 C 88 % 997,2 hPa 0,0 l/m 17,2 km/h (3 Bft) NO 50 0 min 0,000 mm 0,0 UV-I 0 W/m 10,8 C 7,6 C 22,5 km/h (4 Bft) 100,00 %
12.05.2016 05:08 12,7 C 88 % 997,2 hPa 0,0 l/m 14,9 km/h (3 Bft) O-NO 59 0 min 0,000 mm 0,0 UV-I 0 W/m 10,8 C 8,4 C 20,9 km/h (4 Bft) 100,00 %
12.05.2016 05:09 12,7 C 88 % 997,2 hPa 0,0 l/m 16,1 km/h (3 Bft) NO 53 0 min 0,000 mm 0,0 UV-I 0 W/m 10,8 C 8,0 C 20,9 km/h (4 Bft) 100,00 %
12.05.2016 05:10 12,7 C 88 % 997,2 hPa 0,0 l/m 18,3 km/h (3 Bft) NO 55 0 min 0,000 mm 0,0 UV-I 0 W/m 10,8 C 7,3 C 24,1 km/h (4 Bft) 100,00 %
12.05.2016 05:11 12,7 C 88 % 997,2 hPa 0,0 l/m 12,0 km/h (2 Bft) NO 45 0 min 0,000 mm 0,0 UV-I 0 W/m 10,8 C 9,6 C 17,7 km/h (3 Bft) 96,55 %
12.05.2016 05:12 12,7 C 88 % 997,2 hPa 0,0 l/m 14,8 km/h (3 Bft) NO 49 0 min 0,000 mm 0,0 UV-I 0 W/m 10,8 C 8,5 C 19,3 km/h (3 Bft) 100,00 %
12.05.2016 05:13 12,7 C 88 % 997,2 hPa 0,0 l/m 14,9 km/h (3 Bft) O 79 0 min 0,000 mm 0,0 UV-I 0 W/m 10,8 C 8,4 C 19,3 km/h (3 Bft) 95,65 %
12.05.2016 05:14 12,7 C 88 % 997,2 hPa 0,0 l/m 17,1 km/h (3 Bft) O-NO 64 0 min 0,000 mm 0,0 UV-I 0 W/m 10,8 C 7,7 C 24,1 km/h (4 Bft) 91,67 %
12.05.2016 05:15 12,7 C 88 % 997,2 hPa 0,0 l/m 16,7 km/h (3 Bft) O-NO 78 0 min 0,000 mm 0,0 UV-I 0 W/m 10,8 C 7,8 C 20,9 km/h (4 Bft) 95,83 %
12.05.2016 05:16 12,7 C 88 % 997,2 hPa 0,0 l/m 18,2 km/h (3 Bft) O-NO 71 0 min 0,000 mm 0,0 UV-I 0 W/m 10,8 C 7,3 C 27,4 km/h (4 Bft) 100,00 %
12.05.2016 05:17 12,7 C 88 % 997,2 hPa 0,0 l/m 21,2 km/h (4 Bft) NO 46 0 min 0,000 mm 0,0 UV-I 0 W/m 10,8 C 6,4 C 32,2 km/h (5 Bft) 95,83 %
12.05.2016 05:18 12,7 C 88 % 997,2 hPa 0,0 l/m 18,6 km/h (3 Bft) O-NO 61 0 min 0,000 mm 0,0 UV-I 0 W/m 10,8 C 7,2 C 22,5 km/h (4 Bft) 100,00 %
12.05.2016 05:19 12,7 C 88 % 997,2 hPa 0,0 l/m 14,1 km/h (3 Bft) NO 43 0 min 0,000 mm 0,0 UV-I 0 W/m 10,8 C 8,7 C 20,9 km/h (4 Bft) 95,83 %
12.05.2016 05:20 12,7 C 88 % 997,1 hPa 0,0 l/m 22,8 km/h (4 Bft) O-NO 74 0 min 0,000 mm 0,0 UV-I 0 W/m 10,8 C 6,0 C 32,2 km/h (5 Bft) 96,15 %
12.05.2016 05:21 12,7 C 88 % 997,1 hPa 0,0 l/m 23,6 km/h (4 Bft) NO 53 0 min 0,000 mm 0,0 UV-I 0 W/m 10,8 C 5,8 C 29,0 km/h (5 Bft) 100,00 %
12.05.2016 05:22 12,7 C 88 % 997,2 hPa 0,0 l/m 15,6 km/h (3 Bft) O-NO 63 0 min 0,000 mm 0,0 UV-I 0 W/m 10,8 C 8,2 C 22,5 km/h (4 Bft) 92,86 %
12.05.2016 05:23 12,7 C 88 % 997,2 hPa 0,0 l/m 17,1 km/h (3 Bft) O-NO 71 0 min 0,000 mm 0,0 UV-I 0 W/m 10,8 C 7,7 C 27,4 km/h (4 Bft) 100,00 %
12.05.2016 05:24 12,8 C 88 % 997,2 hPa 0,0 l/m 19,2 km/h (3 Bft) O-NO 74 0 min 0,000 mm 0,0 UV-I 0 W/m 10,9 C 7,1 C 27,4 km/h (4 Bft) 88,46 %
12.05.2016 05:25 12,7 C 88 % 997,2 hPa 0,0 l/m 15,0 km/h (3 Bft) O-NO 57 0 min 0,000 mm 0,0 UV-I 0 W/m 10,8 C 8,4 C 20,9 km/h (4 Bft) 100,00 %
12.05.2016 05:26 12,7 C 88 % 997,2 hPa 0,0 l/m 18,4 km/h (3 Bft) O-NO 71 0 min 0,000 mm 0,0 UV-I 0 W/m 10,8 C 7,3 C 22,5 km/h (4 Bft) 95,65 %
12.05.2016 05:27 12,7 C 88 % 997,2 hPa 0,0 l/m 13,7 km/h (3 Bft) NO 46 0 min 0,000 mm 0,0 UV-I 0 W/m 10,8 C 8,9 C 22,5 km/h (4 Bft) 100,00 %
12.05.2016 05:28 12,7 C 88 % 997,1 hPa 0,0 l/m 15,8 km/h (3 Bft) O-NO 69 0 min 0,000 mm 0,0 UV-I 0 W/m 10,8 C 8,1 C 20,9 km/h (4 Bft) 95,65 %
12.05.2016 05:29 12,7 C 88 % 997,1 hPa 0,0 l/m 16,9 km/h (3 Bft) O-NO 67 0 min 0,000 mm 0,0 UV-I 0 W/m 10,8 C 7,7 C 24,1 km/h (4 Bft) 95,83 %
12.05.2016 05:30 12,7 C 89 % 997,2 hPa 0,0 l/m 19,1 km/h (3 Bft) NO 47 0 min 0,000 mm 0,0 UV-I 0 W/m 10,9 C 7,0 C 27,4 km/h (4 Bft) 95,65 %
12.05.2016 05:31 12,7 C 89 % 997,2 hPa 0,0 l/m 17,9 km/h (3 Bft) O-NO 57 0 min 0,000 mm 0,0 UV-I 2 W/m 10,9 C 7,4 C 24,1 km/h (4 Bft) 95,83 %
12.05.2016 05:32 12,7 C 89 % 997,2 hPa 0,0 l/m 17,6 km/h (3 Bft) O-NO 74 0 min 0,000 mm 0,0 UV-I 5 W/m 10,9 C 7,5 C 24,1 km/h (4 Bft) 100,00 %
12.05.2016 05:33 12,7 C 89 % 997,2 hPa 0,0 l/m 14,2 km/h (3 Bft) NO 49 0 min 0,000 mm 0,0 UV-I 5 W/m 10,9 C 8,7 C 17,7 km/h (3 Bft) 91,67 %
12.05.2016 05:34 12,7 C 89 % 997,2 hPa 0,0 l/m 15,4 km/h (3 Bft) O 84 0 min 0,000 mm 0,0 UV-I 5 W/m 10,9 C 8,3 C 25,7 km/h (4 Bft) 100,00 %
12.05.2016 05:35 12,7 C 89 % 997,2 hPa 0,0 l/m 14,8 km/h (3 Bft) NO 51 0 min 0,000 mm 0,0 UV-I 5 W/m 10,9 C 8,5 C 22,5 km/h (4 Bft) 96,15 %
12.05.2016 05:36 12,7 C 89 % 997,1 hPa 0,0 l/m 18,8 km/h (3 Bft) O-NO 61 0 min 0,000 mm 0,0 UV-I 6 W/m 10,9 C 7,1 C 29,0 km/h (5 Bft) 100,00 %
12.05.2016 05:37 12,7 C 89 % 997,2 hPa 0,0 l/m 24,3 km/h (4 Bft) NO 46 0 min 0,000 mm 0,0 UV-I 7 W/m 10,9 C 5,7 C 32,2 km/h (5 Bft) 96,55 %
12.05.2016 05:38 12,7 C 89 % 997,2 hPa 0,0 l/m 20,8 km/h (4 Bft) O-NO 60 0 min 0,000 mm 0,0 UV-I 7 W/m 10,9 C 6,5 C 25,7 km/h (4 Bft) 100,00 %
12.05.2016 05:39 12,7 C 89 % 997,2 hPa 0,0 l/m 22,3 km/h (4 Bft) O-NO 67 0 min 0,000 mm 0,0 UV-I 7 W/m 10,9 C 6,1 C 25,7 km/h (4 Bft) 93,75 %
12.05.2016 05:40 12,7 C 89 % 997,2 hPa 0,0 l/m 18,4 km/h (3 Bft) O-NO 74 0 min 0,000 mm 0,0 UV-I 7 W/m 10,9 C 7,3 C 24,1 km/h (4 Bft) 96,15 %
12.05.2016 05:41 12,7 C 89 % 997,2 hPa 0,0 l/m 20,5 km/h (4 Bft) NO 52 0 min 0,000 mm 0,0 UV-I 9 W/m 10,9 C 6,6 C 27,4 km/h (4 Bft) 100,00 %
12.05.2016 05:42 12,8 C 89 % 997,2 hPa 0,0 l/m 18,9 km/h (3 Bft) O-NO 69 0 min 0,000 mm 0,0 UV-I 9 W/m 11,0 C 7,2 C 25,7 km/h (4 Bft) 96,30 %
12.05.2016 05:43 12,8 C 89 % 997,1 hPa 0,0 l/m 17,6 km/h (3 Bft) NO 53 0 min 0,000 mm 0,0 UV-I 10 W/m 11,0 C 7,6 C 24,1 km/h (4 Bft) 100,00 %
12.05.2016 05:44 12,8 C 89 % 997,1 hPa 0,0 l/m 14,8 km/h (3 Bft) NO 46 0 min 0,000 mm 0,0 UV-I 11 W/m 11,0 C 8,6 C 20,9 km/h (4 Bft) 95,83 %
12.05.2016 05:45 12,8 C 89 % 997,2 hPa 0,0 l/m 17,8 km/h (3 Bft) O 79 0 min 0,000 mm 0,0 UV-I 11 W/m 11,0 C 7,6 C 22,5 km/h (4 Bft) 100,00 %
12.05.2016 05:46 12,8 C 89 % 997,1 hPa 0,0 l/m 18,8 km/h (3 Bft) O-NO 65 0 min 0,000 mm 0,0 UV-I 11 W/m 11,0 C 7,3 C 27,4 km/h (4 Bft) 95,83 %
12.05.2016 05:47 12,8 C 89 % 997,0 hPa 0,0 l/m 19,4 km/h (3 Bft) O-NO 60 0 min 0,000 mm 0,0 UV-I 12 W/m 11,0 C 7,1 C 25,7 km/h (4 Bft) 96,55 %
12.05.2016 05:48 12,8 C 89 % 997,1 hPa 0,0 l/m 21,1 km/h (4 Bft) O-NO 69 0 min 0,000 mm 0,0 UV-I 12 W/m 11,0 C 6,6 C 25,7 km/h (4 Bft) 100,00 %
12.05.2016 05:49 12,8 C 90 % 997,0 hPa 0,0 l/m 25,1 km/h (4 Bft) O-NO 69 0 min 0,000 mm 0,0 UV-I 12 W/m 11,2 C 5,6 C 29,0 km/h (5 Bft) 100,00 %
12.05.2016 05:50 12,8 C 90 % 997,0 hPa 0,0 l/m 22,3 km/h (4 Bft) NO 49 0 min 0,000 mm 0,0 UV-I 13 W/m 11,2 C 6,3 C 32,2 km/h (5 Bft) 96,30 %
12.05.2016 05:51 12,8 C 90 % 997,0 hPa 0,0 l/m 19,0 km/h (3 Bft) O-NO 65 0 min 0,000 mm 0,0 UV-I 14 W/m 11,2 C 7,2 C 25,7 km/h (4 Bft) 96,15 %
12.05.2016 05:52 12,8 C 90 % 997,0 hPa 0,0 l/m 18,2 km/h (3 Bft) O-NO 71 0 min 0,000 mm 0,0 UV-I 14 W/m 11,2 C 7,4 C 22,5 km/h (4 Bft) 100,00 %
12.05.2016 05:53 12,8 C 90 % 996,9 hPa 0,0 l/m 23,3 km/h (4 Bft) O 94 0 min 0,000 mm 0,0 UV-I 14 W/m 11,2 C 6,0 C 32,2 km/h (5 Bft) 100,00 %
12.05.2016 05:54 12,8 C 90 % 997,0 hPa 0,0 l/m 16,8 km/h (3 Bft) O-NO 65 0 min 0,000 mm 0,0 UV-I 16 W/m 11,2 C 7,9 C 24,1 km/h (4 Bft) 96,30 %
12.05.2016 05:55 12,8 C 90 % 996,9 hPa 0,0 l/m 16,6 km/h (3 Bft) O 87 0 min 0,000 mm 0,0 UV-I 16 W/m 11,2 C 8,0 C 25,7 km/h (4 Bft) 100,00 %
12.05.2016 05:56 12,8 C 90 % 996,9 hPa 0,0 l/m 21,9 km/h (4 Bft) NO 55 0 min 0,000 mm 0,0 UV-I 16 W/m 11,2 C 6,4 C 30,6 km/h (5 Bft) 100,00 %
12.05.2016 05:57 12,8 C 90 % 996,9 hPa 0,0 l/m 24,7 km/h (4 Bft) O-NO 59 0 min 0,000 mm 0,0 UV-I 18 W/m 11,2 C 5,7 C 32,2 km/h (5 Bft) 100,00 %
12.05.2016 05:58 12,8 C 90 % 996,9 hPa 0,0 l/m 20,9 km/h (4 Bft) O-NO 65 0 min 0,000 mm 0,0 UV-I 18 W/m 11,2 C 6,7 C 27,4 km/h (4 Bft) 95,83 %
12.05.2016 05:59 12,8 C 90 % 996,9 hPa 0,0 l/m 17,6 km/h (3 Bft) O-NO 66 0 min 0,000 mm 0,0 UV-I 19 W/m 11,2 C 7,6 C 27,4 km/h (4 Bft) 100,00 %
12.05.2016 06:00 12,8 C 90 % 996,9 hPa 0,0 l/m 18,8 km/h (3 Bft) O-NO 63 0 min 0,026 mm 0,0 UV-I 20 W/m 11,2 C 7,3 C 24,1 km/h (4 Bft) 96,43 %
12.05.2016 06:01 12,8 C 90 % 997,0 hPa 0,0 l/m 13,7 km/h (3 Bft) O-NO 68 0 min 0,000 mm 0,0 UV-I 21 W/m 11,2 C 9,0 C 19,3 km/h (3 Bft) 100,00 %
12.05.2016 06:02 12,8 C 90 % 996,9 hPa 0,0 l/m 15,6 km/h (3 Bft) O-NO 59 0 min 0,000 mm 0,0 UV-I 21 W/m 11,2 C 8,3 C 20,9 km/h (4 Bft) 100,00 %
12.05.2016 06:03 12,8 C 90 % 996,9 hPa 0,0 l/m 18,6 km/h (3 Bft) NO 42 0 min 0,000 mm 0,0 UV-I 21 W/m 11,2 C 7,3 C 29,0 km/h (5 Bft) 100,00 %
12.05.2016 06:04 12,8 C 90 % 996,9 hPa 0,0 l/m 20,2 km/h (4 Bft) O-NO 67 0 min 0,000 mm 0,0 UV-I 21 W/m 11,2 C 6,8 C 24,1 km/h (4 Bft) 100,00 %
12.05.2016 06:05 12,8 C 90 % 996,9 hPa 0,0 l/m 21,6 km/h (4 Bft) O-NO 78 0 min 0,000 mm 0,0 UV-I 21 W/m 11,2 C 6,5 C 27,4 km/h (4 Bft) 100,00 %
12.05.2016 06:06 12,8 C 90 % 996,9 hPa 0,0 l/m 21,0 km/h (4 Bft) NO 46 0 min 0,000 mm 0,0 UV-I 22 W/m 11,2 C 6,6 C 29,0 km/h (5 Bft) 96,55 %
12.05.2016 06:07 12,8 C 90 % 996,9 hPa 0,0 l/m 15,3 km/h (3 Bft) O 80 0 min 0,000 mm 0,0 UV-I 21 W/m 11,2 C 8,4 C 22,5 km/h (4 Bft) 100,00 %
12.05.2016 06:08 12,8 C 91 % 996,9 hPa 0,0 l/m 24,7 km/h (4 Bft) O-NO 70 0 min 0,000 mm 0,0 UV-I 22 W/m 11,4 C 5,7 C 30,6 km/h (5 Bft) 100,00 %
12.05.2016 06:09 12,8 C 91 % 997,0 hPa 0,0 l/m 24,9 km/h (4 Bft) NO 49 0 min 0,000 mm 0,0 UV-I 23 W/m 11,4 C 5,6 C 33,8 km/h (5 Bft) 100,00 %
12.05.2016 06:10 12,8 C 91 % 996,9 hPa 0,0 l/m 20,8 km/h (4 Bft) O-NO 62 0 min 0,000 mm 0,0 UV-I 23 W/m 11,4 C 6,7 C 27,4 km/h (4 Bft) 100,00 %
12.05.2016 06:11 12,9 C 91 % 996,9 hPa 0,0 l/m 23,3 km/h (4 Bft) O-NO 71 0 min 0,000 mm 0,0 UV-I 23 W/m 11,5 C 6,2 C 32,2 km/h (5 Bft) 100,00 %
12.05.2016 06:12 12,9 C 91 % 997,0 hPa 0,0 l/m 23,4 km/h (4 Bft) O 86 0 min 0,000 mm 0,0 UV-I 23 W/m 11,5 C 6,1 C 32,2 km/h (5 Bft) 100,00 %
12.05.2016 06:13 12,9 C 91 % 996,9 hPa 0,0 l/m 18,1 km/h (3 Bft) O-NO 57 0 min 0,000 mm 0,0 UV-I 23 W/m 11,5 C 7,6 C 25,7 km/h (4 Bft) 100,00 %
12.05.2016 06:14 12,9 C 90 % 996,9 hPa 0,0 l/m 15,4 km/h (3 Bft) O-NO 69 0 min 0,000 mm 0,0 UV-I 25 W/m 11,3 C 8,5 C 20,9 km/h (4 Bft) 100,00 %
12.05.2016 06:15 12,9 C 90 % 996,9 hPa 0,0 l/m 16,7 km/h (3 Bft) O-NO 68 0 min 0,000 mm 0,0 UV-I 25 W/m 11,3 C 8,1 C 22,5 km/h (4 Bft) 100,00 %
12.05.2016 06:16 12,9 C 91 % 996,9 hPa 0,0 l/m 18,6 km/h (3 Bft) O-NO 74 0 min 0,000 mm 0,0 UV-I 25 W/m 11,5 C 7,4 C 27,4 km/h (4 Bft) 100,00 %
12.05.2016 06:17 12,9 C 91 % 996,9 hPa 0,0 l/m 17,9 km/h (3 Bft) O-NO 63 0 min 0,000 mm 0,0 UV-I 25 W/m 11,5 C 7,7 C 20,9 km/h (4 Bft) 100,00 %
12.05.2016 06:18 12,9 C 91 % 996,9 hPa 0,0 l/m 19,2 km/h (3 Bft) O-NO 62 0 min 0,000 mm 0,0 UV-I 19 W/m 11,5 C 7,3 C 24,1 km/h (4 Bft) 100,00 %
12.05.2016 06:19 12,9 C 91 % 996,9 hPa 0,0 l/m 18,8 km/h (3 Bft) NO 55 0 min 0,000 mm 0,0 UV-I 21 W/m 11,5 C 7,4 C 24,1 km/h (4 Bft) 100,00 %
12.05.2016 06:20 12,9 C 91 % 996,9 hPa 0,0 l/m 19,2 km/h (3 Bft) NO 51 0 min 0,000 mm 0,0 UV-I 26 W/m 11,5 C 7,3 C 24,1 km/h (4 Bft) 100,00 %
12.05.2016 06:21 12,9 C 91 % 996,9 hPa 0,0 l/m 18,0 km/h (3 Bft) O-NO 76 0 min 0,000 mm 0,0 UV-I 26 W/m 11,5 C 7,6 C 25,7 km/h (4 Bft) 96,15 %
12.05.2016 06:22 12,9 C 91 % 996,9 hPa 0,0 l/m 14,5 km/h (3 Bft) O 88 0 min 0,000 mm 0,0 UV-I 26 W/m 11,5 C 8,8 C 19,3 km/h (3 Bft) 100,00 %
12.05.2016 06:23 12,9 C 91 % 996,9 hPa 0,0 l/m 17,6 km/h (3 Bft) O-NO 74 0 min 0,000 mm 0,0 UV-I 28 W/m 11,5 C 7,8 C 20,9 km/h (4 Bft) 100,00 %
12.05.2016 06:24 12,9 C 91 % 997,0 hPa 0,0 l/m 15,4 km/h (3 Bft) O-NO 73 0 min 0,000 mm 0,0 UV-I 28 W/m 11,5 C 8,5 C 19,3 km/h (3 Bft) 100,00 %
12.05.2016 06:25 12,9 C 91 % 997,0 hPa 0,0 l/m 15,7 km/h (3 Bft) O-NO 75 0 min 0,000 mm 0,0 UV-I 28 W/m 11,5 C 8,4 C 22,5 km/h (4 Bft) 100,00 %
12.05.2016 06:26 12,9 C 91 % 996,9 hPa 0,0 l/m 19,2 km/h (3 Bft) O-NO 64 0 min 0,000 mm 0,0 UV-I 28 W/m 11,5 C 7,3 C 24,1 km/h (4 Bft) 95,83 %
12.05.2016 06:27 12,9 C 91 % 997,0 hPa 0,0 l/m 23,0 km/h (4 Bft) NO 55 0 min 0,000 mm 0,0 UV-I 28 W/m 11,5 C 6,2 C 27,4 km/h (4 Bft) 100,00 %
12.05.2016 06:28 12,9 C 91 % 996,9 hPa 0,0 l/m 21,3 km/h (4 Bft) O-NO 71 0 min 0,000 mm 0,0 UV-I 28 W/m 11,5 C 6,7 C 25,7 km/h (4 Bft) 100,00 %
12.05.2016 06:29 12,9 C 91 % 996,9 hPa 0,0 l/m 17,3 km/h (3 Bft) NO 50 0 min 0,000 mm 0,0 UV-I 30 W/m 11,5 C 7,9 C 24,1 km/h (4 Bft) 100,00 %
12.05.2016 06:30 12,9 C 91 % 996,9 hPa 0,0 l/m 19,9 km/h (4 Bft) O-NO 78 0 min 0,000 mm 0,0 UV-I 30 W/m 11,5 C 7,1 C 25,7 km/h (4 Bft) 100,00 %
12.05.2016 06:31 12,9 C 91 % 996,9 hPa 0,0 l/m 23,6 km/h (4 Bft) NO 44 0 min 0,000 mm 0,0 UV-I 30 W/m 11,5 C 6,1 C 33,8 km/h (5 Bft) 100,00 %
12.05.2016 06:32 12,9 C 91 % 996,8 hPa 0,0 l/m 21,2 km/h (4 Bft) NO 51 0 min 0,000 mm 0,0 UV-I 32 W/m 11,5 C 6,7 C 25,7 km/h (4 Bft) 100,00 %
12.05.2016 06:33 12,9 C 91 % 996,9 hPa 0,0 l/m 19,3 km/h (3 Bft) O-NO 65 0 min 0,000 mm 0,0 UV-I 32 W/m 11,5 C 7,2 C 24,1 km/h (4 Bft) 100,00 %
12.05.2016 06:34 12,9 C 91 % 996,8 hPa 0,0 l/m 19,8 km/h (3 Bft) N-NO 28 0 min 0,000 mm 0,0 UV-I 32 W/m 11,5 C 7,1 C 32,2 km/h (5 Bft) 100,00 %
12.05.2016 06:35 12,9 C 91 % 996,8 hPa 0,0 l/m 24,5 km/h (4 Bft) O-NO 64 0 min 0,000 mm 0,0 UV-I 33 W/m 11,5 C 5,9 C 29,0 km/h (5 Bft) 100,00 %
12.05.2016 06:36 12,9 C 91 % 996,8 hPa 0,0 l/m 18,8 km/h (3 Bft) O-NO 62 0 min 0,000 mm 0,0 UV-I 33 W/m 11,5 C 7,4 C 25,7 km/h (4 Bft) 100,00 %
12.05.2016 06:37 12,9 C 91 % 996,8 hPa 0,0 l/m 21,1 km/h (4 Bft) O-NO 75 0 min 0,000 mm 0,0 UV-I 33 W/m 11,5 C 6,7 C 29,0 km/h (5 Bft) 100,00 %
12.05.2016 06:38 12,9 C 91 % 996,8 hPa 0,0 l/m 17,0 km/h (3 Bft) O-NO 58 0 min 0,000 mm 0,0 UV-I 35 W/m 11,5 C 8,0 C 22,5 km/h (4 Bft) 90,91 %
12.05.2016 06:39 12,9 C 91 % 996,8 hPa 0,0 l/m 22,0 km/h (4 Bft) O-NO 59 0 min 0,000 mm 0,0 UV-I 37 W/m 11,5 C 6,5 C 29,0 km/h (5 Bft) 100,00 %
12.05.2016 06:40 12,9 C 91 % 996,8 hPa 0,0 l/m 26,5 km/h (4 Bft) O-NO 67 0 min 0,000 mm 0,0 UV-I 38 W/m 11,5 C 5,4 C 37,0 km/h (5 Bft) 100,00 %
12.05.2016 06:41 12,9 C 91 % 996,7 hPa 0,0 l/m 20,7 km/h (4 Bft) O-NO 58 0 min 0,000 mm 0,0 UV-I 39 W/m 11,5 C 6,8 C 27,4 km/h (4 Bft) 100,00 %
12.05.2016 06:42 12,9 C 91 % 996,8 hPa 0,0 l/m 18,6 km/h (3 Bft) O 86 0 min 0,000 mm 0,0 UV-I 40 W/m 11,5 C 7,4 C 27,4 km/h (4 Bft) 100,00 %
12.05.2016 06:43 12,9 C 91 % 996,7 hPa 0,0 l/m 16,1 km/h (3 Bft) NO 55 0 min 0,000 mm 0,0 UV-I 40 W/m 11,5 C 8,3 C 19,3 km/h (3 Bft) 100,00 %
12.05.2016 06:44 12,9 C 91 % 996,7 hPa 0,0 l/m 13,9 km/h (3 Bft) O-NO 74 0 min 0,000 mm 0,0 UV-I 42 W/m 11,5 C 9,1 C 20,9 km/h (4 Bft) 100,00 %
12.05.2016 06:45 12,9 C 91 % 996,7 hPa 0,0 l/m 18,2 km/h (3 Bft) O-NO 62 0 min 0,000 mm 0,0 UV-I 42 W/m 11,5 C 7,6 C 29,0 km/h (5 Bft) 100,00 %
12.05.2016 06:46 12,9 C 91 % 996,7 hPa 0,0 l/m 21,1 km/h (4 Bft) O-NO 60 0 min 0,000 mm 0,0 UV-I 44 W/m 11,5 C 6,7 C 27,4 km/h (4 Bft) 96,15 %
12.05.2016 06:47 12,9 C 91 % 996,7 hPa 0,0 l/m 20,1 km/h (4 Bft) O-NO 66 0 min 0,000 mm 0,0 UV-I 44 W/m 11,5 C 7,0 C 27,4 km/h (4 Bft) 100,00 %
12.05.2016 06:48 12,9 C 91 % 996,6 hPa 0,0 l/m 21,6 km/h (4 Bft) O-NO 69 0 min 0,000 mm 0,0 UV-I 45 W/m 11,5 C 6,6 C 29,0 km/h (5 Bft) 100,00 %
12.05.2016 06:49 12,9 C 91 % 996,7 hPa 0,0 l/m 20,1 km/h (4 Bft) O-NO 74 0 min 0,000 mm 0,0 UV-I 46 W/m 11,5 C 7,0 C 24,1 km/h (4 Bft) 100,00 %
12.05.2016 06:50 12,9 C 91 % 996,6 hPa 0,0 l/m 20,9 km/h (4 Bft) NO 43 0 min 0,000 mm 0,0 UV-I 47 W/m 11,5 C 6,8 C 27,4 km/h (4 Bft) 100,00 %
12.05.2016 06:51 13,0 C 91 % 996,6 hPa 0,0 l/m 19,6 km/h (3 Bft) NO 52 0 min 0,000 mm 0,0 UV-I 47 W/m 11,6 C 7,3 C 24,1 km/h (4 Bft) 100,00 %
12.05.2016 06:52 13,0 C 91 % 996,6 hPa 0,0 l/m 17,2 km/h (3 Bft) O-NO 62 0 min 0,000 mm 0,0 UV-I 48 W/m 11,6 C 8,0 C 22,5 km/h (4 Bft) 100,00 %
12.05.2016 06:53 13,0 C 91 % 996,6 hPa 0,0 l/m 20,8 km/h (4 Bft) O-NO 59 0 min 0,000 mm 0,0 UV-I 49 W/m 11,6 C 6,9 C 25,7 km/h (4 Bft) 100,00 %
12.05.2016 06:54 13,0 C 91 % 996,6 hPa 0,0 l/m 20,4 km/h (4 Bft) O 80 0 min 0,000 mm 0,0 UV-I 49 W/m 11,6 C 7,1 C 25,7 km/h (4 Bft) 100,00 %
12.05.2016 06:55 13,0 C 91 % 996,6 hPa 0,0 l/m 16,8 km/h (3 Bft) O-NO 60 0 min 0,000 mm 0,0 UV-I 50 W/m 11,6 C 8,1 C 22,5 km/h (4 Bft) 100,00 %
12.05.2016 06:56 13,0 C 91 % 996,6 hPa 0,0 l/m 20,3 km/h (4 Bft) O-NO 62 0 min 0,000 mm 0,0 UV-I 54 W/m 11,6 C 7,1 C 27,4 km/h (4 Bft) 100,00 %
12.05.2016 06:57 13,0 C 91 % 996,6 hPa 0,0 l/m 16,7 km/h (3 Bft) O 80 0 min 0,000 mm 0,0 UV-I 54 W/m 11,6 C 8,2 C 25,7 km/h (4 Bft) 100,00 %
12.05.2016 06:58 13,1 C 91 % 996,6 hPa 0,0 l/m 14,4 km/h (3 Bft) NO 49 0 min 0,000 mm 0,0 UV-I 55 W/m 11,7 C 9,1 C 19,3 km/h (3 Bft) 100,00 %
12.05.2016 06:59 13,1 C 91 % 996,6 hPa 0,0 l/m 12,8 km/h (3 Bft) O-NO 59 0 min 0,000 mm 0,0 UV-I 56 W/m 11,7 C 9,7 C 17,7 km/h (3 Bft) 100,00 %
12.05.2016 07:00 13,1 C 91 % 996,6 hPa 0,0 l/m 11,5 km/h (2 Bft) O 99 0 min 0,025 mm 0,0 UV-I 57 W/m 11,7 C 10,3 C 17,7 km/h (3 Bft) 100,00 %
12.05.2016 07:01 13,1 C 91 % 996,5 hPa 0,0 l/m 15,6 km/h (3 Bft) O-NO 76 0 min 0,000 mm 0,0 UV-I 58 W/m 11,7 C 8,7 C 19,3 km/h (3 Bft) 100,00 %
12.05.2016 07:02 13,1 C 91 % 996,5 hPa 0,0 l/m 19,5 km/h (3 Bft) O-NO 76 0 min 0,000 mm 0,0 UV-I 60 W/m 11,7 C 7,4 C 27,4 km/h (4 Bft) 100,00 %
12.05.2016 07:03 13,1 C 91 % 996,5 hPa 0,0 l/m 19,8 km/h (3 Bft) O-NO 75 0 min 0,000 mm 0,0 UV-I 60 W/m 11,7 C 7,3 C 27,4 km/h (4 Bft) 100,00 %
12.05.2016 07:04 13,1 C 91 % 996,5 hPa 0,0 l/m 21,3 km/h (4 Bft) NO 38 0 min 0,000 mm 0,0 UV-I 62 W/m 11,7 C 6,9 C 35,4 km/h (5 Bft) 100,00 %
12.05.2016 07:05 13,1 C 91 % 996,5 hPa 0,0 l/m 17,4 km/h (3 Bft) O-NO 77 0 min 0,000 mm 0,0 UV-I 64 W/m 11,7 C 8,1 C 20,9 km/h (4 Bft) 100,00 %
12.05.2016 07:06 13,1 C 91 % 996,5 hPa 0,0 l/m 23,1 km/h (4 Bft) O 83 0 min 0,000 mm 0,0 UV-I 66 W/m 11,7 C 6,5 C 30,6 km/h (5 Bft) 100,00 %
12.05.2016 07:07 13,2 C 91 % 996,5 hPa 0,0 l/m 15,9 km/h (3 Bft) O 84 0 min 0,000 mm 0,0 UV-I 68 W/m 11,8 C 8,7 C 20,9 km/h (4 Bft) 100,00 %
12.05.2016 07:08 13,2 C 91 % 996,5 hPa 0,0 l/m 14,2 km/h (3 Bft) O-NO 63 0 min 0,000 mm 0,0 UV-I 70 W/m 11,8 C 9,3 C 20,9 km/h (4 Bft) 100,00 %
12.05.2016 07:09 13,2 C 91 % 996,5 hPa 0,0 l/m 16,9 km/h (3 Bft) O-NO 61 0 min 0,000 mm 0,0 UV-I 72 W/m 11,8 C 8,4 C 20,9 km/h (4 Bft) 100,00 %
12.05.2016 07:10 13,2 C 90 % 996,5 hPa 0,0 l/m 16,8 km/h (3 Bft) O-NO 62 0 min 0,000 mm 0,0 UV-I 73 W/m 11,6 C 8,4 C 24,1 km/h (4 Bft) 100,00 %
12.05.2016 07:11 13,2 C 91 % 996,5 hPa 0,0 l/m 19,8 km/h (3 Bft) O 79 0 min 0,000 mm 0,0 UV-I 75 W/m 11,8 C 7,5 C 22,5 km/h (4 Bft) 100,00 %
12.05.2016 07:12 13,2 C 91 % 996,4 hPa 0,0 l/m 21,1 km/h (4 Bft) NO 53 0 min 0,000 mm 0,0 UV-I 76 W/m 11,8 C 7,1 C 27,4 km/h (4 Bft) 100,00 %
12.05.2016 07:13 13,2 C 90 % 996,4 hPa 0,0 l/m 22,9 km/h (4 Bft) O-NO 67 0 min 0,000 mm 0,0 UV-I 76 W/m 11,6 C 6,7 C 29,0 km/h (5 Bft) 100,00 %
12.05.2016 07:14 13,2 C 90 % 996,5 hPa 0,0 l/m 18,7 km/h (3 Bft) O-NO 69 0 min 0,000 mm 0,0 UV-I 77 W/m 11,6 C 7,8 C 25,7 km/h (4 Bft) 95,65 %
12.05.2016 07:15 13,3 C 90 % 996,4 hPa 0,0 l/m 17,9 km/h (3 Bft) NO 53 0 min 0,000 mm 0,0 UV-I 80 W/m 11,7 C 8,2 C 24,1 km/h (4 Bft) 96,55 %
12.05.2016 07:16 13,3 C 90 % 996,4 hPa 0,0 l/m 20,4 km/h (4 Bft) O-NO 66 0 min 0,000 mm 0,0 UV-I 82 W/m 11,7 C 7,4 C 25,7 km/h (4 Bft) 100,00 %
12.05.2016 07:17 13,3 C 90 % 996,4 hPa 0,0 l/m 20,0 km/h (4 Bft) O-NO 74 0 min 0,000 mm 0,0 UV-I 83 W/m 11,7 C 7,6 C 29,0 km/h (5 Bft) 91,67 %
12.05.2016 07:18 13,3 C 90 % 996,5 hPa 0,0 l/m 22,1 km/h (4 Bft) NO 50 0 min 0,000 mm 0,0 UV-I 85 W/m 11,7 C 7,0 C 27,4 km/h (4 Bft) 100,00 %
12.05.2016 07:19 13,3 C 90 % 996,5 hPa 0,0 l/m 20,9 km/h (4 Bft) NO 52 0 min 0,000 mm 0,0 UV-I 88 W/m 11,7 C 7,3 C 29,0 km/h (5 Bft) 92,59 %
12.05.2016 07:20 13,3 C 90 % 996,5 hPa 0,0 l/m 18,4 km/h (3 Bft) O-NO 71 0 min 0,000 mm 0,0 UV-I 88 W/m 11,7 C 8,0 C 24,1 km/h (4 Bft) 100,00 %
12.05.2016 07:21 13,3 C 90 % 996,5 hPa 0,0 l/m 19,1 km/h (3 Bft) O-NO 61 0 min 0,000 mm 0,0 UV-I 91 W/m 11,7 C 7,8 C 24,1 km/h (4 Bft) 96,67 %
12.05.2016 07:22 13,3 C 90 % 996,5 hPa 0,0 l/m 16,3 km/h (3 Bft) O-NO 71 0 min 0,000 mm 0,0 UV-I 91 W/m 11,7 C 8,7 C 20,9 km/h (4 Bft) 92,31 %
12.05.2016 07:23 13,3 C 90 % 996,5 hPa 0,0 l/m 12,9 km/h (3 Bft) O-NO 78 0 min 0,000 mm 0,0 UV-I 94 W/m 11,7 C 9,9 C 19,3 km/h (3 Bft) 100,00 %
12.05.2016 07:24 13,4 C 90 % 996,5 hPa 0,0 l/m 18,4 km/h (3 Bft) NO 48 0 min 0,000 mm 0,0 UV-I 96 W/m 11,8 C 8,1 C 27,4 km/h (4 Bft) 96,15 %
12.05.2016 07:25 13,4 C 90 % 996,5 hPa 0,0 l/m 19,6 km/h (3 Bft) O 82 0 min 0,000 mm 0,0 UV-I 100 W/m 11,8 C 7,8 C 25,7 km/h (4 Bft) 100,00 %
12.05.2016 07:26 13,4 C 90 % 996,5 hPa 0,0 l/m 19,0 km/h (3 Bft) NO 52 0 min 0,000 mm 0,0 UV-I 102 W/m 11,8 C 8,0 C 27,4 km/h (4 Bft) 95,65 %
12.05.2016 07:27 13,4 C 90 % 996,5 hPa 0,0 l/m 15,0 km/h (3 Bft) O 81 0 min 0,000 mm 0,0 UV-I 106 W/m 11,8 C 9,3 C 19,3 km/h (3 Bft) 100,00 %
12.05.2016 07:28 13,4 C 90 % 996,5 hPa 0,0 l/m 12,7 km/h (3 Bft) NO 48 0 min 0,000 mm 0,0 UV-I 108 W/m 11,8 C 10,1 C 17,7 km/h (3 Bft) 91,30 %
12.05.2016 07:29 13,4 C 90 % 996,5 hPa 0,0 l/m 12,3 km/h (3 Bft) O-NO 77 0 min 0,000 mm 0,0 UV-I 110 W/m 11,8 C 10,3 C 16,1 km/h (3 Bft) 100,00 %
12.05.2016 07:30 13,5 C 90 % 996,5 hPa 0,0 l/m 17,4 km/h (3 Bft) NO 54 0 min 0,000 mm 0,0 UV-I 113 W/m 11,9 C 8,6 C 20,9 km/h (4 Bft) 96,55 %
12.05.2016 07:31 13,5 C 90 % 996,5 hPa 0,0 l/m 17,4 km/h (3 Bft) O-NO 72 0 min 0,000 mm 0,0 UV-I 113 W/m 11,9 C 8,6 C 22,5 km/h (4 Bft) 96,30 %
12.05.2016 07:32 13,5 C 90 % 996,5 hPa 0,0 l/m 16,9 km/h (3 Bft) O-NO 76 0 min 0,000 mm 0,0 UV-I 113 W/m 11,9 C 8,7 C 22,5 km/h (4 Bft) 100,00 %
12.05.2016 07:33 13,5 C 90 % 996,5 hPa 0,0 l/m 16,9 km/h (3 Bft) NO 38 0 min 0,000 mm 0,0 UV-I 114 W/m 11,9 C 8,7 C 20,9 km/h (4 Bft) 83,33 %
12.05.2016 07:34 13,6 C 90 % 996,5 hPa 0,0 l/m 21,4 km/h (4 Bft) NO 51 0 min 0,000 mm 0,0 UV-I 117 W/m 12,0 C 7,6 C 27,4 km/h (4 Bft) 96,30 %
12.05.2016 07:35 13,6 C 89 % 996,5 hPa 0,0 l/m 22,6 km/h (4 Bft) O 87 0 min 0,000 mm 0,0 UV-I 119 W/m 11,8 C 7,3 C 35,4 km/h (5 Bft) 92,31 %
12.05.2016 07:36 13,6 C 89 % 996,4 hPa 0,0 l/m 20,4 km/h (4 Bft) NO 44 0 min 0,000 mm 0,0 UV-I 122 W/m 11,8 C 7,8 C 30,6 km/h (5 Bft) 96,55 %
12.05.2016 07:37 13,6 C 89 % 996,4 hPa 0,0 l/m 25,0 km/h (4 Bft) O-NO 74 0 min 0,000 mm 0,0 UV-I 126 W/m 11,8 C 6,7 C 30,6 km/h (5 Bft) 100,00 %
12.05.2016 07:38 13,6 C 89 % 996,5 hPa 0,0 l/m 20,0 km/h (4 Bft) O-NO 70 0 min 0,000 mm 0,0 UV-I 130 W/m 11,8 C 7,9 C 24,1 km/h (4 Bft) 100,00 %
12.05.2016 07:39 13,7 C 89 % 996,4 hPa 0,0 l/m 19,4 km/h (3 Bft) O-NO 59 0 min 0,000 mm 0,0 UV-I 134 W/m 11,9 C 8,2 C 29,0 km/h (5 Bft) 96,15 %
12.05.2016 07:40 13,7 C 89 % 996,5 hPa 0,0 l/m 16,4 km/h (3 Bft) O-NO 61 0 min 0,000 mm 0,0 UV-I 135 W/m 11,9 C 9,1 C 24,1 km/h (4 Bft) 95,83 %
12.05.2016 07:41 13,7 C 89 % 996,4 hPa 0,0 l/m 21,1 km/h (4 Bft) O-NO 57 0 min 0,000 mm 0,0 UV-I 138 W/m 11,9 C 7,8 C 29,0 km/h (5 Bft) 85,71 %
12.05.2016 07:42 13,7 C 89 % 996,4 hPa 0,0 l/m 19,2 km/h (3 Bft) O-NO 67 0 min 0,000 mm 0,0 UV-I 140 W/m 11,9 C 8,3 C 24,1 km/h (4 Bft) 96,30 %
12.05.2016 07:43 13,7 C 89 % 996,4 hPa 0,0 l/m 15,4 km/h (3 Bft) NO 43 0 min 0,000 mm 0,0 UV-I 142 W/m 11,9 C 9,5 C 22,5 km/h (4 Bft) 100,00 %
12.05.2016 07:44 13,8 C 89 % 996,5 hPa 0,0 l/m 16,1 km/h (3 Bft) O-NO 70 0 min 0,000 mm 0,0 UV-I 144 W/m 12,0 C 9,4 C 20,9 km/h (4 Bft) 91,67 %
12.05.2016 07:45 13,8 C 89 % 996,5 hPa 0,0 l/m 20,0 km/h (4 Bft) O-NO 57 0 min 0,000 mm 0,0 UV-I 147 W/m 12,0 C 8,2 C 24,1 km/h (4 Bft) 100,00 %
12.05.2016 07:46 13,8 C 89 % 996,5 hPa 0,0 l/m 21,2 km/h (4 Bft) NO 53 0 min 0,000 mm 0,0 UV-I 148 W/m 12,0 C 7,9 C 29,0 km/h (5 Bft) 96,67 %
12.05.2016 07:47 13,8 C 88 % 996,4 hPa 0,0 l/m 21,1 km/h (4 Bft) NO 48 0 min 0,000 mm 0,0 UV-I 150 W/m 11,8 C 7,9 C 30,6 km/h (5 Bft) 92,31 %
12.05.2016 07:48 13,8 C 88 % 996,4 hPa 0,0 l/m 19,1 km/h (3 Bft) O-NO 68 0 min 0,000 mm 0,3 UV-I 93 W/m 11,8 C 8,4 C 25,7 km/h (4 Bft) 100,00 %
12.05.2016 07:49 13,8 C 88 % 996,4 hPa 0,0 l/m 19,6 km/h (3 Bft) O-NO 72 0 min 0,000 mm 0,5 UV-I 152 W/m 11,8 C 8,3 C 25,7 km/h (4 Bft) 100,00 %
12.05.2016 07:50 13,9 C 88 % 996,4 hPa 0,0 l/m 21,3 km/h (4 Bft) O 82 0 min 0,000 mm 0,5 UV-I 156 W/m 11,9 C 8,0 C 27,4 km/h (4 Bft) 100,00 %
12.05.2016 07:51 13,8 C 88 % 996,4 hPa 0,0 l/m 26,3 km/h (4 Bft) O-NO 58 0 min 0,000 mm 0,5 UV-I 157 W/m 11,8 C 6,7 C 32,2 km/h (5 Bft) 100,00 %
12.05.2016 07:52 13,9 C 88 % 996,4 hPa 0,0 l/m 17,0 km/h (3 Bft) O-NO 57 0 min 0,000 mm 0,5 UV-I 159 W/m 11,9 C 9,2 C 24,1 km/h (4 Bft) 100,00 %
12.05.2016 07:53 13,9 C 88 % 996,4 hPa 0,0 l/m 17,9 km/h (3 Bft) NO 53 0 min 0,000 mm 0,5 UV-I 161 W/m 11,9 C 8,9 C 24,1 km/h (4 Bft) 100,00 %
12.05.2016 07:54 13,9 C 88 % 996,4 hPa 0,0 l/m 21,1 km/h (4 Bft) O 88 0 min 0,000 mm 0,5 UV-I 164 W/m 11,9 C 8,0 C 29,0 km/h (5 Bft) 95,65 %
12.05.2016 07:55 13,9 C 88 % 996,4 hPa 0,0 l/m 23,3 km/h (4 Bft) NO 44 0 min 0,000 mm 0,5 UV-I 167 W/m 11,9 C 7,5 C 30,6 km/h (5 Bft) 100,00 %
12.05.2016 07:56 13,9 C 88 % 996,4 hPa 0,0 l/m 22,5 km/h (4 Bft) O-NO 65 0 min 0,000 mm 0,5 UV-I 172 W/m 11,9 C 7,7 C 30,6 km/h (5 Bft) 96,15 %
12.05.2016 07:57 14,0 C 88 % 996,4 hPa 0,0 l/m 20,4 km/h (4 Bft) NO 51 0 min 0,000 mm 0,5 UV-I 178 W/m 12,0 C 8,3 C 24,1 km/h (4 Bft) 100,00 %
12.05.2016 07:58 14,0 C 88 % 996,4 hPa 0,0 l/m 15,3 km/h (3 Bft) O-NO 59 0 min 0,000 mm 0,5 UV-I 184 W/m 12,0 C 9,9 C 24,1 km/h (4 Bft) 100,00 %
12.05.2016 07:59 14,0 C 88 % 996,4 hPa 0,0 l/m 16,0 km/h (3 Bft) O 94 0 min 0,000 mm 0,6 UV-I 190 W/m 12,0 C 9,6 C 20,9 km/h (4 Bft) 100,00 %
12.05.2016 08:00 14,1 C 87 % 996,3 hPa 0,0 l/m 17,8 km/h (3 Bft) O-NO 57 0 min 0,076 mm 0,6 UV-I 196 W/m 12,0 C 9,2 C 24,1 km/h (4 Bft) 100,00 %
12.05.2016 08:01 14,1 C 88 % 996,3 hPa 0,0 l/m 23,1 km/h (4 Bft) O-NO 63 0 min 0,000 mm 0,6 UV-I 198 W/m 12,1 C 7,8 C 30,6 km/h (5 Bft) 100,00 %
12.05.2016 08:02 14,1 C 87 % 996,3 hPa 0,0 l/m 24,8 km/h (4 Bft) NO 51 0 min 0,000 mm 0,6 UV-I 190 W/m 12,0 C 7,4 C 32,2 km/h (5 Bft) 100,00 %
12.05.2016 08:03 14,1 C 87 % 996,3 hPa 0,0 l/m 20,2 km/h (4 Bft) O-NO 76 0 min 0,000 mm 0,6 UV-I 187 W/m 12,0 C 8,5 C 24,1 km/h (4 Bft) 100,00 %
12.05.2016 08:04 14,1 C 87 % 996,3 hPa 0,0 l/m 21,8 km/h (4 Bft) O 84 0 min 0,000 mm 0,6 UV-I 186 W/m 12,0 C 8,1 C 30,6 km/h (5 Bft) 96,67 %
12.05.2016 08:05 14,1 C 87 % 996,2 hPa 0,0 l/m 24,5 km/h (4 Bft) O-NO 70 0 min 0,000 mm 0,6 UV-I 187 W/m 12,0 C 7,5 C 33,8 km/h (5 Bft) 96,30 %
12.05.2016 08:06 14,2 C 87 % 996,2 hPa 0,0 l/m 21,3 km/h (4 Bft) NO 51 0 min 0,000 mm 0,6 UV-I 190 W/m 12,1 C 8,4 C 24,1 km/h (4 Bft) 100,00 %
12.05.2016 08:07 14,2 C 87 % 996,3 hPa 0,0 l/m 26,9 km/h (4 Bft) NO 49 0 min 0,000 mm 0,6 UV-I 190 W/m 12,1 C 7,1 C 35,4 km/h (5 Bft) 100,00 %
12.05.2016 08:08 14,2 C 86 % 996,3 hPa 0,0 l/m 23,6 km/h (4 Bft) O-NO 58 0 min 0,000 mm 0,6 UV-I 190 W/m 11,9 C 7,8 C 30,6 km/h (5 Bft) 100,00 %
12.05.2016 08:09 14,2 C 87 % 996,2 hPa 0,0 l/m 20,0 km/h (4 Bft) O 83 0 min 0,000 mm 0,6 UV-I 190 W/m 12,1 C 8,7 C 25,7 km/h (4 Bft) 100,00 %
12.05.2016 08:10 14,2 C 87 % 996,2 hPa 0,0 l/m 22,3 km/h (4 Bft) O-NO 58 0 min 0,000 mm 0,6 UV-I 190 W/m 12,1 C 8,1 C 30,6 km/h (5 Bft) 100,00 %
12.05.2016 08:11 14,2 C 86 % 996,2 hPa 0,0 l/m 25,3 km/h (4 Bft) O-NO 62 0 min 0,000 mm 0,6 UV-I 189 W/m 11,9 C 7,5 C 32,2 km/h (5 Bft) 100,00 %
12.05.2016 08:12 14,2 C 86 % 996,2 hPa 0,0 l/m 21,6 km/h (4 Bft) NO 55 0 min 0,000 mm 0,6 UV-I 188 W/m 11,9 C 8,3 C 25,7 km/h (4 Bft) 100,00 %
12.05.2016 08:13 14,2 C 86 % 996,2 hPa 0,0 l/m 23,0 km/h (4 Bft) O-NO 70 0 min 0,000 mm 0,7 UV-I 188 W/m 11,9 C 8,0 C 33,8 km/h (5 Bft) 100,00 %
12.05.2016 08:14 14,2 C 86 % 996,2 hPa 0,0 l/m 27,1 km/h (4 Bft) O-NO 63 0 min 0,000 mm 0,7 UV-I 191 W/m 11,9 C 7,1 C 35,4 km/h (5 Bft) 100,00 %
12.05.2016 08:15 14,3 C 86 % 996,2 hPa 0,0 l/m 21,9 km/h (4 Bft) NO 36 0 min 0,000 mm 0,7 UV-I 194 W/m 12,0 C 8,4 C 29,0 km/h (5 Bft) 100,00 %
12.05.2016 08:16 14,3 C 86 % 996,2 hPa 0,0 l/m 19,0 km/h (3 Bft) NO 45 0 min 0,000 mm 0,7 UV-I 196 W/m 12,0 C 9,1 C 29,0 km/h (5 Bft) 100,00 %
12.05.2016 08:17 14,3 C 86 % 996,1 hPa 0,0 l/m 20,4 km/h (4 Bft) O 85 0 min 0,000 mm 0,7 UV-I 198 W/m 12,0 C 8,7 C 25,7 km/h (4 Bft) 100,00 %
12.05.2016 08:18 14,3 C 86 % 996,1 hPa 0,0 l/m 24,5 km/h (4 Bft) O-NO 71 0 min 0,000 mm 0,7 UV-I 202 W/m 12,0 C 7,8 C 32,2 km/h (5 Bft) 100,00 %
12.05.2016 08:19 14,3 C 86 % 996,1 hPa 0,0 l/m 18,4 km/h (3 Bft) O-NO 60 0 min 0,000 mm 0,7 UV-I 211 W/m 12,0 C 9,3 C 24,1 km/h (4 Bft) 100,00 %
12.05.2016 08:20 14,3 C 86 % 996,1 hPa 0,0 l/m 18,7 km/h (3 Bft) NO 53 0 min 0,000 mm 0,8 UV-I 226 W/m 12,0 C 9,2 C 22,5 km/h (4 Bft) 100,00 %
12.05.2016 08:21 14,4 C 86 % 996,2 hPa 0,0 l/m 24,5 km/h (4 Bft) O-NO 57 1 min 0,000 mm 0,8 UV-I 271 W/m 12,1 C 7,9 C 33,8 km/h (5 Bft) 100,00 %
12.05.2016 08:22 14,4 C 86 % 996,2 hPa 0,0 l/m 22,2 km/h (4 Bft) O-NO 66 1 min 0,000 mm 0,8 UV-I 289 W/m 12,1 C 8,4 C 33,8 km/h (5 Bft) 96,30 %
12.05.2016 08:23 14,4 C 86 % 996,1 hPa 0,0 l/m 23,8 km/h (4 Bft) O 91 1 min 0,000 mm 0,8 UV-I 260 W/m 12,1 C 8,1 C 33,8 km/h (5 Bft) 100,00 %
12.05.2016 08:24 14,4 C 86 % 996,2 hPa 0,0 l/m 17,6 km/h (3 Bft) O 79 0 min 0,000 mm 0,8 UV-I 249 W/m 12,1 C 9,6 C 24,1 km/h (4 Bft) 100,00 %
12.05.2016 08:25 14,5 C 86 % 996,2 hPa 0,0 l/m 22,5 km/h (4 Bft) NO 45 0 min 0,000 mm 0,8 UV-I 250 W/m 12,2 C 8,5 C 35,4 km/h (5 Bft) 100,00 %
12.05.2016 08:26 14,5 C 85 % 996,2 hPa 0,0 l/m 25,5 km/h (4 Bft) NO 51 1 min 0,000 mm 0,8 UV-I 255 W/m 12,0 C 7,8 C 35,4 km/h (5 Bft) 100,00 %
12.05.2016 08:27 14,6 C 85 % 996,2 hPa 0,0 l/m 25,9 km/h (4 Bft) O-NO 59 1 min 0,000 mm 0,9 UV-I 282 W/m 12,1 C 7,9 C 29,0 km/h (5 Bft) 100,00 %
12.05.2016 08:28 14,6 C 85 % 996,1 hPa 0,0 l/m 18,0 km/h (3 Bft) O-NO 61 1 min 0,000 mm 0,9 UV-I 293 W/m 12,1 C 9,8 C 25,7 km/h (4 Bft) 100,00 %
12.05.2016 08:29 14,6 C 85 % 996,2 hPa 0,0 l/m 15,7 km/h (3 Bft) O-NO 59 1 min 0,000 mm 1,0 UV-I 355 W/m 12,1 C 10,5 C 24,1 km/h (4 Bft) 98,72 %
12.05.2016 08:30 14,7 C 85 % 996,1 hPa 0,0 l/m 20,3 km/h (4 Bft) NO 40 1 min 0,000 mm 1,0 UV-I 411 W/m 12,2 C 9,3 C 24,1 km/h (4 Bft) 100,00 %
12.05.2016 08:31 14,7 C 85 % 996,2 hPa 0,0 l/m 18,5 km/h (3 Bft) N-NO 29 1 min 0,000 mm 1,0 UV-I 388 W/m 12,2 C 9,8 C 25,7 km/h (4 Bft) 100,00 %
12.05.2016 08:32 14,7 C 85 % 996,2 hPa 0,0 l/m 21,1 km/h (4 Bft) O-NO 63 1 min 0,000 mm 1,0 UV-I 284 W/m 12,2 C 9,1 C 25,7 km/h (4 Bft) 100,00 %
12.05.2016 08:33 14,8 C 85 % 996,1 hPa 0,0 l/m 17,8 km/h (3 Bft) O 90 0 min 0,000 mm 1,0 UV-I 258 W/m 12,3 C 10,1 C 24,1 km/h (4 Bft) 100,00 %
12.05.2016 08:34 14,8 C 85 % 996,2 hPa 0,0 l/m 12,2 km/h (2 Bft) O 82 1 min 0,000 mm 1,0 UV-I 298 W/m 12,3 C 12,0 C 19,3 km/h (3 Bft) 100,00 %
12.05.2016 08:35 14,8 C 85 % 996,2 hPa 0,0 l/m 17,7 km/h (3 Bft) O-NO 61 0 min 0,000 mm 1,0 UV-I 258 W/m 12,3 C 10,1 C 24,1 km/h (4 Bft) 100,00 %
12.05.2016 08:36 14,9 C 84 % 996,1 hPa 0,0 l/m 24,1 km/h (4 Bft) O-NO 70 0 min 0,000 mm 1,0 UV-I 253 W/m 12,2 C 8,7 C 35,4 km/h (5 Bft) 100,00 %
12.05.2016 08:37 14,9 C 84 % 996,2 hPa 0,0 l/m 22,2 km/h (4 Bft) O-NO 67 0 min 0,000 mm 1,0 UV-I 263 W/m 12,2 C 9,1 C 25,7 km/h (4 Bft) 100,00 %
12.05.2016 08:38 14,9 C 84 % 996,1 hPa 0,0 l/m 13,6 km/h (3 Bft) O-NO 77 0 min 0,000 mm 1,0 UV-I 257 W/m 12,2 C 11,6 C 22,5 km/h (4 Bft) 100,00 %
12.05.2016 08:39 14,9 C 84 % 996,0 hPa 0,0 l/m 15,3 km/h (3 Bft) O-NO 65 0 min 0,000 mm 1,1 UV-I 258 W/m 12,2 C 11,0 C 25,7 km/h (4 Bft) 100,00 %
12.05.2016 08:40 15,0 C 84 % 996,0 hPa 0,0 l/m 20,8 km/h (4 Bft) O-NO 59 0 min 0,000 mm 1,1 UV-I 271 W/m 12,3 C 9,5 C 25,7 km/h (4 Bft) 100,00 %
12.05.2016 08:41 15,0 C 84 % 996,0 hPa 0,0 l/m 22,4 km/h (4 Bft) NO 48 1 min 0,000 mm 1,3 UV-I 278 W/m 12,3 C 9,2 C 27,4 km/h (4 Bft) 100,00 %
12.05.2016 08:42 15,1 C 83 % 996,0 hPa 0,0 l/m 24,6 km/h (4 Bft) O-NO 63 1 min 0,000 mm 1,3 UV-I 303 W/m 12,2 C 8,8 C 29,0 km/h (5 Bft) 96,55 %
12.05.2016 08:43 15,1 C 83 % 996,0 hPa 0,0 l/m 27,2 km/h (4 Bft) O-NO 63 1 min 0,000 mm 1,3 UV-I 464 W/m 12,2 C 8,3 C 35,4 km/h (5 Bft) 100,00 %
12.05.2016 08:44 15,2 C 83 % 996,0 hPa 0,0 l/m 28,9 km/h (5 Bft) O-NO 67 1 min 0,000 mm 1,3 UV-I 422 W/m 12,3 C 8,2 C 35,4 km/h (5 Bft) 92,86 %
12.05.2016 08:45 15,2 C 82 % 996,0 hPa 0,0 l/m 28,1 km/h (4 Bft) O 79 1 min 0,000 mm 1,4 UV-I 339 W/m 12,1 C 8,3 C 35,4 km/h (5 Bft) 100,00 %
12.05.2016 08:46 15,2 C 83 % 996,0 hPa 0,0 l/m 24,5 km/h (4 Bft) NO 41 1 min 0,000 mm 1,4 UV-I 364 W/m 12,3 C 9,0 C 33,8 km/h (5 Bft) 100,00 %
12.05.2016 08:47 15,3 C 82 % 996,0 hPa 0,0 l/m 27,3 km/h (4 Bft) NO 55 1 min 0,000 mm 1,5 UV-I 441 W/m 12,2 C 8,6 C 33,8 km/h (5 Bft) 100,00 %
12.05.2016 08:48 15,3 C 82 % 996,0 hPa 0,0 l/m 27,7 km/h (4 Bft) O-NO 69 1 min 0,000 mm 1,4 UV-I 449 W/m 12,2 C 8,5 C 37,0 km/h (5 Bft) 100,00 %
12.05.2016 08:49 15,3 C 82 % 996,1 hPa 0,0 l/m 25,2 km/h (4 Bft) O 88 1 min 0,000 mm 1,5 UV-I 416 W/m 12,2 C 9,0 C 33,8 km/h (5 Bft) 100,00 %
12.05.2016 08:50 15,4 C 82 % 996,1 hPa 0,0 l/m 27,8 km/h (4 Bft) O 94 1 min 0,000 mm 1,6 UV-I 422 W/m 12,3 C 8,6 C 35,4 km/h (5 Bft) 100,00 %
12.05.2016 08:51 15,4 C 82 % 996,0 hPa 0,0 l/m 24,7 km/h (4 Bft) O-NO 76 1 min 0,000 mm 1,6 UV-I 433 W/m 12,3 C 9,2 C 35,4 km/h (5 Bft) 96,30 %
12.05.2016 08:52 15,5 C 82 % 996,0 hPa 0,0 l/m 27,4 km/h (4 Bft) NO 49 1 min 0,000 mm 1,6 UV-I 425 W/m 12,4 C 8,8 C 33,8 km/h (5 Bft) 100,00 %
12.05.2016 08:53 15,6 C 81 % 996,0 hPa 0,0 l/m 25,4 km/h (4 Bft) O-NO 65 1 min 0,000 mm 1,7 UV-I 432 W/m 12,3 C 9,3 C 30,6 km/h (5 Bft) 100,00 %
12.05.2016 08:54 15,6 C 81 % 996,0 hPa 0,0 l/m 24,4 km/h (4 Bft) NO 40 1 min 0,000 mm 1,6 UV-I 391 W/m 12,3 C 9,5 C 32,2 km/h (5 Bft) 98,79 %
12.05.2016 08:55 15,7 C 81 % 996,0 hPa 0,0 l/m 22,3 km/h (4 Bft) NO 40 1 min 0,000 mm 1,5 UV-I 327 W/m 12,4 C 10,1 C 27,4 km/h (4 Bft) 100,00 %
12.05.2016 08:56 15,7 C 81 % 996,1 hPa 0,0 l/m 28,0 km/h (4 Bft) O-NO 74 1 min 0,000 mm 1,8 UV-I 415 W/m 12,4 C 9,0 C 35,4 km/h (5 Bft) 100,00 %
12.05.2016 08:57 15,8 C 81 % 996,0 hPa 0,0 l/m 21,8 km/h (4 Bft) O-NO 69 1 min 0,000 mm 1,6 UV-I 487 W/m 12,5 C 10,4 C 32,2 km/h (5 Bft) 100,00 %
12.05.2016 08:58 15,8 C 81 % 996,0 hPa 0,0 l/m 27,0 km/h (4 Bft) O-NO 60 1 min 0,000 mm 1,6 UV-I 395 W/m 12,5 C 9,3 C 35,4 km/h (5 Bft) 100,00 %
12.05.2016 08:59 15,8 C 80 % 996,0 hPa 0,0 l/m 26,6 km/h (4 Bft) O-NO 63 1 min 0,000 mm 1,6 UV-I 439 W/m 12,4 C 9,4 C 35,4 km/h (5 Bft) 100,00 %
12.05.2016 09:00 15,8 C 80 % 996,0 hPa 0,0 l/m 28,0 km/h (4 Bft) O 84 1 min 0,000 mm 1,7 UV-I 367 W/m 12,4 C 9,1 C 33,8 km/h (5 Bft) 100,00 %
12.05.2016 09:01 15,9 C 81 % 996,0 hPa 0,0 l/m 20,3 km/h (4 Bft) NO 50 1 min 0,204 mm 1,7 UV-I 341 W/m 12,6 C 10,8 C 27,4 km/h (4 Bft) 100,00 %
12.05.2016 09:02 15,9 C 81 % 996,0 hPa 0,0 l/m 20,2 km/h (4 Bft) O-NO 68 0 min 0,000 mm 1,4 UV-I 285 W/m 12,6 C 10,9 C 24,1 km/h (4 Bft) 100,00 %
12.05.2016 09:03 15,9 C 81 % 996,0 hPa 0,0 l/m 23,0 km/h (4 Bft) O-NO 65 0 min 0,000 mm 1,3 UV-I 235 W/m 12,6 C 10,2 C 30,6 km/h (5 Bft) 100,00 %
12.05.2016 09:04 15,9 C 80 % 995,9 hPa 0,0 l/m 22,9 km/h (4 Bft) NO 38 0 min 0,000 mm 1,3 UV-I 205 W/m 12,5 C 10,3 C 29,0 km/h (5 Bft) 100,00 %
12.05.2016 09:05 15,9 C 81 % 995,9 hPa 0,0 l/m 21,2 km/h (4 Bft) O 86 0 min 0,000 mm 1,3 UV-I 200 W/m 12,6 C 10,6 C 25,7 km/h (4 Bft) 96,15 %
12.05.2016 09:06 15,9 C 80 % 996,0 hPa 0,0 l/m 20,2 km/h (4 Bft) O-NO 62 0 min 0,000 mm 1,3 UV-I 200 W/m 12,5 C 10,9 C 25,7 km/h (4 Bft) 100,00 %
12.05.2016 09:07 15,9 C 80 % 996,0 hPa 0,0 l/m 17,3 km/h (3 Bft) NO 48 0 min 0,000 mm 1,3 UV-I 201 W/m 12,5 C 11,6 C 20,9 km/h (4 Bft) 96,15 %
12.05.2016 09:08 15,8 C 80 % 996,0 hPa 0,0 l/m 18,5 km/h (3 Bft) O-NO 69 0 min 0,000 mm 1,3 UV-I 205 W/m 12,4 C 11,2 C 20,9 km/h (4 Bft) 100,00 %
12.05.2016 09:09 15,8 C 81 % 995,9 hPa 0,0 l/m 15,9 km/h (3 Bft) NO 55 0 min 0,000 mm 1,3 UV-I 211 W/m 12,5 C 11,9 C 17,7 km/h (3 Bft) 100,00 %
12.05.2016 09:10 15,8 C 80 % 995,9 hPa 0,0 l/m 22,1 km/h (4 Bft) O-NO 67 0 min 0,000 mm 1,4 UV-I 219 W/m 12,4 C 10,3 C 30,6 km/h (5 Bft) 93,33 %
12.05.2016 09:11 15,8 C 80 % 995,9 hPa 0,0 l/m 20,9 km/h (4 Bft) NO 49 0 min 0,000 mm 1,6 UV-I 282 W/m 12,4 C 10,6 C 25,7 km/h (4 Bft) 100,00 %
12.05.2016 09:12 15,8 C 80 % 995,9 hPa 0,0 l/m 21,5 km/h (4 Bft) O-NO 68 0 min 0,000 mm 1,7 UV-I 288 W/m 12,4 C 10,4 C 27,4 km/h (4 Bft) 95,65 %
12.05.2016 09:13 15,8 C 80 % 995,8 hPa 0,0 l/m 24,7 km/h (4 Bft) O-NO 78 1 min 0,000 mm 1,5 UV-I 328 W/m 12,4 C 9,8 C 30,6 km/h (5 Bft) 96,30 %
12.05.2016 09:14 15,8 C 80 % 995,8 hPa 0,0 l/m 23,1 km/h (4 Bft) NO 50 1 min 0,000 mm 1,7 UV-I 392 W/m 12,4 C 10,1 C 32,2 km/h (5 Bft) 90,91 %
12.05.2016 09:15 15,8 C 80 % 995,8 hPa 0,0 l/m 25,8 km/h (4 Bft) O-NO 71 1 min 0,000 mm 1,7 UV-I 372 W/m 12,4 C 9,5 C 32,2 km/h (5 Bft) 96,30 %
12.05.2016 09:16 15,8 C 80 % 995,8 hPa 0,0 l/m 21,4 km/h (4 Bft) NO 44 1 min 0,000 mm 1,7 UV-I 403 W/m 12,4 C 10,5 C 27,4 km/h (4 Bft) 93,94 %
12.05.2016 09:17 15,9 C 80 % 995,8 hPa 0,0 l/m 19,9 km/h (4 Bft) O-NO 67 1 min 0,000 mm 1,9 UV-I 461 W/m 12,5 C 10,9 C 25,7 km/h (4 Bft) 96,30 %
12.05.2016 09:18 15,9 C 81 % 995,8 hPa 0,0 l/m 22,4 km/h (4 Bft) O-NO 57 1 min 0,000 mm 1,8 UV-I 425 W/m 12,6 C 10,4 C 33,8 km/h (5 Bft) 100,00 %
12.05.2016 09:19 16,0 C 81 % 995,8 hPa 0,0 l/m 20,7 km/h (4 Bft) NO 51 1 min 0,000 mm 1,6 UV-I 358 W/m 12,7 C 10,9 C 25,7 km/h (4 Bft) 96,97 %
12.05.2016 09:20 16,1 C 81 % 995,8 hPa 0,0 l/m 23,5 km/h (4 Bft) O-NO 76 0 min 0,000 mm 1,6 UV-I 286 W/m 12,8 C 10,4 C 35,4 km/h (5 Bft) 100,00 %
12.05.2016 09:21 16,1 C 79 % 995,8 hPa 0,0 l/m 26,2 km/h (4 Bft) NO 46 1 min 0,000 mm 1,6 UV-I 353 W/m 12,5 C 9,9 C 35,4 km/h (5 Bft) 96,67 %
12.05.2016 09:22 16,1 C 79 % 995,8 hPa 0,0 l/m 27,0 km/h (4 Bft) O-NO 63 1 min 0,000 mm 1,7 UV-I 387 W/m 12,5 C 9,7 C 32,2 km/h (5 Bft) 95,65 %
12.05.2016 09:23 16,1 C 79 % 995,8 hPa 0,0 l/m 23,1 km/h (4 Bft) O 88 1 min 0,000 mm 1,8 UV-I 374 W/m 12,5 C 10,5 C 30,6 km/h (5 Bft) 95,83 %
12.05.2016 09:24 16,1 C 80 % 995,8 hPa 0,0 l/m 26,4 km/h (4 Bft) O-NO 61 1 min 0,000 mm 1,8 UV-I 388 W/m 12,6 C 9,8 C 37,0 km/h (5 Bft) 95,65 %
12.05.2016 09:25 16,1 C 79 % 995,8 hPa 0,0 l/m 25,0 km/h (4 Bft) NO 55 1 min 0,000 mm 1,9 UV-I 447 W/m 12,5 C 10,1 C 30,6 km/h (5 Bft) 100,00 %
12.05.2016 09:26 16,2 C 79 % 995,7 hPa 0,0 l/m 23,3 km/h (4 Bft) O-NO 60 1 min 0,000 mm 2,0 UV-I 508 W/m 12,6 C 10,6 C 32,2 km/h (5 Bft) 95,65 %
12.05.2016 09:27 16,2 C 79 % 995,7 hPa 0,0 l/m 30,5 km/h (5 Bft) O-NO 67 1 min 0,000 mm 2,0 UV-I 478 W/m 12,6 C 9,3 C 40,2 km/h (6 Bft) 100,00 %
12.05.2016 09:28 16,2 C 78 % 995,7 hPa 0,0 l/m 26,7 km/h (4 Bft) NO 52 1 min 0,000 mm 2,1 UV-I 483 W/m 12,4 C 9,9 C 32,2 km/h (5 Bft) 92,31 %
12.05.2016 09:29 16,2 C 78 % 995,8 hPa 0,0 l/m 24,9 km/h (4 Bft) O-NO 74 1 min 0,000 mm 2,2 UV-I 564 W/m 12,4 C 10,3 C 30,6 km/h (5 Bft) 92,59 %
12.05.2016 09:30 16,3 C 79 % 995,7 hPa 0,0 l/m 23,3 km/h (4 Bft) O-NO 66 1 min 0,000 mm 2,2 UV-I 531 W/m 12,6 C 10,7 C 29,0 km/h (5 Bft) 100,00 %
12.05.2016 09:31 16,3 C 80 % 995,7 hPa 0,0 l/m 29,6 km/h (5 Bft) O-NO 59 1 min 0,000 mm 2,1 UV-I 479 W/m 12,8 C 9,6 C 37,0 km/h (5 Bft) 92,31 %
12.05.2016 09:32 16,3 C 79 % 995,6 hPa 0,0 l/m 25,5 km/h (4 Bft) NO 51 1 min 0,000 mm 2,1 UV-I 482 W/m 12,6 C 10,3 C 33,8 km/h (5 Bft) 100,00 %
12.05.2016 09:33 16,4 C 78 % 995,6 hPa 0,0 l/m 29,0 km/h (5 Bft) O-NO 57 1 min 0,000 mm 2,2 UV-I 564 W/m 12,6 C 9,8 C 41,8 km/h (6 Bft) 92,31 %
12.05.2016 09:34 16,4 C 79 % 995,6 hPa 0,0 l/m 24,1 km/h (4 Bft) O-NO 70 1 min 0,000 mm 2,3 UV-I 591 W/m 12,7 C 10,7 C 32,2 km/h (5 Bft) 100,00 %
12.05.2016 09:35 16,5 C 79 % 995,6 hPa 0,0 l/m 29,8 km/h (5 Bft) O-NO 67 1 min 0,000 mm 2,3 UV-I 592 W/m 12,8 C 9,8 C 37,0 km/h (5 Bft) 93,33 %
12.05.2016 09:36 16,6 C 78 % 995,6 hPa 0,0 l/m 28,7 km/h (4 Bft) N-NO 27 1 min 0,000 mm 2,4 UV-I 599 W/m 12,7 C 10,1 C 35,4 km/h (5 Bft) 96,30 %
12.05.2016 09:37 16,6 C 78 % 995,6 hPa 0,0 l/m 27,1 km/h (4 Bft) O-NO 68 1 min 0,000 mm 2,4 UV-I 616 W/m 12,7 C 10,4 C 35,4 km/h (5 Bft) 94,12 %
12.05.2016 09:38 16,6 C 78 % 995,6 hPa 0,0 l/m 26,0 km/h (4 Bft) O-NO 57 1 min 0,000 mm 2,3 UV-I 601 W/m 12,7 C 10,6 C 38,6 km/h (5 Bft) 100,00 %
12.05.2016 09:39 16,7 C 78 % 995,6 hPa 0,0 l/m 26,8 km/h (4 Bft) O-NO 60 1 min 0,000 mm 2,4 UV-I 587 W/m 12,8 C 10,6 C 33,8 km/h (5 Bft) 96,15 %
12.05.2016 09:40 16,7 C 78 % 995,5 hPa 0,0 l/m 30,9 km/h (5 Bft) NO 44 1 min 0,000 mm 2,4 UV-I 568 W/m 12,8 C 9,9 C 41,8 km/h (6 Bft) 95,83 %
12.05.2016 09:41 16,7 C 77 % 995,6 hPa 0,0 l/m 30,1 km/h (5 Bft) O-NO 59 1 min 0,000 mm 2,4 UV-I 605 W/m 12,6 C 10,1 C 37,0 km/h (5 Bft) 100,00 %
12.05.2016 09:42 16,7 C 78 % 995,6 hPa 0,0 l/m 29,1 km/h (5 Bft) NO 48 1 min 0,000 mm 2,4 UV-I 572 W/m 12,8 C 10,2 C 37,0 km/h (5 Bft) 100,00 %
12.05.2016 09:43 16,7 C 77 % 995,6 hPa 0,0 l/m 30,6 km/h (5 Bft) O 100 1 min 0,000 mm 2,3 UV-I 569 W/m 12,6 C 10,0 C 40,2 km/h (6 Bft) 100,00 %
12.05.2016 09:44 16,8 C 77 % 995,6 hPa 0,0 l/m 27,0 km/h (4 Bft) O-NO 63 1 min 0,000 mm 2,4 UV-I 606 W/m 12,7 C 10,7 C 37,0 km/h (5 Bft) 96,30 %
12.05.2016 09:45 16,8 C 77 % 995,5 hPa 0,0 l/m 29,4 km/h (5 Bft) O-NO 61 1 min 0,000 mm 2,5 UV-I 624 W/m 12,7 C 10,3 C 38,6 km/h (5 Bft) 100,00 %
12.05.2016 09:46 16,8 C 77 % 995,5 hPa 0,0 l/m 30,1 km/h (5 Bft) O-NO 66 1 min 0,000 mm 2,5 UV-I 629 W/m 12,7 C 10,2 C 35,4 km/h (5 Bft) 100,00 %
12.05.2016 09:47 16,8 C 77 % 995,5 hPa 0,0 l/m 30,8 km/h (5 Bft) NO 49 1 min 0,000 mm 2,5 UV-I 619 W/m 12,7 C 10,1 C 38,6 km/h (5 Bft) 100,00 %
12.05.2016 09:48 16,9 C 77 % 995,5 hPa 0,0 l/m 32,7 km/h (5 Bft) O-NO 66 1 min 0,000 mm 2,5 UV-I 613 W/m 12,8 C 10,0 C 43,5 km/h (6 Bft) 100,00 %
12.05.2016 09:49 16,9 C 76 % 995,5 hPa 0,0 l/m 31,0 km/h (5 Bft) NO 53 1 min 0,000 mm 2,5 UV-I 623 W/m 12,6 C 10,2 C 41,8 km/h (6 Bft) 100,00 %
12.05.2016 09:50 16,9 C 76 % 995,5 hPa 0,0 l/m 29,8 km/h (5 Bft) NO 55 1 min 0,000 mm 2,6 UV-I 618 W/m 12,6 C 10,4 C 40,2 km/h (6 Bft) 100,00 %
12.05.2016 09:51 17,0 C 76 % 995,5 hPa 0,0 l/m 28,3 km/h (4 Bft) O-NO 65 1 min 0,000 mm 2,6 UV-I 620 W/m 12,7 C 10,8 C 35,4 km/h (5 Bft) 95,83 %
12.05.2016 09:52 17,0 C 76 % 995,4 hPa 0,0 l/m 33,6 km/h (5 Bft) NO 38 1 min 0,000 mm 2,6 UV-I 619 W/m 12,7 C 10,0 C 41,8 km/h (6 Bft) 96,15 %
12.05.2016 09:53 17,1 C 75 % 995,4 hPa 0,0 l/m 35,3 km/h (5 Bft) O-NO 63 1 min 0,000 mm 2,6 UV-I 622 W/m 12,6 C 9,9 C 43,5 km/h (6 Bft) 95,83 %
12.05.2016 09:54 17,1 C 75 % 995,4 hPa 0,0 l/m 31,5 km/h (5 Bft) NO 51 1 min 0,000 mm 2,6 UV-I 627 W/m 12,6 C 10,4 C 41,8 km/h (6 Bft) 100,00 %
12.05.2016 09:55 17,1 C 76 % 995,4 hPa 0,0 l/m 25,5 km/h (4 Bft) O-NO 66 1 min 0,000 mm 2,6 UV-I 621 W/m 12,8 C 11,4 C 33,8 km/h (5 Bft) 100,00 %
12.05.2016 09:56 17,1 C 76 % 995,4 hPa 0,0 l/m 26,3 km/h (4 Bft) O-NO 61 1 min 0,000 mm 2,6 UV-I 626 W/m 12,8 C 11,2 C 32,2 km/h (5 Bft) 100,00 %
12.05.2016 09:57 17,2 C 76 % 995,3 hPa 0,0 l/m 21,6 km/h (4 Bft) O-NO 68 1 min 0,000 mm 2,6 UV-I 601 W/m 12,9 C 12,2 C 30,6 km/h (5 Bft) 100,00 %
12.05.2016 09:58 17,2 C 76 % 995,4 hPa 0,0 l/m 28,6 km/h (4 Bft) NO 42 1 min 0,000 mm 2,4 UV-I 586 W/m 12,9 C 11,0 C 35,4 km/h (5 Bft) 100,00 %
12.05.2016 09:59 17,2 C 76 % 995,3 hPa 0,0 l/m 26,8 km/h (4 Bft) O-NO 61 1 min 0,000 mm 2,4 UV-I 531 W/m 12,9 C 11,3 C 35,4 km/h (5 Bft) 100,00 %
12.05.2016 10:00 17,2 C 76 % 995,3 hPa 0,0 l/m 28,6 km/h (4 Bft) NO 53 1 min 0,304 mm 2,2 UV-I 487 W/m 12,9 C 11,0 C 37,0 km/h (5 Bft) 100,00 %
12.05.2016 10:01 17,2 C 75 % 995,3 hPa 0,0 l/m 26,4 km/h (4 Bft) O-NO 63 1 min 0,000 mm 2,3 UV-I 434 W/m 12,7 C 11,3 C 37,0 km/h (5 Bft) 100,00 %
12.05.2016 10:02 17,2 C 76 % 995,4 hPa 0,0 l/m 24,3 km/h (4 Bft) NO 52 1 min 0,000 mm 2,5 UV-I 510 W/m 12,9 C 11,7 C 30,6 km/h (5 Bft) 96,15 %
12.05.2016 10:03 17,2 C 77 % 995,4 hPa 0,0 l/m 30,4 km/h (5 Bft) O 89 1 min 0,000 mm 2,7 UV-I 534 W/m 13,1 C 10,7 C 37,0 km/h (5 Bft) 95,83 %
12.05.2016 10:04 17,2 C 76 % 995,3 hPa 0,0 l/m 24,7 km/h (4 Bft) O-NO 61 1 min 0,000 mm 2,9 UV-I 657 W/m 12,9 C 11,6 C 33,8 km/h (5 Bft) 100,00 %
12.05.2016 10:05 17,2 C 76 % 995,3 hPa 0,0 l/m 23,6 km/h (4 Bft) NO 52 1 min 0,000 mm 2,6 UV-I 618 W/m 12,9 C 11,8 C 35,4 km/h (5 Bft) 100,00 %
12.05.2016 10:06 17,3 C 76 % 995,3 hPa 0,0 l/m 17,1 km/h (3 Bft) NO 56 1 min 0,000 mm 2,6 UV-I 525 W/m 13,0 C 13,4 C 22,5 km/h (4 Bft) 100,00 %
12.05.2016 10:07 17,3 C 77 % 995,2 hPa 0,0 l/m 24,4 km/h (4 Bft) NO 46 1 min 0,000 mm 2,8 UV-I 587 W/m 13,2 C 11,8 C 30,6 km/h (5 Bft) 100,00 %
12.05.2016 10:08 17,4 C 76 % 995,3 hPa 0,0 l/m 25,4 km/h (4 Bft) NO 39 1 min 0,000 mm 2,9 UV-I 600 W/m 13,1 C 11,8 C 32,2 km/h (5 Bft) 100,00 %
12.05.2016 10:09 17,4 C 76 % 995,3 hPa 0,0 l/m 24,2 km/h (4 Bft) O-NO 64 1 min 0,000 mm 2,9 UV-I 601 W/m 13,1 C 12,0 C 29,0 km/h (5 Bft) 100,00 %
12.05.2016 10:10 17,4 C 75 % 995,3 hPa 0,0 l/m 29,2 km/h (5 Bft) O-NO 68 1 min 0,000 mm 2,9 UV-I 599 W/m 12,9 C 11,2 C 40,2 km/h (6 Bft) 100,00 %
12.05.2016 10:11 17,5 C 75 % 995,2 hPa 0,0 l/m 28,1 km/h (4 Bft) O-NO 65 1 min 0,000 mm 2,9 UV-I 606 W/m 13,0 C 11,5 C 37,0 km/h (5 Bft) 100,00 %
12.05.2016 10:12 17,6 C 75 % 995,2 hPa 0,0 l/m 26,3 km/h (4 Bft) O-NO 74 1 min 0,000 mm 2,9 UV-I 615 W/m 13,1 C 11,9 C 37,0 km/h (5 Bft) 92,59 %
12.05.2016 10:13 17,6 C 75 % 995,2 hPa 0,0 l/m 25,7 km/h (4 Bft) O-NO 74 1 min 0,000 mm 3,0 UV-I 628 W/m 13,1 C 12,0 C 32,2 km/h (5 Bft) 100,00 %
12.05.2016 10:14 17,6 C 76 % 995,1 hPa 0,0 l/m 21,2 km/h (4 Bft) NO 53 1 min 0,000 mm 3,0 UV-I 650 W/m 13,3 C 12,9 C 30,6 km/h (5 Bft) 100,00 %
12.05.2016 10:15 17,7 C 76 % 995,1 hPa 0,0 l/m 22,4 km/h (4 Bft) O 86 1 min 0,000 mm 3,1 UV-I 653 W/m 13,4 C 12,7 C 27,4 km/h (4 Bft) 100,00 %
12.05.2016 10:16 17,7 C 75 % 995,1 hPa 0,0 l/m 25,5 km/h (4 Bft) O-NO 76 1 min 0,000 mm 3,1 UV-I 671 W/m 13,2 C 12,2 C 32,2 km/h (5 Bft) 96,30 %
12.05.2016 10:17 17,8 C 75 % 995,1 hPa 0,0 l/m 20,8 km/h (4 Bft) N-NO 26 1 min 0,000 mm 3,1 UV-I 671 W/m 13,3 C 13,2 C 27,4 km/h (4 Bft) 92,86 %
12.05.2016 10:18 17,8 C 76 % 995,1 hPa 0,0 l/m 15,8 km/h (3 Bft) NO 47 1 min 0,000 mm 3,2 UV-I 674 W/m 13,5 C 14,4 C 22,5 km/h (4 Bft) 100,00 %
12.05.2016 10:19 17,9 C 75 % 995,1 hPa 0,0 l/m 20,4 km/h (4 Bft) O 96 1 min 0,000 mm 3,2 UV-I 675 W/m 13,4 C 13,4 C 29,0 km/h (5 Bft) 100,00 %
12.05.2016 10:20 18,0 C 76 % 995,1 hPa 0,0 l/m 21,3 km/h (4 Bft) NO 55 1 min 0,000 mm 3,2 UV-I 679 W/m 13,7 C 13,4 C 29,0 km/h (5 Bft) 100,00 %
12.05.2016 10:21 18,1 C 75 % 995,1 hPa 0,0 l/m 23,0 km/h (4 Bft) NO 42 1 min 0,000 mm 3,2 UV-I 680 W/m 13,6 C 13,2 C 33,8 km/h (5 Bft) 90,91 %
12.05.2016 10:22 18,2 C 73 % 995,1 hPa 0,0 l/m 26,3 km/h (4 Bft) NO 47 1 min 0,000 mm 3,3 UV-I 687 W/m 13,3 C 12,7 C 37,0 km/h (5 Bft) 100,00 %
12.05.2016 10:23 18,2 C 73 % 995,1 hPa 0,0 l/m 22,9 km/h (4 Bft) NO 54 1 min 0,000 mm 3,3 UV-I 694 W/m 13,3 C 13,3 C 37,0 km/h (5 Bft) 100,00 %
12.05.2016 10:24 18,2 C 74 % 995,1 hPa 0,0 l/m 23,0 km/h (4 Bft) N-NO 31 1 min 0,000 mm 3,3 UV-I 695 W/m 13,5 C 13,3 C 30,6 km/h (5 Bft) 100,00 %
12.05.2016 10:25 18,3 C 74 % 995,1 hPa 0,0 l/m 28,7 km/h (4 Bft) NO 51 1 min 0,000 mm 3,4 UV-I 694 W/m 13,6 C 12,5 C 40,2 km/h (6 Bft) 100,00 %
12.05.2016 10:26 18,3 C 75 % 995,1 hPa 0,0 l/m 22,9 km/h (4 Bft) O-NO 57 1 min 0,000 mm 3,4 UV-I 694 W/m 13,8 C 13,4 C 30,6 km/h (5 Bft) 95,83 %
12.05.2016 10:27 18,3 C 74 % 995,1 hPa 0,0 l/m 23,8 km/h (4 Bft) NO 34 1 min 0,000 mm 3,4 UV-I 691 W/m 13,6 C 13,3 C 35,4 km/h (5 Bft) 100,00 %
12.05.2016 10:28 18,4 C 74 % 995,1 hPa 0,0 l/m 22,4 km/h (4 Bft) O-NO 65 1 min 0,000 mm 3,4 UV-I 690 W/m 13,7 C 13,7 C 30,6 km/h (5 Bft) 100,00 %
12.05.2016 10:29 18,4 C 73 % 995,1 hPa 0,0 l/m 25,1 km/h (4 Bft) O 80 1 min 0,000 mm 3,5 UV-I 693 W/m 13,5 C 13,2 C 35,4 km/h (5 Bft) 100,00 %
12.05.2016 10:30 18,5 C 72 % 995,0 hPa 0,0 l/m 27,8 km/h (4 Bft) NO 49 1 min 0,000 mm 3,5 UV-I 681 W/m 13,4 C 12,9 C 37,0 km/h (5 Bft) 100,00 %
12.05.2016 10:31 18,5 C 72 % 995,0 hPa 0,0 l/m 27,4 km/h (4 Bft) NO 42 1 min 0,000 mm 3,4 UV-I 679 W/m 13,4 C 13,0 C 33,8 km/h (5 Bft) 100,00 %
12.05.2016 10:32 18,5 C 71 % 995,0 hPa 0,0 l/m 28,5 km/h (4 Bft) NO 48 1 min 0,000 mm 3,4 UV-I 675 W/m 13,1 C 12,8 C 35,4 km/h (5 Bft) 100,00 %
12.05.2016 10:33 18,4 C 72 % 995,1 hPa 0,0 l/m 28,0 km/h (4 Bft) O-NO 57 1 min 0,000 mm 3,4 UV-I 670 W/m 13,3 C 12,7 C 35,4 km/h (5 Bft) 100,00 %
12.05.2016 10:34 18,4 C 72 % 995,0 hPa 0,0 l/m 24,2 km/h (4 Bft) O-NO 62 1 min 0,000 mm 3,4 UV-I 653 W/m 13,3 C 13,3 C 37,0 km/h (5 Bft) 100,00 %
12.05.2016 10:35 18,4 C 71 % 995,1 hPa 0,0 l/m 25,8 km/h (4 Bft) N-NO 28 1 min 0,000 mm 3,5 UV-I 664 W/m 13,0 C 13,1 C 35,4 km/h (5 Bft) 100,00 %
12.05.2016 10:36 18,4 C 73 % 995,0 hPa 0,0 l/m 28,5 km/h (4 Bft) O 85 1 min 0,000 mm 3,5 UV-I 645 W/m 13,5 C 12,7 C 37,0 km/h (5 Bft) 100,00 %
12.05.2016 10:37 18,5 C 72 % 995,0 hPa 0,0 l/m 25,2 km/h (4 Bft) NO 39 1 min 0,000 mm 3,5 UV-I 636 W/m 13,4 C 13,3 C 37,0 km/h (5 Bft) 100,00 %
12.05.2016 10:38 18,6 C 72 % 995,1 hPa 0,0 l/m 25,1 km/h (4 Bft) NO 53 1 min 0,000 mm 3,6 UV-I 664 W/m 13,4 C 13,5 C 38,6 km/h (5 Bft) 100,00 %
12.05.2016 10:39 18,6 C 72 % 995,1 hPa 0,0 l/m 24,8 km/h (4 Bft) NO 42 1 min 0,000 mm 3,6 UV-I 667 W/m 13,4 C 13,5 C 35,4 km/h (5 Bft) 100,00 %
12.05.2016 10:40 18,6 C 72 % 995,1 hPa 0,0 l/m 27,0 km/h (4 Bft) NO 46 1 min 0,000 mm 3,5 UV-I 668 W/m 13,4 C 13,2 C 33,8 km/h (5 Bft) 100,00 %
12.05.2016 10:41 18,6 C 71 % 995,1 hPa 0,0 l/m 26,0 km/h (4 Bft) NO 54 1 min 0,000 mm 3,7 UV-I 704 W/m 13,2 C 13,3 C 32,2 km/h (5 Bft) 100,00 %
12.05.2016 10:42 18,6 C 72 % 995,1 hPa 0,0 l/m 24,3 km/h (4 Bft) NO 47 1 min 0,000 mm 3,7 UV-I 712 W/m 13,4 C 13,6 C 35,4 km/h (5 Bft) 100,00 %
12.05.2016 10:43 18,7 C 72 % 995,1 hPa 0,0 l/m 27,5 km/h (4 Bft) O-NO 78 1 min 0,000 mm 3,7 UV-I 702 W/m 13,5 C 13,2 C 38,6 km/h (5 Bft) 100,00 %
12.05.2016 10:44 18,7 C 71 % 995,1 hPa 0,0 l/m 23,8 km/h (4 Bft) O-NO 76 1 min 0,000 mm 3,7 UV-I 706 W/m 13,3 C 13,8 C 27,4 km/h (4 Bft) 100,00 %
12.05.2016 10:45 18,7 C 72 % 995,1 hPa 0,0 l/m 21,6 km/h (4 Bft) O-NO 69 1 min 0,000 mm 3,8 UV-I 708 W/m 13,5 C 14,2 C 27,4 km/h (4 Bft) 100,00 %
12.05.2016 10:46 18,8 C 72 % 995,0 hPa 0,0 l/m 22,3 km/h (4 Bft) NO 42 1 min 0,000 mm 3,7 UV-I 699 W/m 13,6 C 14,2 C 30,6 km/h (5 Bft) 100,00 %
12.05.2016 10:47 18,8 C 72 % 995,0 hPa 0,0 l/m 20,6 km/h (4 Bft) O-NO 67 1 min 0,000 mm 3,8 UV-I 729 W/m 13,6 C 14,5 C 37,0 km/h (5 Bft) 100,00 %
12.05.2016 10:48 18,9 C 71 % 995,0 hPa 0,0 l/m 22,1 km/h (4 Bft) O-NO 76 1 min 0,000 mm 3,9 UV-I 730 W/m 13,5 C 14,4 C 33,8 km/h (5 Bft) 93,10 %
12.05.2016 10:49 18,9 C 71 % 995,0 hPa 0,0 l/m 18,7 km/h (3 Bft) O-NO 75 1 min 0,000 mm 3,9 UV-I 731 W/m 13,5 C 15,1 C 25,7 km/h (4 Bft) 100,00 %
12.05.2016 10:50 19,0 C 70 % 995,0 hPa 0,0 l/m 29,4 km/h (5 Bft) NO 50 1 min 0,000 mm 3,9 UV-I 734 W/m 13,4 C 13,4 C 35,4 km/h (5 Bft) 100,00 %
12.05.2016 10:51 19,0 C 69 % 994,9 hPa 0,0 l/m 25,3 km/h (4 Bft) O-NO 77 1 min 0,000 mm 3,9 UV-I 730 W/m 13,2 C 14,0 C 32,2 km/h (5 Bft) 100,00 %
12.05.2016 10:52 19,0 C 70 % 995,0 hPa 0,0 l/m 22,1 km/h (4 Bft) O-NO 63 1 min 0,000 mm 3,9 UV-I 726 W/m 13,4 C 14,5 C 32,2 km/h (5 Bft) 100,00 %
12.05.2016 10:53 19,0 C 70 % 995,0 hPa 0,0 l/m 21,4 km/h (4 Bft) O-NO 65 1 min 0,000 mm 3,9 UV-I 725 W/m 13,4 C 14,6 C 25,7 km/h (4 Bft) 100,00 %
12.05.2016 10:54 19,1 C 70 % 995,0 hPa 0,0 l/m 19,7 km/h (3 Bft) O-NO 62 1 min 0,000 mm 4,0 UV-I 725 W/m 13,5 C 15,1 C 27,4 km/h (4 Bft) 100,00 %
12.05.2016 10:55 19,1 C 70 % 995,0 hPa 0,0 l/m 23,6 km/h (4 Bft) O-NO 69 1 min 0,000 mm 4,0 UV-I 728 W/m 13,5 C 14,4 C 35,4 km/h (5 Bft) 100,00 %
12.05.2016 10:56 19,1 C 69 % 995,0 hPa 0,0 l/m 30,7 km/h (5 Bft) NO 54 1 min 0,000 mm 4,0 UV-I 737 W/m 13,3 C 13,4 C 40,2 km/h (6 Bft) 93,33 %
12.05.2016 10:57 19,2 C 70 % 995,0 hPa 0,0 l/m 23,8 km/h (4 Bft) O-NO 61 1 min 0,000 mm 4,0 UV-I 738 W/m 13,6 C 14,5 C 33,8 km/h (5 Bft) 100,00 %
12.05.2016 10:58 19,2 C 69 % 995,0 hPa 0,0 l/m 28,3 km/h (4 Bft) O-NO 64 1 min 0,000 mm 4,1 UV-I 745 W/m 13,4 C 13,8 C 33,8 km/h (5 Bft) 100,00 %
12.05.2016 10:59 19,2 C 70 % 995,0 hPa 0,0 l/m 33,1 km/h (5 Bft) O-NO 69 1 min 0,000 mm 4,1 UV-I 752 W/m 13,6 C 13,2 C 41,8 km/h (6 Bft) 100,00 %
12.05.2016 11:00 19,2 C 69 % 995,0 hPa 0,0 l/m 28,8 km/h (4 Bft) NO 55 1 min 0,458 mm 4,1 UV-I 746 W/m 13,4 C 13,8 C 38,6 km/h (5 Bft) 100,00 %
12.05.2016 11:01 19,2 C 69 % 995,0 hPa 0,0 l/m 25,5 km/h (4 Bft) NO 38 1 min 0,000 mm 4,0 UV-I 732 W/m 13,4 C 14,2 C 32,2 km/h (5 Bft) 95,65 %
12.05.2016 11:02 19,2 C 69 % 995,0 hPa 0,0 l/m 22,2 km/h (4 Bft) NO 54 1 min 0,000 mm 4,0 UV-I 725 W/m 13,4 C 14,8 C 29,0 km/h (5 Bft) 100,00 %
12.05.2016 11:03 19,2 C 69 % 995,0 hPa 0,0 l/m 31,0 km/h (5 Bft) NO 51 1 min 0,000 mm 4,0 UV-I 704 W/m 13,4 C 13,5 C 40,2 km/h (6 Bft) 96,15 %
12.05.2016 11:04 19,2 C 69 % 995,0 hPa 0,0 l/m 32,0 km/h (5 Bft) O-NO 57 1 min 0,000 mm 3,9 UV-I 656 W/m 13,4 C 13,3 C 41,8 km/h (6 Bft) 100,00 %
12.05.2016 11:05 19,2 C 68 % 995,0 hPa 0,0 l/m 24,5 km/h (4 Bft) NO 55 1 min 0,000 mm 4,2 UV-I 709 W/m 13,1 C 14,4 C 35,4 km/h (5 Bft) 96,55 %
12.05.2016 11:06 19,3 C 68 % 995,0 hPa 0,0 l/m 25,5 km/h (4 Bft) O-NO 59 1 min 0,000 mm 4,2 UV-I 768 W/m 13,2 C 14,4 C 37,0 km/h (5 Bft) 100,00 %
12.05.2016 11:07 19,3 C 67 % 995,0 hPa 0,0 l/m 27,4 km/h (4 Bft) NO 44 1 min 0,000 mm 4,3 UV-I 768 W/m 13,0 C 14,1 C 33,8 km/h (5 Bft) 96,15 %
12.05.2016 11:08 19,2 C 68 % 995,0 hPa 0,0 l/m 24,2 km/h (4 Bft) NO 46 1 min 0,000 mm 4,3 UV-I 770 W/m 13,1 C 14,4 C 37,0 km/h (5 Bft) 96,30 %
12.05.2016 11:09 19,3 C 69 % 995,0 hPa 0,0 l/m 21,0 km/h (4 Bft) O-NO 65 1 min 0,000 mm 4,3 UV-I 768 W/m 13,5 C 15,1 C 27,4 km/h (4 Bft) 100,00 %
12.05.2016 11:10 19,3 C 70 % 995,0 hPa 0,0 l/m 22,7 km/h (4 Bft) O-NO 65 1 min 0,000 mm 3,3 UV-I 760 W/m 13,7 C 14,8 C 35,4 km/h (5 Bft) 96,15 %
12.05.2016 11:11 19,4 C 70 % 995,0 hPa 0,0 l/m 27,9 km/h (4 Bft) O-NO 68 1 min 0,000 mm 4,4 UV-I 771 W/m 13,8 C 14,1 C 33,8 km/h (5 Bft) 100,00 %
12.05.2016 11:12 19,5 C 68 % 995,0 hPa 0,0 l/m 29,0 km/h (5 Bft) NO 54 1 min 0,000 mm 4,4 UV-I 770 W/m 13,4 C 14,1 C 35,4 km/h (5 Bft) 96,15 %
12.05.2016 11:13 19,5 C 68 % 995,0 hPa 0,0 l/m 25,3 km/h (4 Bft) O 101 1 min 0,000 mm 4,4 UV-I 772 W/m 13,4 C 14,7 C 37,0 km/h (5 Bft) 96,30 %
12.05.2016 11:14 19,5 C 68 % 995,0 hPa 0,0 l/m 26,3 km/h (4 Bft) O-NO 71 1 min 0,000 mm 4,4 UV-I 773 W/m 13,4 C 14,5 C 32,2 km/h (5 Bft) 100,00 %
12.05.2016 11:15 19,5 C 69 % 995,0 hPa 0,0 l/m 17,0 km/h (3 Bft) NO 44 1 min 0,000 mm 4,4 UV-I 772 W/m 13,7 C 16,2 C 24,1 km/h (4 Bft) 100,00 %
12.05.2016 11:16 19,6 C 69 % 994,9 hPa 0,0 l/m 26,8 km/h (4 Bft) O-NO 66 1 min 0,000 mm 4,4 UV-I 768 W/m 13,8 C 14,6 C 37,0 km/h (5 Bft) 93,75 %
12.05.2016 11:17 19,6 C 69 % 994,9 hPa 0,0 l/m 32,1 km/h (5 Bft) O-NO 61 1 min 0,000 mm 4,4 UV-I 770 W/m 13,8 C 13,9 C 40,2 km/h (6 Bft) 98,66 %
12.05.2016 11:18 19,6 C 68 % 994,9 hPa 0,0 l/m 25,5 km/h (4 Bft) NO 44 1 min 0,000 mm 4,5 UV-I 772 W/m 13,5 C 14,8 C 37,0 km/h (5 Bft) 97,56 %
12.05.2016 11:19 19,5 C 68 % 994,9 hPa 0,0 l/m 19,8 km/h (3 Bft) O 82 1 min 0,000 mm 4,5 UV-I 778 W/m 13,4 C 15,6 C 29,0 km/h (5 Bft) 95,83 %
12.05.2016 11:20 19,6 C 70 % 994,9 hPa 0,0 l/m 26,2 km/h (4 Bft) NO 36 1 min 0,000 mm 4,5 UV-I 782 W/m 14,0 C 14,7 C 35,4 km/h (5 Bft) 100,00 %
12.05.2016 11:21 19,6 C 69 % 994,9 hPa 0,0 l/m 22,1 km/h (4 Bft) O-NO 76 1 min 0,000 mm 4,5 UV-I 788 W/m 13,8 C 15,3 C 32,2 km/h (5 Bft) 88,89 %
12.05.2016 11:22 19,6 C 70 % 995,0 hPa 0,0 l/m 19,6 km/h (3 Bft) O-NO 66 1 min 0,000 mm 4,6 UV-I 790 W/m 14,0 C 15,8 C 24,1 km/h (4 Bft) 96,88 %
12.05.2016 11:23 19,7 C 70 % 995,0 hPa 0,0 l/m 24,0 km/h (4 Bft) NO 53 1 min 0,000 mm 4,6 UV-I 791 W/m 14,1 C 15,1 C 32,2 km/h (5 Bft) 100,00 %
12.05.2016 11:24 19,7 C 68 % 994,9 hPa 0,0 l/m 32,1 km/h (5 Bft) O 80 1 min 0,000 mm 4,6 UV-I 790 W/m 13,6 C 14,0 C 40,2 km/h (6 Bft) 100,00 %
12.05.2016 11:25 19,7 C 68 % 994,9 hPa 0,0 l/m 23,4 km/h (4 Bft) N-NO 29 1 min 0,000 mm 3,6 UV-I 806 W/m 13,6 C 15,2 C 30,6 km/h (5 Bft) 94,44 %
12.05.2016 11:26 19,8 C 69 % 994,9 hPa 0,0 l/m 22,2 km/h (4 Bft) NO 44 1 min 0,000 mm 4,3 UV-I 818 W/m 13,9 C 15,6 C 32,2 km/h (5 Bft) 96,55 %
12.05.2016 11:27 19,8 C 68 % 994,9 hPa 0,0 l/m 21,5 km/h (4 Bft) N-NO 19 1 min 0,000 mm 4,8 UV-I 837 W/m 13,7 C 15,7 C 29,0 km/h (5 Bft) 96,30 %
12.05.2016 11:28 19,9 C 70 % 994,8 hPa 0,0 l/m 22,0 km/h (4 Bft) NO 38 1 min 0,000 mm 4,7 UV-I 838 W/m 14,3 C 15,7 C 29,0 km/h (5 Bft) 91,67 %
12.05.2016 11:29 19,9 C 67 % 994,9 hPa 0,0 l/m 23,7 km/h (4 Bft) NO 44 1 min 0,000 mm 4,6 UV-I 788 W/m 13,6 C 15,4 C 32,2 km/h (5 Bft) 100,00 %
12.05.2016 11:30 19,9 C 68 % 994,9 hPa 0,0 l/m 23,7 km/h (4 Bft) O-NO 62 1 min 0,000 mm 4,4 UV-I 750 W/m 13,8 C 15,4 C 32,2 km/h (5 Bft) 96,15 %
12.05.2016 11:31 20,0 C 67 % 994,8 hPa 0,0 l/m 28,9 km/h (5 Bft) O-NO 57 1 min 0,000 mm 4,1 UV-I 737 W/m 13,7 C 14,9 C 40,2 km/h (6 Bft) 100,00 %
12.05.2016 11:32 19,9 C 66 % 994,8 hPa 0,0 l/m 31,1 km/h (5 Bft) NO 42 1 min 0,000 mm 4,3 UV-I 737 W/m 13,4 C 14,4 C 40,2 km/h (6 Bft) 96,67 %
12.05.2016 11:33 19,9 C 66 % 994,8 hPa 0,0 l/m 26,6 km/h (4 Bft) O-NO 58 1 min 0,000 mm 4,0 UV-I 735 W/m 13,4 C 15,0 C 33,8 km/h (5 Bft) 100,00 %
12.05.2016 11:34 19,9 C 67 % 994,8 hPa 0,0 l/m 23,7 km/h (4 Bft) N-NO 28 1 min 0,000 mm 4,2 UV-I 735 W/m 13,6 C 15,4 C 33,8 km/h (5 Bft) 100,00 %
12.05.2016 11:35 19,9 C 69 % 994,8 hPa 0,0 l/m 29,8 km/h (5 Bft) NO 45 1 min 0,000 mm 4,7 UV-I 840 W/m 14,0 C 14,6 C 38,6 km/h (5 Bft) 100,00 %
12.05.2016 11:36 19,9 C 68 % 994,8 hPa 0,0 l/m 22,7 km/h (4 Bft) O-NO 74 1 min 0,000 mm 5,1 UV-I 976 W/m 13,8 C 15,6 C 32,2 km/h (5 Bft) 100,00 %
12.05.2016 11:37 20,0 C 68 % 994,8 hPa 0,0 l/m 21,3 km/h (4 Bft) O 89 1 min 0,000 mm 5,1 UV-I 954 W/m 13,9 C 16,0 C 30,6 km/h (5 Bft) 100,00 %
12.05.2016 11:38 20,0 C 67 % 994,8 hPa 0,0 l/m 29,8 km/h (5 Bft) O-NO 74 1 min 0,000 mm 4,4 UV-I 951 W/m 13,7 C 14,7 C 38,6 km/h (5 Bft) 100,00 %
12.05.2016 11:39 20,1 C 66 % 994,8 hPa 0,0 l/m 33,3 km/h (5 Bft) O-NO 73 1 min 0,000 mm 4,6 UV-I 985 W/m 13,5 C 14,5 C 40,2 km/h (6 Bft) 100,00 %
12.05.2016 11:40 20,1 C 67 % 994,8 hPa 0,0 l/m 29,7 km/h (5 Bft) NO 43 1 min 0,000 mm 5,2 UV-I 1014 W/m 13,8 C 14,9 C 40,2 km/h (6 Bft) 97,56 %
12.05.2016 11:41 20,0 C 66 % 994,8 hPa 0,0 l/m 34,1 km/h (5 Bft) O-NO 72 1 min 0,000 mm 4,8 UV-I 990 W/m 13,4 C 14,3 C 40,2 km/h (6 Bft) 96,15 %
12.05.2016 11:42 20,0 C 66 % 994,7 hPa 0,0 l/m 35,7 km/h (5 Bft) O-NO 57 1 min 0,000 mm 4,8 UV-I 990 W/m 13,4 C 14,1 C 43,5 km/h (6 Bft) 100,00 %
12.05.2016 11:43 19,9 C 66 % 994,8 hPa 0,0 l/m 31,6 km/h (5 Bft) NO 55 1 min 0,000 mm 3,8 UV-I 990 W/m 13,4 C 14,4 C 48,3 km/h (6 Bft) 100,00 %
12.05.2016 11:44 19,8 C 67 % 994,7 hPa 0,0 l/m 34,3 km/h (5 Bft) O-NO 75 0 min 0,000 mm 3,9 UV-I 397 W/m 13,5 C 14,0 C 45,1 km/h (6 Bft) 100,00 %
12.05.2016 11:45 19,8 C 66 % 994,7 hPa 0,0 l/m 28,9 km/h (5 Bft) NO 36 1 min 0,000 mm 4,7 UV-I 455 W/m 13,3 C 14,6 C 35,4 km/h (5 Bft) 100,00 %
12.05.2016 11:46 19,8 C 67 % 994,6 hPa 0,0 l/m 28,4 km/h (4 Bft) O-NO 76 1 min 0,000 mm 5,2 UV-I 766 W/m 13,5 C 14,6 C 32,2 km/h (5 Bft) 100,00 %
12.05.2016 11:47 19,8 C 67 % 994,7 hPa 0,0 l/m 27,6 km/h (4 Bft) NO 40 1 min 0,000 mm 5,2 UV-I 808 W/m 13,5 C 14,7 C 37,0 km/h (5 Bft) 100,00 %
12.05.2016 11:48 19,8 C 68 % 994,6 hPa 0,0 l/m 31,0 km/h (5 Bft) O-NO 61 1 min 0,000 mm 5,0 UV-I 839 W/m 13,7 C 14,3 C 45,1 km/h (6 Bft) 100,00 %
12.05.2016 11:49 19,8 C 67 % 994,6 hPa 0,0 l/m 26,2 km/h (4 Bft) NO 51 1 min 0,000 mm 4,6 UV-I 828 W/m 13,5 C 14,9 C 37,0 km/h (5 Bft) 100,00 %
12.05.2016 11:50 19,8 C 68 % 994,6 hPa 0,0 l/m 28,6 km/h (4 Bft) O-NO 63 1 min 0,000 mm 4,8 UV-I 754 W/m 13,7 C 14,6 C 37,0 km/h (5 Bft) 100,00 %
12.05.2016 11:51 19,9 C 67 % 994,6 hPa 0,0 l/m 32,6 km/h (5 Bft) O-NO 59 1 min 0,000 mm 5,2 UV-I 803 W/m 13,6 C 14,3 C 38,6 km/h (5 Bft) 100,00 %
12.05.2016 11:52 19,9 C 67 % 994,6 hPa 0,0 l/m 27,9 km/h (4 Bft) NO 44 1 min 0,000 mm 5,2 UV-I 896 W/m 13,6 C 14,8 C 35,4 km/h (5 Bft) 95,65 %
12.05.2016 11:53 19,9 C 68 % 994,6 hPa 0,0 l/m 28,1 km/h (4 Bft) O-NO 65 1 min 0,000 mm 5,2 UV-I 877 W/m 13,8 C 14,8 C 37,0 km/h (5 Bft) 100,00 %
12.05.2016 11:54 19,9 C 66 % 994,7 hPa 0,0 l/m 35,8 km/h (5 Bft) NO 43 1 min 0,000 mm 4,7 UV-I 865 W/m 13,4 C 13,9 C 45,1 km/h (6 Bft) 96,55 %
12.05.2016 11:55 19,9 C 67 % 994,6 hPa 0,0 l/m 24,3 km/h (4 Bft) O-NO 69 1 min 0,000 mm 3,3 UV-I 865 W/m 13,6 C 15,4 C 30,6 km/h (5 Bft) 100,00 %
12.05.2016 11:56 19,9 C 67 % 994,6 hPa 0,0 l/m 35,7 km/h (5 Bft) NO 51 1 min 0,000 mm 3,6 UV-I 865 W/m 13,6 C 14,0 C 46,7 km/h (6 Bft) 100,00 %
12.05.2016 11:57 19,9 C 67 % 994,6 hPa 0,0 l/m 32,3 km/h (5 Bft) O-NO 66 1 min 0,000 mm 3,8 UV-I 716 W/m 13,6 C 14,3 C 45,1 km/h (6 Bft) 100,00 %
12.05.2016 11:58 19,8 C 67 % 994,7 hPa 0,0 l/m 36,4 km/h (5 Bft) O-NO 71 1 min 0,000 mm 4,1 UV-I 577 W/m 13,5 C 13,7 C 45,1 km/h (6 Bft) 100,00 %
12.05.2016 11:59 19,8 C 67 % 994,6 hPa 0,0 l/m 30,7 km/h (5 Bft) O 92 1 min 0,000 mm 4,3 UV-I 640 W/m 13,5 C 14,4 C 38,6 km/h (5 Bft) 100,00 %
12.05.2016 12:00 19,7 C 68 % 994,6 hPa 0,0 l/m 24,4 km/h (4 Bft) O-NO 62 1 min 0,000 mm 4,4 UV-I 712 W/m 13,6 C 15,1 C 35,4 km/h (5 Bft) 100,00 %
12.05.2016 12:01 19,7 C 67 % 994,7 hPa 0,0 l/m 28,1 km/h (4 Bft) N-NO 30 1 min 0,558 mm 4,5 UV-I 692 W/m 13,4 C 14,5 C 38,6 km/h (5 Bft) 94,44 %
12.05.2016 12:02 19,7 C 68 % 994,6 hPa 0,0 l/m 28,1 km/h (4 Bft) O-NO 63 1 min 0,000 mm 4,7 UV-I 702 W/m 13,6 C 14,5 C 35,4 km/h (5 Bft) 100,00 %
12.05.2016 12:03 19,7 C 67 % 994,7 hPa 0,0 l/m 31,6 km/h (5 Bft) O-NO 71 1 min 0,000 mm 4,9 UV-I 780 W/m 13,4 C 14,1 C 46,7 km/h (6 Bft) 100,00 %
12.05.2016 12:04 19,7 C 66 % 994,6 hPa 0,0 l/m 37,2 km/h (5 Bft) O 82 1 min 0,000 mm 4,9 UV-I 776 W/m 13,2 C 13,5 C 43,5 km/h (6 Bft) 100,00 %
12.05.2016 12:05 19,7 C 66 % 994,6 hPa 0,0 l/m 31,4 km/h (5 Bft) O-NO 61 1 min 0,000 mm 4,9 UV-I 742 W/m 13,2 C 14,1 C 45,1 km/h (6 Bft) 100,00 %
12.05.2016 12:06 19,7 C 66 % 994,6 hPa 0,0 l/m 28,0 km/h (4 Bft) O-NO 71 1 min 0,000 mm 4,6 UV-I 692 W/m 13,2 C 14,6 C 40,2 km/h (6 Bft) 95,65 %
12.05.2016 12:07 19,7 C 67 % 994,6 hPa 0,0 l/m 28,0 km/h (4 Bft) O 84 1 min 0,000 mm 4,7 UV-I 713 W/m 13,4 C 14,6 C 33,8 km/h (5 Bft) 96,30 %
12.05.2016 12:08 19,7 C 67 % 994,6 hPa 0,0 l/m 23,6 km/h (4 Bft) NO 54 1 min 0,000 mm 4,6 UV-I 692 W/m 13,4 C 15,2 C 29,0 km/h (5 Bft) 95,65 %
12.05.2016 12:09 19,8 C 68 % 994,6 hPa 0,0 l/m 23,8 km/h (4 Bft) O-NO 60 1 min 0,000 mm 4,7 UV-I 682 W/m 13,7 C 15,3 C 33,8 km/h (5 Bft) 100,00 %
12.05.2016 12:10 19,8 C 68 % 994,6 hPa 0,0 l/m 35,2 km/h (5 Bft) O-NO 73 1 min 0,000 mm 4,8 UV-I 645 W/m 13,7 C 13,9 C 45,1 km/h (6 Bft) 100,00 %
12.05.2016 12:11 19,8 C 68 % 994,5 hPa 0,0 l/m 30,7 km/h (5 Bft) O-NO 74 1 min 0,000 mm 5,0 UV-I 767 W/m 13,7 C 14,4 C 41,8 km/h (6 Bft) 100,00 %
12.05.2016 12:12 19,9 C 68 % 994,6 hPa 0,0 l/m 28,2 km/h (4 Bft) NO 51 1 min 0,000 mm 5,2 UV-I 840 W/m 13,8 C 14,8 C 37,0 km/h (5 Bft) 100,00 %
12.05.2016 12:13 19,9 C 67 % 994,5 hPa 0,0 l/m 28,5 km/h (4 Bft) O-NO 65 1 min 0,000 mm 5,3 UV-I 849 W/m 13,6 C 14,8 C 40,2 km/h (6 Bft) 95,65 %
12.05.2016 12:14 20,0 C 68 % 994,6 hPa 0,0 l/m 26,7 km/h (4 Bft) O-NO 59 1 min 0,000 mm 5,5 UV-I 926 W/m 13,9 C 15,1 C 32,2 km/h (5 Bft) 100,00 %
12.05.2016 12:15 20,1 C 68 % 994,5 hPa 0,0 l/m 28,3 km/h (4 Bft) O-NO 65 1 min 0,000 mm 5,6 UV-I 940 W/m 14,0 C 15,1 C 35,4 km/h (5 Bft) 100,00 %
12.05.2016 12:16 20,1 C 67 % 994,5 hPa 0,0 l/m 25,2 km/h (4 Bft) O-NO 65 1 min 0,000 mm 5,6 UV-I 934 W/m 13,8 C 15,5 C 35,4 km/h (5 Bft) 100,00 %
12.05.2016 12:17 20,2 C 68 % 994,6 hPa 0,0 l/m 26,2 km/h (4 Bft) O 84 1 min 0,000 mm 5,6 UV-I 940 W/m 14,1 C 15,5 C 35,4 km/h (5 Bft) 100,00 %
12.05.2016 12:18 20,3 C 66 % 994,6 hPa 0,0 l/m 28,8 km/h (4 Bft) O-NO 65 1 min 0,000 mm 5,7 UV-I 961 W/m 13,7 C 15,3 C 41,8 km/h (6 Bft) 95,83 %
12.05.2016 12:19 20,3 C 67 % 994,6 hPa 0,0 l/m 32,5 km/h (5 Bft) O-NO 71 1 min 0,000 mm 5,7 UV-I 969 W/m 14,0 C 14,9 C 41,8 km/h (6 Bft) 100,00 %
12.05.2016 12:20 20,4 C 67 % 994,6 hPa 0,0 l/m 34,0 km/h (5 Bft) O-NO 61 1 min 0,000 mm 5,7 UV-I 960 W/m 14,1 C 14,9 C 40,2 km/h (6 Bft) 100,00 %
12.05.2016 12:21 20,4 C 65 % 994,6 hPa 0,0 l/m 29,3 km/h (5 Bft) O-NO 62 1 min 0,000 mm 5,6 UV-I 931 W/m 13,6 C 15,4 C 35,4 km/h (5 Bft) 100,00 %
12.05.2016 12:22 20,4 C 66 % 994,5 hPa 0,0 l/m 27,6 km/h (4 Bft) NO 47 1 min 0,000 mm 5,6 UV-I 940 W/m 13,8 C 15,6 C 40,2 km/h (6 Bft) 100,00 %
12.05.2016 12:23 20,4 C 67 % 994,5 hPa 0,0 l/m 28,6 km/h (4 Bft) O 86 1 min 0,000 mm 5,7 UV-I 948 W/m 14,1 C 15,4 C 40,2 km/h (6 Bft) 100,00 %
12.05.2016 12:24 20,4 C 65 % 994,5 hPa 0,0 l/m 31,2 km/h (5 Bft) NO 56 1 min 0,000 mm 5,7 UV-I 930 W/m 13,6 C 15,1 C 40,2 km/h (6 Bft) 100,00 %
12.05.2016 12:25 20,4 C 65 % 994,5 hPa 0,0 l/m 35,3 km/h (5 Bft) NO 52 1 min 0,000 mm 5,7 UV-I 948 W/m 13,6 C 14,7 C 46,7 km/h (6 Bft) 95,65 %
12.05.2016 12:26 20,4 C 64 % 994,5 hPa 0,0 l/m 32,2 km/h (5 Bft) O-NO 69 1 min 0,000 mm 5,8 UV-I 949 W/m 13,4 C 15,0 C 40,2 km/h (6 Bft) 100,00 %
12.05.2016 12:27 20,4 C 65 % 994,5 hPa 0,0 l/m 32,8 km/h (5 Bft) O 79 1 min 0,000 mm 5,7 UV-I 942 W/m 13,6 C 15,0 C 45,1 km/h (6 Bft) 100,00 %
12.05.2016 12:28 20,4 C 66 % 994,5 hPa 0,0 l/m 29,0 km/h (5 Bft) NO 53 1 min 0,000 mm 5,7 UV-I 950 W/m 13,8 C 15,4 C 33,8 km/h (5 Bft) 100,00 %
12.05.2016 12:29 20,4 C 65 % 994,4 hPa 0,0 l/m 28,2 km/h (4 Bft) NO 51 1 min 0,000 mm 5,7 UV-I 947 W/m 13,6 C 15,5 C 38,6 km/h (5 Bft) 100,00 %
12.05.2016 12:30 20,4 C 65 % 994,4 hPa 0,0 l/m 31,6 km/h (5 Bft) O-NO 71 1 min 0,000 mm 5,7 UV-I 938 W/m 13,6 C 15,1 C 41,8 km/h (6 Bft) 100,00 %
12.05.2016 12:31 20,4 C 66 % 994,4 hPa 0,0 l/m 37,2 km/h (5 Bft) NO 53 1 min 0,000 mm 5,7 UV-I 933 W/m 13,8 C 14,6 C 48,3 km/h (6 Bft) 100,00 %
12.05.2016 12:32 20,5 C 65 % 994,3 hPa 0,0 l/m 30,9 km/h (5 Bft) O-NO 61 1 min 0,000 mm 5,7 UV-I 933 W/m 13,7 C 15,3 C 41,8 km/h (6 Bft) 100,00 %
12.05.2016 12:33 20,5 C 65 % 994,4 hPa 0,0 l/m 29,5 km/h (5 Bft) NO 52 1 min 0,000 mm 5,7 UV-I 929 W/m 13,7 C 15,5 C 40,2 km/h (6 Bft) 100,00 %
12.05.2016 12:34 20,6 C 68 % 994,3 hPa 0,0 l/m 25,7 km/h (4 Bft) NO 40 1 min 0,000 mm 5,8 UV-I 931 W/m 14,5 C 16,1 C 40,2 km/h (6 Bft) 100,00 %
12.05.2016 12:35 20,7 C 69 % 994,3 hPa 0,0 l/m 28,4 km/h (4 Bft) NO 42 1 min 0,000 mm 5,9 UV-I 947 W/m 14,8 C 15,9 C 41,8 km/h (6 Bft) 100,00 %
12.05.2016 12:36 20,7 C 66 % 994,4 hPa 0,0 l/m 25,0 km/h (4 Bft) O-NO 60 1 min 0,000 mm 5,8 UV-I 949 W/m 14,1 C 16,3 C 32,2 km/h (5 Bft) 100,00 %
12.05.2016 12:37 20,8 C 65 % 994,3 hPa 0,0 l/m 29,0 km/h (5 Bft) NO 36 1 min 0,000 mm 5,8 UV-I 908 W/m 14,0 C 16,0 C 40,2 km/h (6 Bft) 100,00 %
12.05.2016 12:38 20,8 C 64 % 994,3 hPa 0,0 l/m 27,6 km/h (4 Bft) NO 42 1 min 0,000 mm 5,8 UV-I 970 W/m 13,7 C 16,1 C 35,4 km/h (5 Bft) 100,00 %
12.05.2016 12:39 20,8 C 65 % 994,3 hPa 0,0 l/m 27,2 km/h (4 Bft) O-NO 59 1 min 0,000 mm 5,9 UV-I 1004 W/m 14,0 C 16,2 C 41,8 km/h (6 Bft) 100,00 %
12.05.2016 12:40 20,8 C 65 % 994,3 hPa 0,0 l/m 33,9 km/h (5 Bft) O-NO 57 1 min 0,000 mm 6,0 UV-I 1014 W/m 14,0 C 15,4 C 43,5 km/h (6 Bft) 100,00 %
12.05.2016 12:41 20,8 C 64 % 994,3 hPa 0,0 l/m 33,6 km/h (5 Bft) O-NO 64 1 min 0,000 mm 6,0 UV-I 1020 W/m 13,7 C 15,5 C 45,1 km/h (6 Bft) 100,00 %
12.05.2016 12:42 20,8 C 63 % 994,3 hPa 0,0 l/m 31,5 km/h (5 Bft) O-NO 67 1 min 0,000 mm 6,0 UV-I 988 W/m 13,5 C 15,7 C 45,1 km/h (6 Bft) 100,00 %
12.05.2016 12:43 20,8 C 63 % 994,3 hPa 0,0 l/m 29,0 km/h (5 Bft) O-NO 65 1 min 0,000 mm 5,9 UV-I 998 W/m 13,5 C 16,0 C 38,6 km/h (5 Bft) 100,00 %
12.05.2016 12:44 20,8 C 64 % 994,3 hPa 0,0 l/m 37,3 km/h (5 Bft) N-NO 31 1 min 0,000 mm 6,0 UV-I 988 W/m 13,7 C 15,1 C 51,5 km/h (7 Bft) 100,00 %
12.05.2016 12:45 20,8 C 63 % 994,3 hPa 0,0 l/m 30,7 km/h (5 Bft) NO 38 1 min 0,000 mm 5,9 UV-I 973 W/m 13,5 C 15,8 C 37,0 km/h (5 Bft) 100,00 %
12.05.2016 12:46 20,8 C 64 % 994,2 hPa 0,0 l/m 32,2 km/h (5 Bft) O-NO 59 1 min 0,000 mm 6,0 UV-I 1028 W/m 13,7 C 15,6 C 45,1 km/h (6 Bft) 100,00 %
12.05.2016 12:47 20,8 C 64 % 994,2 hPa 0,0 l/m 31,1 km/h (5 Bft) O-NO 63 1 min 0,000 mm 6,1 UV-I 1041 W/m 13,7 C 15,7 C 41,8 km/h (6 Bft) 100,00 %
12.05.2016 12:48 20,8 C 64 % 994,3 hPa 0,0 l/m 36,7 km/h (5 Bft) O-NO 63 1 min 0,000 mm 5,9 UV-I 1015 W/m 13,7 C 15,2 C 49,9 km/h (6 Bft) 100,00 %
12.05.2016 12:49 20,8 C 63 % 994,2 hPa 0,0 l/m 32,1 km/h (5 Bft) NO 51 1 min 0,000 mm 5,7 UV-I 1022 W/m 13,5 C 15,6 C 41,8 km/h (6 Bft) 100,00 %
12.05.2016 12:50 20,8 C 64 % 994,2 hPa 0,0 l/m 37,8 km/h (5 Bft) O-NO 72 1 min 0,000 mm 4,9 UV-I 1005 W/m 13,7 C 15,1 C 46,7 km/h (6 Bft) 100,00 %
12.05.2016 12:51 20,7 C 63 % 994,2 hPa 0,0 l/m 36,0 km/h (5 Bft) O-NO 74 1 min 0,000 mm 3,4 UV-I 710 W/m 13,4 C 15,1 C 46,7 km/h (6 Bft) 100,00 %
12.05.2016 12:52 20,6 C 63 % 994,3 hPa 0,0 l/m 27,5 km/h (4 Bft) O-NO 66 0 min 0,000 mm 3,3 UV-I 354 W/m 13,3 C 15,9 C 37,0 km/h (5 Bft) 93,33 %
12.05.2016 12:53 20,5 C 64 % 994,3 hPa 0,0 l/m 26,7 km/h (4 Bft) O-NO 69 0 min 0,000 mm 2,8 UV-I 311 W/m 13,5 C 15,8 C 43,5 km/h (6 Bft) 100,00 %
12.05.2016 12:54 20,3 C 64 % 994,3 hPa 0,0 l/m 36,3 km/h (5 Bft) O-NO 61 0 min 0,000 mm 2,8 UV-I 301 W/m 13,3 C 14,5 C 48,3 km/h (6 Bft) 96,67 %
12.05.2016 12:55 20,2 C 65 % 994,2 hPa 0,0 l/m 25,7 km/h (4 Bft) O 86 0 min 0,000 mm 2,8 UV-I 304 W/m 13,4 C 15,6 C 33,8 km/h (5 Bft) 100,00 %
12.05.2016 12:56 20,1 C 65 % 994,3 hPa 0,0 l/m 33,0 km/h (5 Bft) O-NO 64 0 min 0,000 mm 3,0 UV-I 328 W/m 13,3 C 14,5 C 45,1 km/h (6 Bft) 96,30 %
12.05.2016 12:57 20,0 C 65 % 994,3 hPa 0,0 l/m 33,6 km/h (5 Bft) O-NO 61 0 min 0,000 mm 3,4 UV-I 380 W/m 13,2 C 14,3 C 46,7 km/h (6 Bft) 100,00 %
12.05.2016 12:58 19,9 C 66 % 994,2 hPa 0,0 l/m 27,4 km/h (4 Bft) NO 55 0 min 0,000 mm 3,3 UV-I 380 W/m 13,4 C 14,9 C 37,0 km/h (5 Bft) 96,30 %
12.05.2016 12:59 19,9 C 67 % 994,2 hPa 0,0 l/m 28,4 km/h (4 Bft) O-NO 58 0 min 0,000 mm 3,1 UV-I 325 W/m 13,6 C 14,8 C 37,0 km/h (5 Bft) 90,91 %
12.05.2016 13:00 19,8 C 67 % 994,2 hPa 0,0 l/m 24,1 km/h (4 Bft) N-NO 26 0 min 0,610 mm 2,7 UV-I 301 W/m 13,5 C 15,2 C 32,2 km/h (5 Bft) 96,67 %
12.05.2016 13:01 19,8 C 67 % 994,2 hPa 0,0 l/m 35,0 km/h (5 Bft) NO 40 0 min 0,000 mm 2,6 UV-I 300 W/m 13,5 C 13,9 C 45,1 km/h (6 Bft) 95,65 %
12.05.2016 13:02 19,7 C 68 % 994,1 hPa 0,0 l/m 31,5 km/h (5 Bft) NO 55 0 min 0,000 mm 2,5 UV-I 303 W/m 13,6 C 14,1 C 40,2 km/h (6 Bft) 95,83 %
12.05.2016 13:03 19,6 C 68 % 994,1 hPa 0,0 l/m 23,7 km/h (4 Bft) O-NO 57 0 min 0,000 mm 2,6 UV-I 307 W/m 13,5 C 15,0 C 33,8 km/h (5 Bft) 96,15 %
12.05.2016 13:04 19,6 C 68 % 994,1 hPa 0,0 l/m 23,4 km/h (4 Bft) O-NO 65 0 min 0,000 mm 2,5 UV-I 309 W/m 13,5 C 15,1 C 33,8 km/h (5 Bft) 100,00 %
12.05.2016 13:05 19,6 C 68 % 994,2 hPa 0,0 l/m 27,9 km/h (4 Bft) O-NO 77 0 min 0,000 mm 2,5 UV-I 309 W/m 13,5 C 14,4 C 38,6 km/h (5 Bft) 91,30 %
12.05.2016 13:06 19,6 C 68 % 994,1 hPa 0,0 l/m 30,7 km/h (5 Bft) NO 49 0 min 0,000 mm 2,5 UV-I 314 W/m 13,5 C 14,1 C 43,5 km/h (6 Bft) 96,30 %
12.05.2016 13:07 19,5 C 68 % 994,2 hPa 0,0 l/m 34,9 km/h (5 Bft) O-NO 58 0 min 0,000 mm 2,5 UV-I 318 W/m 13,4 C 13,5 C 45,1 km/h (6 Bft) 100,00 %
12.05.2016 13:08 19,4 C 68 % 994,2 hPa 0,0 l/m 36,5 km/h (5 Bft) O-NO 61 0 min 0,000 mm 2,5 UV-I 328 W/m 13,3 C 13,2 C 48,3 km/h (6 Bft) 96,55 %
12.05.2016 13:09 19,4 C 68 % 994,2 hPa 0,0 l/m 37,4 km/h (5 Bft) O-NO 57 0 min 0,000 mm 2,6 UV-I 339 W/m 13,3 C 13,1 C 45,1 km/h (6 Bft) 100,00 %
12.05.2016 13:10 19,3 C 68 % 994,1 hPa 0,0 l/m 30,1 km/h (5 Bft) NO 41 0 min 0,000 mm 2,6 UV-I 350 W/m 13,2 C 13,7 C 38,6 km/h (5 Bft) 96,55 %
12.05.2016 13:11 19,3 C 69 % 994,2 hPa 0,0 l/m 28,0 km/h (4 Bft) O-NO 78 0 min 0,000 mm 2,7 UV-I 362 W/m 13,5 C 14,0 C 37,0 km/h (5 Bft) 96,30 %
12.05.2016 13:12 19,3 C 69 % 994,1 hPa 0,0 l/m 28,6 km/h (4 Bft) NO 48 0 min 0,000 mm 2,8 UV-I 382 W/m 13,5 C 13,9 C 43,5 km/h (6 Bft) 92,86 %
12.05.2016 13:13 19,3 C 69 % 994,1 hPa 0,0 l/m 34,9 km/h (5 Bft) O-NO 58 0 min 0,000 mm 2,8 UV-I 395 W/m 13,5 C 13,2 C 46,7 km/h (6 Bft) 100,00 %
12.05.2016 13:14 19,3 C 69 % 994,1 hPa 0,0 l/m 34,1 km/h (5 Bft) O-NO 59 0 min 0,000 mm 2,9 UV-I 403 W/m 13,5 C 13,3 C 45,1 km/h (6 Bft) 96,15 %
12.05.2016 13:15 19,2 C 69 % 994,0 hPa 0,0 l/m 31,1 km/h (5 Bft) NO 45 0 min 0,000 mm 2,9 UV-I 402 W/m 13,4 C 13,5 C 40,2 km/h (6 Bft) 96,30 %
12.05.2016 13:16 19,2 C 70 % 994,0 hPa 0,0 l/m 28,8 km/h (4 Bft) O-NO 65 0 min 0,000 mm 2,9 UV-I 404 W/m 13,6 C 13,8 C 40,2 km/h (6 Bft) 100,00 %
12.05.2016 13:17 19,2 C 70 % 994,0 hPa 0,0 l/m 33,9 km/h (5 Bft) NO 50 0 min 0,000 mm 3,0 UV-I 408 W/m 13,6 C 13,1 C 45,1 km/h (6 Bft) 95,83 %
12.05.2016 13:18 19,2 C 69 % 993,9 hPa 0,0 l/m 30,6 km/h (5 Bft) NO 47 0 min 0,000 mm 3,1 UV-I 417 W/m 13,4 C 13,5 C 57,9 km/h (7 Bft) 100,00 %
12.05.2016 13:19 19,2 C 70 % 993,9 hPa 0,0 l/m 38,8 km/h (5 Bft) NO 34 0 min 0,000 mm 3,1 UV-I 425 W/m 13,6 C 12,6 C 46,7 km/h (6 Bft) 96,30 %
12.05.2016 13:20 19,3 C 69 % 993,9 hPa 0,0 l/m 33,4 km/h (5 Bft) NO 47 0 min 0,000 mm 3,2 UV-I 434 W/m 13,5 C 13,3 C 43,5 km/h (6 Bft) 100,00 %
12.05.2016 13:21 19,2 C 69 % 993,9 hPa 0,0 l/m 36,6 km/h (5 Bft) O-NO 59 0 min 0,000 mm 3,3 UV-I 442 W/m 13,4 C 12,9 C 43,5 km/h (6 Bft) 96,55 %
12.05.2016 13:22 19,2 C 70 % 993,9 hPa 0,0 l/m 37,0 km/h (5 Bft) O 89 1 min 0,000 mm 3,6 UV-I 485 W/m 13,6 C 12,8 C 53,1 km/h (7 Bft) 100,00 %
12.05.2016 13:23 19,3 C 69 % 993,9 hPa 0,0 l/m 34,8 km/h (5 Bft) NO 51 1 min 0,000 mm 4,4 UV-I 496 W/m 13,5 C 13,2 C 46,7 km/h (6 Bft) 96,67 %
12.05.2016 13:24 19,3 C 69 % 993,9 hPa 0,0 l/m 35,8 km/h (5 Bft) NO 55 1 min 0,000 mm 4,8 UV-I 597 W/m 13,5 C 13,1 C 48,3 km/h (6 Bft) 100,00 %
12.05.2016 13:25 19,4 C 69 % 993,8 hPa 0,0 l/m 36,1 km/h (5 Bft) O-NO 59 1 min 0,000 mm 5,4 UV-I 942 W/m 13,6 C 13,2 C 45,1 km/h (6 Bft) 100,00 %
12.05.2016 13:26 19,5 C 69 % 993,8 hPa 0,0 l/m 34,7 km/h (5 Bft) O-NO 73 1 min 0,000 mm 5,1 UV-I 852 W/m 13,7 C 13,5 C 46,7 km/h (6 Bft) 96,30 %
12.05.2016 13:27 19,6 C 69 % 993,8 hPa 0,0 l/m 30,2 km/h (5 Bft) O-NO 61 1 min 0,000 mm 5,0 UV-I 816 W/m 13,8 C 14,1 C 38,6 km/h (5 Bft) 100,00 %
12.05.2016 13:28 19,7 C 68 % 993,9 hPa 0,0 l/m 38,4 km/h (5 Bft) O-NO 67 1 min 0,000 mm 5,1 UV-I 834 W/m 13,6 C 13,4 C 45,1 km/h (6 Bft) 96,67 %
12.05.2016 13:29 19,7 C 68 % 993,8 hPa 0,0 l/m 32,5 km/h (5 Bft) O 82 1 min 0,000 mm 5,1 UV-I 849 W/m 13,6 C 14,0 C 43,5 km/h (6 Bft) 100,00 %
12.05.2016 13:30 19,8 C 68 % 993,8 hPa 0,0 l/m 34,7 km/h (5 Bft) NO 42 1 min 0,000 mm 4,9 UV-I 841 W/m 13,7 C 13,9 C 45,1 km/h (6 Bft) 100,00 %
12.05.2016 13:31 19,8 C 68 % 993,8 hPa 0,0 l/m 31,2 km/h (5 Bft) O-NO 67 1 min 0,000 mm 4,9 UV-I 891 W/m 13,7 C 14,3 C 40,2 km/h (6 Bft) 100,00 %
12.05.2016 13:32 19,8 C 68 % 993,8 hPa 0,0 l/m 24,5 km/h (4 Bft) O-NO 61 1 min 0,000 mm 3,8 UV-I 891 W/m 13,7 C 15,2 C 29,0 km/h (5 Bft) 96,30 %
12.05.2016 13:33 19,8 C 69 % 993,8 hPa 0,0 l/m 28,3 km/h (4 Bft) NO 36 1 min 0,000 mm 3,8 UV-I 644 W/m 13,9 C 14,7 C 46,7 km/h (6 Bft) 100,00 %
12.05.2016 13:34 19,9 C 69 % 993,8 hPa 0,0 l/m 24,9 km/h (4 Bft) NO 38 1 min 0,000 mm 4,9 UV-I 480 W/m 14,0 C 15,3 C 37,0 km/h (5 Bft) 100,00 %
12.05.2016 13:35 20,0 C 70 % 993,8 hPa 0,0 l/m 32,4 km/h (5 Bft) NO 53 1 min 0,000 mm 5,6 UV-I 1014 W/m 14,4 C 14,4 C 45,1 km/h (6 Bft) 96,15 %
12.05.2016 13:36 20,0 C 68 % 993,9 hPa 0,0 l/m 29,9 km/h (5 Bft) NO 56 1 min 0,000 mm 5,6 UV-I 1019 W/m 13,9 C 14,7 C 41,8 km/h (6 Bft) 100,00 %
12.05.2016 13:37 20,0 C 68 % 993,8 hPa 0,0 l/m 39,2 km/h (6 Bft) O-NO 72 1 min 0,000 mm 5,8 UV-I 1020 W/m 13,9 C 13,8 C 49,9 km/h (6 Bft) 100,00 %
12.05.2016 13:38 19,9 C 68 % 993,8 hPa 0,0 l/m 27,0 km/h (4 Bft) NO 49 1 min 0,000 mm 5,7 UV-I 951 W/m 13,8 C 15,0 C 38,6 km/h (5 Bft) 100,00 %
12.05.2016 13:39 20,0 C 69 % 993,7 hPa 0,0 l/m 27,0 km/h (4 Bft) NO 49 1 min 0,000 mm 5,7 UV-I 928 W/m 14,1 C 15,1 C 37,0 km/h (5 Bft) 100,00 %
12.05.2016 13:40 20,0 C 69 % 993,7 hPa 0,0 l/m 30,1 km/h (5 Bft) NO 43 1 min 0,000 mm 4,6 UV-I 928 W/m 14,1 C 14,7 C 38,6 km/h (5 Bft) 100,00 %
12.05.2016 13:41 20,0 C 69 % 993,7 hPa 0,0 l/m 26,6 km/h (4 Bft) NO 39 1 min 0,000 mm 4,6 UV-I 707 W/m 14,1 C 15,2 C 41,8 km/h (6 Bft) 100,00 %
12.05.2016 13:42 20,1 C 70 % 993,6 hPa 0,0 l/m 33,5 km/h (5 Bft) N-NO 24 1 min 0,000 mm 4,7 UV-I 728 W/m 14,5 C 14,5 C 49,9 km/h (6 Bft) 95,83 %
12.05.2016 13:43 19,9 C 69 % 993,5 hPa 0,0 l/m 31,0 km/h (5 Bft) O-NO 74 1 min 0,000 mm 4,9 UV-I 728 W/m 14,0 C 14,5 C 45,1 km/h (6 Bft) 100,00 %
12.05.2016 13:44 19,9 C 70 % 993,6 hPa 0,0 l/m 27,0 km/h (4 Bft) NO 39 1 min 0,000 mm 5,9 UV-I 728 W/m 14,3 C 15,0 C 41,8 km/h (6 Bft) 86,67 %
12.05.2016 13:45 20,0 C 68 % 993,5 hPa 0,0 l/m 35,9 km/h (5 Bft) NO 53 1 min 0,000 mm 5,9 UV-I 1054 W/m 13,9 C 14,1 C 48,3 km/h (6 Bft) 100,00 %
12.05.2016 13:46 19,9 C 68 % 993,5 hPa 0,0 l/m 42,4 km/h (6 Bft) O-NO 63 1 min 0,000 mm 5,8 UV-I 1076 W/m 13,8 C 13,4 C 54,7 km/h (7 Bft) 100,00 %
12.05.2016 13:47 19,9 C 68 % 993,5 hPa 0,0 l/m 36,2 km/h (5 Bft) O-NO 67 1 min 0,000 mm 5,8 UV-I 1069 W/m 13,8 C 13,9 C 45,1 km/h (6 Bft) 100,00 %
12.05.2016 13:48 19,9 C 68 % 993,6 hPa 0,0 l/m 30,7 km/h (5 Bft) O-NO 65 1 min 0,000 mm 5,7 UV-I 1067 W/m 13,8 C 14,5 C 37,0 km/h (5 Bft) 100,00 %
12.05.2016 13:49 19,8 C 68 % 993,5 hPa 0,0 l/m 33,7 km/h (5 Bft) O-NO 61 1 min 0,000 mm 5,7 UV-I 1059 W/m 13,7 C 14,0 C 40,2 km/h (6 Bft) 100,00 %
12.05.2016 13:50 19,8 C 70 % 993,5 hPa 0,0 l/m 37,0 km/h (5 Bft) O-NO 71 1 min 0,000 mm 5,7 UV-I 1070 W/m 14,2 C 13,7 C 49,9 km/h (6 Bft) 95,83 %
12.05.2016 13:51 19,8 C 68 % 993,5 hPa 0,0 l/m 33,0 km/h (5 Bft) NO 44 1 min 0,000 mm 5,7 UV-I 1076 W/m 13,7 C 14,1 C 41,8 km/h (6 Bft) 100,00 %
12.05.2016 13:52 19,8 C 68 % 993,5 hPa 0,0 l/m 34,2 km/h (5 Bft) NO 34 1 min 0,000 mm 5,7 UV-I 1005 W/m 13,7 C 14,0 C 43,5 km/h (6 Bft) 100,00 %
12.05.2016 13:53 19,8 C 69 % 993,5 hPa 0,0 l/m 26,6 km/h (4 Bft) N-NO 23 1 min 0,000 mm 5,8 UV-I 1067 W/m 13,9 C 14,9 C 35,4 km/h (5 Bft) 100,00 %
12.05.2016 13:54 19,9 C 69 % 993,4 hPa 0,0 l/m 34,4 km/h (5 Bft) N-NO 27 1 min 0,000 mm 5,8 UV-I 1066 W/m 14,0 C 14,1 C 45,1 km/h (6 Bft) 100,00 %
12.05.2016 13:55 19,9 C 69 % 993,4 hPa 0,0 l/m 34,5 km/h (5 Bft) NO 53 1 min 0,000 mm 5,8 UV-I 1063 W/m 14,0 C 14,1 C 41,8 km/h (6 Bft) 100,00 %
12.05.2016 13:56 19,9 C 69 % 993,4 hPa 0,0 l/m 34,6 km/h (5 Bft) O-NO 63 1 min 0,000 mm 5,8 UV-I 1053 W/m 14,0 C 14,1 C 46,7 km/h (6 Bft) 100,00 %
12.05.2016 13:57 19,9 C 68 % 993,4 hPa 0,0 l/m 41,4 km/h (6 Bft) NO 36 1 min 0,000 mm 5,7 UV-I 1034 W/m 13,8 C 13,5 C 53,1 km/h (7 Bft) 96,67 %
12.05.2016 13:58 19,9 C 68 % 993,4 hPa 0,0 l/m 29,7 km/h (5 Bft) NO 49 1 min 0,000 mm 5,5 UV-I 976 W/m 13,8 C 14,6 C 40,2 km/h (6 Bft) 100,00 %
12.05.2016 13:59 19,9 C 69 % 993,4 hPa 0,0 l/m 30,0 km/h (5 Bft) O-NO 59 1 min 0,000 mm 5,4 UV-I 974 W/m 14,0 C 14,6 C 45,1 km/h (6 Bft) 100,00 %
12.05.2016 14:00 19,9 C 69 % 993,4 hPa 0,0 l/m 26,3 km/h (4 Bft) NO 48 1 min 0,000 mm 5,3 UV-I 932 W/m 14,0 C 15,1 C 35,4 km/h (5 Bft) 92,86 %
12.05.2016 14:01 20,0 C 69 % 993,4 hPa 0,0 l/m 32,0 km/h (5 Bft) O-NO 65 1 min 0,559 mm 5,3 UV-I 954 W/m 14,1 C 14,5 C 43,5 km/h (6 Bft) 100,00 %
12.05.2016 14:02 20,0 C 68 % 993,3 hPa 0,0 l/m 33,1 km/h (5 Bft) O 84 1 min 0,000 mm 5,4 UV-I 953 W/m 13,9 C 14,4 C 41,8 km/h (6 Bft) 100,00 %
12.05.2016 14:03 20,0 C 69 % 993,4 hPa 0,0 l/m 33,1 km/h (5 Bft) O-NO 61 1 min 0,000 mm 5,2 UV-I 939 W/m 14,1 C 14,4 C 45,1 km/h (6 Bft) 100,00 %
12.05.2016 14:04 19,9 C 68 % 993,3 hPa 0,0 l/m 30,4 km/h (5 Bft) O-NO 59 1 min 0,000 mm 5,2 UV-I 901 W/m 13,8 C 14,5 C 38,6 km/h (5 Bft) 100,00 %
12.05.2016 14:05 19,9 C 68 % 993,2 hPa 0,0 l/m 30,9 km/h (5 Bft) O 82 1 min 0,000 mm 4,9 UV-I 879 W/m 13,8 C 14,5 C 40,2 km/h (6 Bft) 97,37 %
12.05.2016 14:06 19,9 C 70 % 993,3 hPa 0,0 l/m 26,5 km/h (4 Bft) NO 55 1 min 0,000 mm 4,7 UV-I 803 W/m 14,3 C 15,0 C 35,4 km/h (5 Bft) 100,00 %
12.05.2016 14:07 20,0 C 70 % 993,3 hPa 0,0 l/m 20,4 km/h (4 Bft) NO 36 1 min 0,000 mm 4,1 UV-I 768 W/m 14,4 C 16,1 C 30,6 km/h (5 Bft) 100,00 %
12.05.2016 14:08 20,0 C 69 % 993,2 hPa 0,0 l/m 29,1 km/h (5 Bft) NO 38 1 min 0,000 mm 3,5 UV-I 591 W/m 14,1 C 14,8 C 37,0 km/h (5 Bft) 100,00 %
12.05.2016 14:09 20,0 C 69 % 993,2 hPa 0,0 l/m 29,0 km/h (5 Bft) O-NO 74 1 min 0,000 mm 3,3 UV-I 482 W/m 14,1 C 14,8 C 37,0 km/h (5 Bft) 96,15 %
12.05.2016 14:10 19,9 C 69 % 993,3 hPa 0,0 l/m 26,1 km/h (4 Bft) NO 34 1 min 0,000 mm 3,1 UV-I 468 W/m 14,0 C 15,1 C 35,4 km/h (5 Bft) 100,00 %
12.05.2016 14:11 19,8 C 69 % 993,2 hPa 0,0 l/m 26,9 km/h (4 Bft) O-NO 60 0 min 0,000 mm 3,1 UV-I 442 W/m 13,9 C 14,8 C 32,2 km/h (5 Bft) 100,00 %
12.05.2016 14:12 19,8 C 69 % 993,3 hPa 0,0 l/m 26,2 km/h (4 Bft) N-NO 30 0 min 0,000 mm 2,9 UV-I 428 W/m 13,9 C 14,9 C 32,2 km/h (5 Bft) 100,00 %
12.05.2016 14:13 19,7 C 69 % 993,2 hPa 0,0 l/m 30,0 km/h (5 Bft) O-NO 61 0 min 0,000 mm 2,9 UV-I 417 W/m 13,8 C 14,3 C 45,1 km/h (6 Bft) 100,00 %
12.05.2016 14:14 19,6 C 69 % 993,3 hPa 0,0 l/m 31,2 km/h (5 Bft) NO 54 0 min 0,000 mm 2,8 UV-I 406 W/m 13,8 C 14,0 C 38,6 km/h (5 Bft) 100,00 %
12.05.2016 14:15 19,5 C 69 % 993,3 hPa 0,0 l/m 33,7 km/h (5 Bft) O-NO 61 0 min 0,000 mm 2,9 UV-I 409 W/m 13,7 C 13,6 C 45,1 km/h (6 Bft) 90,91 %
12.05.2016 14:16 19,4 C 69 % 993,4 hPa 0,0 l/m 34,3 km/h (5 Bft) NO 47 0 min 0,000 mm 3,0 UV-I 435 W/m 13,6 C 13,4 C 41,8 km/h (6 Bft) 100,00 %
12.05.2016 14:17 19,3 C 69 % 993,2 hPa 0,0 l/m 35,6 km/h (5 Bft) O-NO 58 1 min 0,000 mm 3,1 UV-I 499 W/m 13,5 C 13,1 C 43,5 km/h (6 Bft) 100,00 %
12.05.2016 14:18 19,3 C 69 % 993,3 hPa 0,0 l/m 32,9 km/h (5 Bft) NO 34 1 min 0,000 mm 3,3 UV-I 538 W/m 13,5 C 13,4 C 41,8 km/h (6 Bft) 100,00 %
12.05.2016 14:19 19,3 C 70 % 993,3 hPa 0,0 l/m 31,7 km/h (5 Bft) O-NO 73 1 min 0,000 mm 3,5 UV-I 569 W/m 13,7 C 13,5 C 41,8 km/h (6 Bft) 100,00 %
12.05.2016 14:20 19,3 C 70 % 993,3 hPa 0,0 l/m 25,9 km/h (4 Bft) NO 46 1 min 0,000 mm 1,7 UV-I 578 W/m 13,7 C 14,3 C 40,2 km/h (6 Bft) 94,44 %
12.05.2016 14:21 19,3 C 70 % 993,3 hPa 0,0 l/m 32,9 km/h (5 Bft) NO 54 1 min 0,000 mm 2,6 UV-I 561 W/m 13,7 C 13,4 C 41,8 km/h (6 Bft) 100,00 %
12.05.2016 14:22 19,3 C 69 % 993,3 hPa 0,0 l/m 34,4 km/h (5 Bft) O-NO 69 1 min 0,000 mm 3,4 UV-I 542 W/m 13,5 C 13,2 C 41,8 km/h (6 Bft) 100,00 %
12.05.2016 14:23 19,3 C 70 % 993,2 hPa 0,0 l/m 34,5 km/h (5 Bft) O-NO 78 1 min 0,000 mm 3,6 UV-I 589 W/m 13,7 C 13,2 C 43,5 km/h (6 Bft) 100,00 %
12.05.2016 14:24 19,3 C 70 % 993,3 hPa 0,0 l/m 29,4 km/h (5 Bft) O-NO 62 1 min 0,000 mm 3,9 UV-I 657 W/m 13,7 C 13,8 C 37,0 km/h (5 Bft) 100,00 %
12.05.2016 14:25 19,3 C 71 % 993,3 hPa 0,0 l/m 23,4 km/h (4 Bft) O-NO 59 1 min 0,000 mm 3,7 UV-I 624 W/m 13,9 C 14,7 C 30,6 km/h (5 Bft) 100,00 %
12.05.2016 14:26 19,4 C 71 % 993,3 hPa 0,0 l/m 30,7 km/h (5 Bft) NO 53 1 min 0,000 mm 3,9 UV-I 673 W/m 14,0 C 13,8 C 51,5 km/h (7 Bft) 96,55 %
12.05.2016 14:27 19,4 C 69 % 993,2 hPa 0,0 l/m 34,8 km/h (5 Bft) O-NO 71 1 min 0,000 mm 4,3 UV-I 748 W/m 13,6 C 13,3 C 45,1 km/h (6 Bft) 100,00 %
12.05.2016 14:28 19,4 C 69 % 993,2 hPa 0,0 l/m 34,5 km/h (5 Bft) O-NO 65 1 min 0,000 mm 4,1 UV-I 725 W/m 13,6 C 13,4 C 46,7 km/h (6 Bft) 100,00 %
12.05.2016 14:29 19,4 C 69 % 993,3 hPa 0,0 l/m 34,2 km/h (5 Bft) NO 53 1 min 0,000 mm 4,1 UV-I 699 W/m 13,6 C 13,4 C 45,1 km/h (6 Bft) 100,00 %
12.05.2016 14:30 19,5 C 70 % 993,2 hPa 0,0 l/m 32,4 km/h (5 Bft) O-NO 69 1 min 0,000 mm 3,8 UV-I 646 W/m 13,9 C 13,7 C 41,8 km/h (6 Bft) 100,00 %
12.05.2016 14:31 19,5 C 69 % 993,3 hPa 0,0 l/m 29,5 km/h (5 Bft) NO 52 1 min 0,000 mm 4,0 UV-I 617 W/m 13,7 C 14,1 C 40,2 km/h (6 Bft) 100,00 %
12.05.2016 14:32 19,6 C 70 % 993,2 hPa 0,0 l/m 24,4 km/h (4 Bft) O 89 1 min 0,000 mm 4,1 UV-I 617 W/m 14,0 C 14,9 C 35,4 km/h (5 Bft) 100,00 %
12.05.2016 14:33 19,6 C 70 % 993,2 hPa 0,0 l/m 25,1 km/h (4 Bft) O-NO 60 1 min 0,000 mm 3,9 UV-I 648 W/m 14,0 C 14,8 C 37,0 km/h (5 Bft) 100,00 %
12.05.2016 14:34 19,6 C 70 % 993,2 hPa 0,0 l/m 27,6 km/h (4 Bft) NO 53 1 min 0,000 mm 3,7 UV-I 625 W/m 14,0 C 14,5 C 35,4 km/h (5 Bft) 100,00 %
12.05.2016 14:35 19,7 C 70 % 993,2 hPa 0,0 l/m 34,8 km/h (5 Bft) NO 42 1 min 0,000 mm 3,8 UV-I 652 W/m 14,1 C 13,8 C 45,1 km/h (6 Bft) 100,00 %
12.05.2016 14:36 19,6 C 69 % 993,2 hPa 0,0 l/m 35,9 km/h (5 Bft) O-NO 59 1 min 0,000 mm 3,9 UV-I 659 W/m 13,8 C 13,5 C 48,3 km/h (6 Bft) 100,00 %
12.05.2016 14:37 19,6 C 69 % 993,2 hPa 0,0 l/m 35,5 km/h (5 Bft) O-NO 68 1 min 0,000 mm 3,7 UV-I 621 W/m 13,8 C 13,5 C 43,5 km/h (6 Bft) 100,00 %
12.05.2016 14:38 19,6 C 70 % 993,2 hPa 0,0 l/m 20,1 km/h (4 Bft) O-NO 57 1 min 0,000 mm 3,7 UV-I 620 W/m 14,0 C 15,7 C 30,6 km/h (5 Bft) 100,00 %
12.05.2016 14:39 19,7 C 70 % 993,2 hPa 0,0 l/m 38,2 km/h (5 Bft) O-NO 62 1 min 0,000 mm 3,6 UV-I 610 W/m 14,1 C 13,4 C 45,1 km/h (6 Bft) 100,00 %
12.05.2016 14:40 19,7 C 69 % 993,2 hPa 0,0 l/m 30,4 km/h (5 Bft) O-NO 63 1 min 0,000 mm 3,5 UV-I 572 W/m 13,8 C 14,2 C 38,6 km/h (5 Bft) 100,00 %
12.05.2016 14:41 19,6 C 69 % 993,3 hPa 0,0 l/m 32,7 km/h (5 Bft) O-NO 57 1 min 0,000 mm 3,7 UV-I 606 W/m 13,8 C 13,8 C 48,3 km/h (6 Bft) 100,00 %
12.05.2016 14:42 19,6 C 70 % 993,2 hPa 0,0 l/m 34,1 km/h (5 Bft) O-NO 71 1 min 0,000 mm 3,5 UV-I 549 W/m 14,0 C 13,7 C 51,5 km/h (7 Bft) 100,00 %
12.05.2016 14:43 19,6 C 70 % 993,2 hPa 0,0 l/m 24,2 km/h (4 Bft) O-NO 67 1 min 0,000 mm 3,1 UV-I 536 W/m 14,0 C 15,0 C 32,2 km/h (5 Bft) 96,30 %
12.05.2016 14:44 19,6 C 70 % 993,3 hPa 0,0 l/m 28,6 km/h (4 Bft) O-NO 69 0 min 0,000 mm 2,9 UV-I 432 W/m 14,0 C 14,3 C 37,0 km/h (5 Bft) 100,00 %
12.05.2016 14:45 19,6 C 70 % 993,2 hPa 0,0 l/m 27,7 km/h (4 Bft) O-NO 73 0 min 0,000 mm 3,0 UV-I 436 W/m 14,0 C 14,5 C 38,6 km/h (5 Bft) 95,83 %
12.05.2016 14:46 19,6 C 70 % 993,3 hPa 0,0 l/m 29,8 km/h (5 Bft) NO 49 1 min 0,000 mm 3,1 UV-I 494 W/m 14,0 C 14,2 C 41,8 km/h (6 Bft) 100,00 %
12.05.2016 14:47 19,6 C 69 % 993,2 hPa 0,0 l/m 24,5 km/h (4 Bft) O-NO 59 1 min 0,000 mm 3,3 UV-I 561 W/m 13,8 C 14,9 C 32,2 km/h (5 Bft) 96,55 %
12.05.2016 14:48 19,6 C 70 % 993,2 hPa 0,0 l/m 23,3 km/h (4 Bft) O-NO 59 1 min 0,000 mm 3,4 UV-I 596 W/m 14,0 C 15,1 C 35,4 km/h (5 Bft) 100,00 %
12.05.2016 14:49 19,6 C 69 % 993,4 hPa 0,0 l/m 29,0 km/h (5 Bft) O-NO 78 1 min 0,000 mm 3,2 UV-I 568 W/m 13,8 C 14,3 C 38,6 km/h (5 Bft) 96,15 %
12.05.2016 14:50 19,6 C 69 % 993,3 hPa 0,0 l/m 37,8 km/h (5 Bft) O-NO 59 1 min 0,000 mm 3,1 UV-I 532 W/m 13,8 C 13,3 C 53,1 km/h (7 Bft) 100,00 %
12.05.2016 14:51 19,6 C 69 % 993,3 hPa 0,0 l/m 34,0 km/h (5 Bft) O-NO 59 1 min 0,000 mm 3,1 UV-I 508 W/m 13,8 C 13,7 C 49,9 km/h (6 Bft) 92,86 %
12.05.2016 14:52 19,6 C 69 % 993,2 hPa 0,0 l/m 37,9 km/h (5 Bft) O-NO 67 1 min 0,000 mm 2,9 UV-I 474 W/m 13,8 C 13,3 C 43,5 km/h (6 Bft) 100,00 %
12.05.2016 14:53 19,6 C 68 % 993,2 hPa 0,0 l/m 35,4 km/h (5 Bft) O-NO 58 1 min 0,000 mm 3,0 UV-I 512 W/m 13,5 C 13,6 C 43,5 km/h (6 Bft) 96,55 %
12.05.2016 14:54 19,5 C 68 % 993,3 hPa 0,0 l/m 34,1 km/h (5 Bft) O-NO 76 1 min 0,000 mm 3,3 UV-I 555 W/m 13,4 C 13,5 C 45,1 km/h (6 Bft) 100,00 %
12.05.2016 14:55 19,4 C 69 % 993,3 hPa 0,0 l/m 31,5 km/h (5 Bft) O-NO 66 1 min 0,000 mm 3,6 UV-I 555 W/m 13,6 C 13,7 C 45,1 km/h (6 Bft) 96,15 %
12.05.2016 14:56 19,4 C 70 % 993,3 hPa 0,0 l/m 34,0 km/h (5 Bft) NO 56 1 min 0,000 mm 3,9 UV-I 692 W/m 13,8 C 13,4 C 43,5 km/h (6 Bft) 96,30 %
12.05.2016 14:57 19,5 C 69 % 993,3 hPa 0,0 l/m 32,8 km/h (5 Bft) NO 42 1 min 0,000 mm 4,1 UV-I 774 W/m 13,7 C 13,7 C 41,8 km/h (6 Bft) 100,00 %
12.05.2016 14:58 19,5 C 69 % 993,2 hPa 0,0 l/m 31,1 km/h (5 Bft) O-NO 59 1 min 0,000 mm 4,1 UV-I 844 W/m 13,7 C 13,9 C 35,4 km/h (5 Bft) 91,67 %
12.05.2016 14:59 19,6 C 70 % 993,3 hPa 0,0 l/m 31,8 km/h (5 Bft) O-NO 61 1 min 0,000 mm 4,4 UV-I 910 W/m 14,0 C 13,9 C 40,2 km/h (6 Bft) 100,00 %
12.05.2016 15:00 19,7 C 70 % 993,2 hPa 0,0 l/m 30,6 km/h (5 Bft) N-NO 24 1 min 0,482 mm 4,5 UV-I 928 W/m 14,1 C 14,2 C 41,8 km/h (6 Bft) 95,83 %
12.05.2016 15:01 19,8 C 70 % 993,2 hPa 0,0 l/m 28,8 km/h (4 Bft) O 86 1 min 0,000 mm 4,5 UV-I 922 W/m 14,2 C 14,6 C 41,8 km/h (6 Bft) 95,65 %
12.05.2016 15:02 19,9 C 69 % 993,2 hPa 0,0 l/m 28,0 km/h (4 Bft) O-NO 69 1 min 0,000 mm 4,3 UV-I 863 W/m 14,0 C 14,8 C 37,0 km/h (5 Bft) 100,00 %
12.05.2016 15:03 19,9 C 68 % 993,2 hPa 0,0 l/m 27,6 km/h (4 Bft) NO 53 1 min 0,000 mm 4,1 UV-I 799 W/m 13,8 C 14,9 C 37,0 km/h (5 Bft) 96,55 %
12.05.2016 15:04 20,0 C 68 % 993,2 hPa 0,0 l/m 31,4 km/h (5 Bft) O-NO 59 1 min 0,000 mm 3,8 UV-I 711 W/m 13,9 C 14,6 C 38,6 km/h (5 Bft) 100,00 %
12.05.2016 15:05 20,1 C 68 % 993,2 hPa 0,0 l/m 30,2 km/h (5 Bft) NO 35 1 min 0,000 mm 3,5 UV-I 682 W/m 14,0 C 14,8 C 37,0 km/h (5 Bft) 100,00 %
12.05.2016 15:06 20,1 C 68 % 993,1 hPa 0,0 l/m 26,6 km/h (4 Bft) O-NO 70 1 min 0,000 mm 3,3 UV-I 641 W/m 14,0 C 15,3 C 38,6 km/h (5 Bft) 96,55 %
12.05.2016 15:07 20,1 C 68 % 993,1 hPa 0,0 l/m 31,3 km/h (5 Bft) NO 40 1 min 0,000 mm 3,0 UV-I 538 W/m 14,0 C 14,7 C 45,1 km/h (6 Bft) 96,97 %
12.05.2016 15:08 20,1 C 68 % 993,2 hPa 0,0 l/m 33,0 km/h (5 Bft) NO 53 1 min 0,000 mm 2,8 UV-I 436 W/m 14,0 C 14,5 C 49,9 km/h (6 Bft) 92,31 %
12.05.2016 15:09 19,9 C 67 % 993,1 hPa 0,0 l/m 34,0 km/h (5 Bft) N-NO 20 0 min 0,000 mm 2,4 UV-I 355 W/m 13,6 C 14,1 C 43,5 km/h (6 Bft) 100,00 %
12.05.2016 15:10 19,9 C 68 % 993,2 hPa 0,0 l/m 31,6 km/h (5 Bft) NO 51 0 min 0,000 mm 2,3 UV-I 327 W/m 13,8 C 14,4 C 37,0 km/h (5 Bft) 92,86 %
12.05.2016 15:11 19,8 C 67 % 993,2 hPa 0,0 l/m 32,4 km/h (5 Bft) NO 52 0 min 0,000 mm 2,3 UV-I 348 W/m 13,5 C 14,2 C 40,2 km/h (6 Bft) 100,00 %
12.05.2016 15:12 19,8 C 67 % 993,2 hPa 0,0 l/m 37,0 km/h (5 Bft) NO 37 0 min 0,000 mm 2,4 UV-I 364 W/m 13,5 C 13,7 C 49,9 km/h (6 Bft) 96,15 %
12.05.2016 15:13 19,7 C 68 % 993,2 hPa 0,0 l/m 31,9 km/h (5 Bft) NO 40 0 min 0,000 mm 2,4 UV-I 386 W/m 13,6 C 14,1 C 41,8 km/h (6 Bft) 95,83 %
12.05.2016 15:14 19,6 C 68 % 993,2 hPa 0,0 l/m 27,2 km/h (4 Bft) O 87 0 min 0,000 mm 2,3 UV-I 402 W/m 13,5 C 14,5 C 46,7 km/h (6 Bft) 91,30 %
12.05.2016 15:15 19,6 C 69 % 993,2 hPa 0,0 l/m 28,8 km/h (4 Bft) O-NO 67 0 min 0,000 mm 2,2 UV-I 364 W/m 13,8 C 14,3 C 38,6 km/h (5 Bft) 100,00 %
12.05.2016 15:16 19,6 C 69 % 993,2 hPa 0,0 l/m 27,3 km/h (4 Bft) NO 56 0 min 0,000 mm 2,2 UV-I 366 W/m 13,8 C 14,5 C 38,6 km/h (5 Bft) 91,30 %
12.05.2016 15:17 19,5 C 70 % 993,3 hPa 0,0 l/m 30,6 km/h (5 Bft) NO 51 0 min 0,000 mm 2,2 UV-I 366 W/m 13,9 C 13,9 C 40,2 km/h (6 Bft) 100,00 %
12.05.2016 15:18 19,4 C 70 % 993,2 hPa 0,0 l/m 27,0 km/h (4 Bft) NO 44 0 min 0,000 mm 2,2 UV-I 355 W/m 13,8 C 14,3 C 37,0 km/h (5 Bft) 100,00 %
12.05.2016 15:19 19,4 C 69 % 993,3 hPa 0,0 l/m 36,5 km/h (5 Bft) O-NO 60 0 min 0,000 mm 2,1 UV-I 348 W/m 13,6 C 13,2 C 48,3 km/h (6 Bft) 100,00 %
12.05.2016 15:20 19,3 C 69 % 993,2 hPa 0,0 l/m 37,0 km/h (5 Bft) NO 43 0 min 0,000 mm 2,2 UV-I 352 W/m 13,5 C 13,0 C 46,7 km/h (6 Bft) 100,00 %
12.05.2016 15:21 19,3 C 69 % 993,3 hPa 0,0 l/m 37,7 km/h (5 Bft) O-NO 68 0 min 0,000 mm 2,2 UV-I 367 W/m 13,5 C 12,9 C 46,7 km/h (6 Bft) 100,00 %
12.05.2016 15:22 19,2 C 70 % 993,2 hPa 0,0 l/m 34,6 km/h (5 Bft) O 80 0 min 0,000 mm 2,2 UV-I 376 W/m 13,6 C 13,1 C 43,5 km/h (6 Bft) 100,00 %
12.05.2016 15:23 19,2 C 70 % 993,3 hPa 0,0 l/m 26,9 km/h (4 Bft) O-NO 78 0 min 0,000 mm 2,3 UV-I 393 W/m 13,6 C 14,0 C 37,0 km/h (5 Bft) 100,00 %
12.05.2016 15:24 19,2 C 71 % 993,3 hPa 0,0 l/m 28,9 km/h (5 Bft) O-NO 70 0 min 0,000 mm 2,3 UV-I 399 W/m 13,8 C 13,7 C 38,6 km/h (5 Bft) 100,00 %
12.05.2016 15:25 19,2 C 71 % 993,3 hPa 0,0 l/m 30,8 km/h (5 Bft) O 80 1 min 0,000 mm 2,4 UV-I 408 W/m 13,8 C 13,5 C 46,7 km/h (6 Bft) 95,65 %
12.05.2016 15:26 19,2 C 70 % 993,3 hPa 0,0 l/m 31,9 km/h (5 Bft) O 81 1 min 0,000 mm 2,7 UV-I 422 W/m 13,6 C 13,4 C 38,6 km/h (5 Bft) 100,00 %
12.05.2016 15:27 19,2 C 70 % 993,3 hPa 0,0 l/m 32,3 km/h (5 Bft) O-NO 69 1 min 0,000 mm 2,8 UV-I 522 W/m 13,6 C 13,3 C 40,2 km/h (6 Bft) 100,00 %
12.05.2016 15:28 19,2 C 71 % 993,3 hPa 0,0 l/m 34,6 km/h (5 Bft) NO 56 1 min 0,000 mm 2,9 UV-I 522 W/m 13,8 C 13,1 C 51,5 km/h (7 Bft) 100,00 %
12.05.2016 15:29 19,2 C 70 % 993,3 hPa 0,0 l/m 38,4 km/h (5 Bft) O-NO 60 1 min 0,000 mm 2,3 UV-I 449 W/m 13,6 C 12,7 C 45,1 km/h (6 Bft) 100,00 %
12.05.2016 15:30 19,2 C 69 % 993,3 hPa 0,0 l/m 36,8 km/h (5 Bft) O-NO 72 0 min 0,000 mm 1,9 UV-I 349 W/m 13,4 C 12,8 C 51,5 km/h (7 Bft) 100,00 %
12.05.2016 15:31 19,1 C 69 % 993,4 hPa 0,0 l/m 36,8 km/h (5 Bft) O-NO 58 0 min 0,000 mm 1,7 UV-I 316 W/m 13,3 C 12,7 C 48,3 km/h (6 Bft) 100,00 %
12.05.2016 15:32 19,1 C 70 % 993,4 hPa 0,0 l/m 34,7 km/h (5 Bft) O-NO 63 0 min 0,000 mm 1,6 UV-I 279 W/m 13,5 C 12,9 C 45,1 km/h (6 Bft) 96,30 %
12.05.2016 15:33 19,0 C 70 % 993,4 hPa 0,0 l/m 29,9 km/h (5 Bft) NO 34 0 min 0,000 mm 1,4 UV-I 256 W/m 13,4 C 13,3 C 35,4 km/h (5 Bft) 98,63 %
12.05.2016 15:34 18,9 C 71 % 993,4 hPa 0,0 l/m 38,3 km/h (5 Bft) O-NO 57 0 min 0,000 mm 1,4 UV-I 241 W/m 13,5 C 12,2 C 48,3 km/h (6 Bft) 98,11 %
12.05.2016 15:35 18,8 C 70 % 993,4 hPa 0,0 l/m 37,3 km/h (5 Bft) NO 46 0 min 0,000 mm 1,4 UV-I 237 W/m 13,2 C 12,2 C 45,1 km/h (6 Bft) 100,00 %
12.05.2016 15:36 18,8 C 70 % 993,3 hPa 0,0 l/m 37,6 km/h (5 Bft) NO 42 0 min 0,000 mm 1,4 UV-I 235 W/m 13,2 C 12,2 C 45,1 km/h (6 Bft) 98,64 %
12.05.2016 15:37 18,7 C 71 % 993,4 hPa 0,0 l/m 31,4 km/h (5 Bft) NO 53 0 min 0,000 mm 1,4 UV-I 234 W/m 13,3 C 12,7 C 40,2 km/h (6 Bft) 100,00 %
12.05.2016 15:38 18,7 C 71 % 993,3 hPa 0,0 l/m 35,4 km/h (5 Bft) NO 52 0 min 0,000 mm 1,4 UV-I 232 W/m 13,3 C 12,2 C 45,1 km/h (6 Bft) 100,00 %
12.05.2016 15:39 18,6 C 71 % 993,3 hPa 0,0 l/m 33,2 km/h (5 Bft) O-NO 74 0 min 0,000 mm 1,3 UV-I 229 W/m 13,2 C 12,4 C 46,7 km/h (6 Bft) 100,00 %
12.05.2016 15:40 18,5 C 71 % 993,4 hPa 0,0 l/m 26,7 km/h (4 Bft) O-NO 63 0 min 0,000 mm 1,3 UV-I 225 W/m 13,1 C 13,1 C 33,8 km/h (5 Bft) 100,00 %
12.05.2016 15:41 18,5 C 73 % 993,4 hPa 0,0 l/m 27,5 km/h (4 Bft) NO 51 0 min 0,000 mm 1,3 UV-I 218 W/m 13,6 C 13,0 C 41,8 km/h (6 Bft) 93,33 %
12.05.2016 15:42 18,4 C 72 % 993,4 hPa 0,0 l/m 31,2 km/h (5 Bft) O-NO 60 0 min 0,000 mm 1,2 UV-I 212 W/m 13,3 C 12,3 C 43,5 km/h (6 Bft) 100,00 %
12.05.2016 15:43 18,4 C 72 % 993,3 hPa 0,0 l/m 33,1 km/h (5 Bft) O-NO 60 0 min 0,000 mm 1,2 UV-I 209 W/m 13,3 C 12,1 C 49,9 km/h (6 Bft) 95,83 %
12.05.2016 15:44 18,3 C 72 % 993,3 hPa 0,0 l/m 29,8 km/h (5 Bft) O 89 0 min 0,000 mm 1,2 UV-I 209 W/m 13,2 C 12,4 C 43,5 km/h (6 Bft) 100,00 %
12.05.2016 15:45 18,3 C 73 % 993,4 hPa 0,0 l/m 23,3 km/h (4 Bft) O-NO 59 0 min 0,000 mm 1,2 UV-I 210 W/m 13,4 C 13,4 C 33,8 km/h (5 Bft) 100,00 %
12.05.2016 15:46 18,3 C 73 % 993,3 hPa 0,0 l/m 36,0 km/h (5 Bft) O-NO 63 0 min 0,000 mm 1,2 UV-I 215 W/m 13,4 C 11,6 C 41,8 km/h (6 Bft) 100,00 %
12.05.2016 15:47 18,3 C 72 % 993,3 hPa 0,0 l/m 28,0 km/h (4 Bft) O-NO 58 0 min 0,000 mm 1,2 UV-I 217 W/m 13,2 C 12,6 C 37,0 km/h (5 Bft) 96,30 %
12.05.2016 15:48 18,2 C 73 % 993,3 hPa 0,0 l/m 30,8 km/h (5 Bft) NO 51 0 min 0,000 mm 1,2 UV-I 218 W/m 13,3 C 12,1 C 40,2 km/h (6 Bft) 100,00 %
12.05.2016 15:49 18,2 C 73 % 993,4 hPa 0,0 l/m 36,4 km/h (5 Bft) NO 52 0 min 0,000 mm 1,2 UV-I 216 W/m 13,3 C 11,4 C 46,7 km/h (6 Bft) 100,00 %
12.05.2016 15:50 18,1 C 73 % 993,3 hPa 0,0 l/m 32,7 km/h (5 Bft) NO 52 0 min 0,000 mm 1,1 UV-I 213 W/m 13,2 C 11,7 C 41,8 km/h (6 Bft) 100,00 %
12.05.2016 15:51 18,1 C 74 % 993,3 hPa 0,0 l/m 26,4 km/h (4 Bft) O-NO 61 0 min 0,000 mm 1,1 UV-I 210 W/m 13,4 C 12,6 C 38,6 km/h (5 Bft) 95,83 %
12.05.2016 15:52 18,1 C 74 % 993,3 hPa 0,0 l/m 31,7 km/h (5 Bft) NO 53 0 min 0,000 mm 1,1 UV-I 207 W/m 13,4 C 11,8 C 43,5 km/h (6 Bft) 100,00 %
12.05.2016 15:53 17,9 C 74 % 993,3 hPa 0,0 l/m 36,5 km/h (5 Bft) NO 38 0 min 0,000 mm 1,1 UV-I 205 W/m 13,2 C 11,0 C 46,7 km/h (6 Bft) 100,00 %
12.05.2016 15:54 17,9 C 74 % 993,3 hPa 0,0 l/m 30,2 km/h (5 Bft) NO 42 0 min 0,000 mm 1,1 UV-I 201 W/m 13,2 C 11,7 C 40,2 km/h (6 Bft) 100,00 %
12.05.2016 15:55 17,8 C 74 % 993,3 hPa 0,0 l/m 31,8 km/h (5 Bft) O-NO 66 0 min 0,000 mm 1,1 UV-I 199 W/m 13,1 C 11,4 C 40,2 km/h (6 Bft) 93,33 %
12.05.2016 15:56 17,8 C 74 % 993,2 hPa 0,0 l/m 31,3 km/h (5 Bft) NO 46 0 min 0,000 mm 1,0 UV-I 197 W/m 13,1 C 11,4 C 40,2 km/h (6 Bft) 100,00 %
12.05.2016 15:57 17,8 C 74 % 993,2 hPa 0,0 l/m 32,3 km/h (5 Bft) NO 48 0 min 0,000 mm 1,0 UV-I 194 W/m 13,1 C 11,3 C 41,8 km/h (6 Bft) 100,00 %
12.05.2016 15:58 17,7 C 75 % 993,3 hPa 0,0 l/m 29,6 km/h (5 Bft) O 81 0 min 0,000 mm 1,0 UV-I 191 W/m 13,2 C 11,5 C 40,2 km/h (6 Bft) 91,67 %
12.05.2016 15:59 17,7 C 76 % 993,4 hPa 0,0 l/m 24,6 km/h (4 Bft) NO 54 0 min 0,000 mm 1,0 UV-I 188 W/m 13,4 C 12,3 C 30,6 km/h (5 Bft) 100,00 %
12.05.2016 16:00 17,6 C 76 % 993,4 hPa 0,0 l/m 27,2 km/h (4 Bft) O-NO 60 0 min 0,305 mm 1,0 UV-I 188 W/m 13,3 C 11,8 C 40,2 km/h (6 Bft) 100,00 %
12.05.2016 16:02 17,6 C 75 % 993,4 hPa 0,0 l/m 31,6 km/h (5 Bft) O-NO 62 0 min 0,000 mm 1,0 UV-I 192 W/m 13,1 C 11,1 C 46,7 km/h (6 Bft) 100,00 %
12.05.2016 16:03 17,5 C 75 % 993,4 hPa 0,0 l/m 35,1 km/h (5 Bft) NO 42 0 min 0,000 mm 1,0 UV-I 202 W/m 13,0 C 10,5 C 41,8 km/h (6 Bft) 100,00 %
12.05.2016 16:04 17,5 C 75 % 993,4 hPa 0,0 l/m 32,9 km/h (5 Bft) O-NO 59 0 min 0,000 mm 1,1 UV-I 209 W/m 13,0 C 10,8 C 45,1 km/h (6 Bft) 98,65 %
12.05.2016 16:05 17,4 C 76 % 993,4 hPa 0,0 l/m 36,8 km/h (5 Bft) O-NO 60 0 min 0,000 mm 1,1 UV-I 213 W/m 13,1 C 10,2 C 48,3 km/h (6 Bft) 97,73 %
12.05.2016 16:06 17,4 C 76 % 993,3 hPa 0,0 l/m 29,9 km/h (5 Bft) NO 44 0 min 0,000 mm 1,2 UV-I 217 W/m 13,1 C 11,1 C 40,2 km/h (6 Bft) 100,00 %
12.05.2016 16:07 17,4 C 76 % 993,4 hPa 0,0 l/m 26,5 km/h (4 Bft) NO 47 0 min 0,000 mm 1,2 UV-I 221 W/m 13,1 C 11,6 C 38,6 km/h (5 Bft) 98,65 %
12.05.2016 16:08 17,3 C 76 % 993,4 hPa 0,0 l/m 31,5 km/h (5 Bft) NO 49 0 min 0,000 mm 1,2 UV-I 226 W/m 13,0 C 10,7 C 40,2 km/h (6 Bft) 100,00 %
12.05.2016 16:09 17,3 C 76 % 993,4 hPa 0,0 l/m 30,2 km/h (5 Bft) O-NO 74 0 min 0,000 mm 1,2 UV-I 227 W/m 13,0 C 10,9 C 40,2 km/h (6 Bft) 100,00 %
12.05.2016 16:10 17,3 C 77 % 993,4 hPa 0,0 l/m 29,8 km/h (5 Bft) O-NO 69 0 min 0,000 mm 1,2 UV-I 229 W/m 13,2 C 11,0 C 38,6 km/h (5 Bft) 100,00 %
12.05.2016 16:11 17,3 C 76 % 993,4 hPa 0,0 l/m 31,3 km/h (5 Bft) NO 49 0 min 0,000 mm 1,3 UV-I 234 W/m 13,0 C 10,7 C 41,8 km/h (6 Bft) 100,00 %
12.05.2016 16:12 17,3 C 76 % 993,4 hPa 0,0 l/m 31,0 km/h (5 Bft) O-NO 63 0 min 0,000 mm 1,3 UV-I 242 W/m 13,0 C 10,8 C 45,1 km/h (6 Bft) 100,00 %
12.05.2016 16:13 17,3 C 76 % 993,4 hPa 0,0 l/m 27,7 km/h (4 Bft) NO 55 0 min 0,000 mm 1,3 UV-I 256 W/m 13,0 C 11,3 C 38,6 km/h (5 Bft) 95,65 %
12.05.2016 16:14 17,3 C 77 % 993,4 hPa 0,0 l/m 24,3 km/h (4 Bft) NO 42 0 min 0,000 mm 1,3 UV-I 275 W/m 13,2 C 11,9 C 35,4 km/h (5 Bft) 95,83 %
12.05.2016 16:15 17,3 C 77 % 993,4 hPa 0,0 l/m 21,2 km/h (4 Bft) NO 52 0 min 0,000 mm 1,4 UV-I 292 W/m 13,2 C 12,5 C 30,6 km/h (5 Bft) 100,00 %
12.05.2016 16:16 17,3 C 77 % 993,4 hPa 0,0 l/m 27,4 km/h (4 Bft) NO 50 0 min 0,000 mm 1,4 UV-I 304 W/m 13,2 C 11,3 C 38,6 km/h (5 Bft) 96,30 %
12.05.2016 16:17 17,3 C 76 % 993,4 hPa 0,0 l/m 28,6 km/h (4 Bft) NO 44 0 min 0,000 mm 1,5 UV-I 317 W/m 13,0 C 11,1 C 41,8 km/h (6 Bft) 100,00 %
12.05.2016 16:18 17,3 C 77 % 993,4 hPa 0,0 l/m 27,9 km/h (4 Bft) NO 44 0 min 0,000 mm 1,5 UV-I 328 W/m 13,2 C 11,2 C 38,6 km/h (5 Bft) 100,00 %
12.05.2016 16:19 17,3 C 77 % 993,4 hPa 0,0 l/m 27,1 km/h (4 Bft) NO 54 0 min 0,000 mm 1,5 UV-I 333 W/m 13,2 C 11,4 C 38,6 km/h (5 Bft) 96,15 %
12.05.2016 16:20 17,4 C 77 % 993,4 hPa 0,0 l/m 24,9 km/h (4 Bft) N-NO 26 0 min 0,000 mm 1,4 UV-I 327 W/m 13,3 C 11,9 C 35,4 km/h (5 Bft) 96,30 %
12.05.2016 16:21 17,4 C 77 % 993,4 hPa 0,0 l/m 27,0 km/h (4 Bft) NO 44 0 min 0,000 mm 1,4 UV-I 311 W/m 13,3 C 11,5 C 38,6 km/h (5 Bft) 100,00 %
12.05.2016 16:22 17,4 C 77 % 993,4 hPa 0,0 l/m 34,0 km/h (5 Bft) NO 41 0 min 0,000 mm 1,3 UV-I 294 W/m 13,3 C 10,5 C 43,5 km/h (6 Bft) 100,00 %
12.05.2016 16:23 17,4 C 77 % 993,4 hPa 0,0 l/m 29,4 km/h (5 Bft) O-NO 67 0 min 0,000 mm 1,2 UV-I 269 W/m 13,3 C 11,1 C 35,4 km/h (5 Bft) 100,00 %
12.05.2016 16:24 17,4 C 78 % 993,4 hPa 0,0 l/m 28,4 km/h (4 Bft) NO 54 0 min 0,000 mm 1,1 UV-I 252 W/m 13,5 C 11,3 C 40,2 km/h (6 Bft) 100,00 %
12.05.2016 16:25 17,4 C 77 % 993,4 hPa 0,0 l/m 26,7 km/h (4 Bft) NO 37 0 min 0,000 mm 1,0 UV-I 235 W/m 13,3 C 11,6 C 30,6 km/h (5 Bft) 100,00 %
12.05.2016 16:26 17,3 C 78 % 993,4 hPa 0,0 l/m 29,7 km/h (5 Bft) NO 43 0 min 0,000 mm 1,0 UV-I 218 W/m 13,4 C 11,0 C 37,0 km/h (5 Bft) 98,66 %
12.05.2016 16:27 17,3 C 78 % 993,4 hPa 0,0 l/m 29,8 km/h (5 Bft) O-NO 72 0 min 0,000 mm 0,9 UV-I 209 W/m 13,4 C 11,0 C 37,0 km/h (5 Bft) 97,44 %
12.05.2016 16:28 17,3 C 77 % 993,4 hPa 0,0 l/m 31,0 km/h (5 Bft) O-NO 62 0 min 0,000 mm 0,8 UV-I 194 W/m 13,2 C 10,8 C 43,5 km/h (6 Bft) 100,00 %
12.05.2016 16:29 17,2 C 77 % 993,4 hPa 0,0 l/m 31,6 km/h (5 Bft) NO 38 0 min 0,000 mm 0,7 UV-I 175 W/m 13,1 C 10,6 C 43,5 km/h (6 Bft) 100,00 %
12.05.2016 16:30 17,1 C 78 % 993,4 hPa 0,0 l/m 26,0 km/h (4 Bft) O-NO 65 0 min 0,000 mm 0,7 UV-I 163 W/m 13,2 C 11,3 C 35,4 km/h (5 Bft) 100,00 %
12.05.2016 16:31 17,1 C 79 % 993,4 hPa 0,0 l/m 29,6 km/h (5 Bft) O 92 0 min 0,000 mm 0,7 UV-I 154 W/m 13,4 C 10,7 C 40,2 km/h (6 Bft) 100,00 %
12.05.2016 16:32 17,0 C 79 % 993,4 hPa 0,0 l/m 27,5 km/h (4 Bft) NO 45 0 min 0,000 mm 0,6 UV-I 151 W/m 13,3 C 10,9 C 32,2 km/h (5 Bft) 100,00 %
12.05.2016 16:33 16,9 C 79 % 993,4 hPa 0,0 l/m 30,1 km/h (5 Bft) O-NO 71 0 min 0,000 mm 0,6 UV-I 149 W/m 13,2 C 10,3 C 37,0 km/h (5 Bft) 100,00 %
12.05.2016 16:34 16,9 C 80 % 993,4 hPa 0,0 l/m 28,2 km/h (4 Bft) O-NO 66 0 min 0,000 mm 0,6 UV-I 148 W/m 13,4 C 10,6 C 40,2 km/h (6 Bft) 100,00 %
12.05.2016 16:35 16,8 C 80 % 993,4 hPa 0,0 l/m 29,2 km/h (5 Bft) NO 46 0 min 0,000 mm 0,6 UV-I 148 W/m 13,3 C 10,3 C 38,6 km/h (5 Bft) 100,00 %
12.05.2016 16:36 16,8 C 80 % 993,3 hPa 0,0 l/m 32,5 km/h (5 Bft) NO 44 0 min 0,000 mm 0,6 UV-I 148 W/m 13,3 C 9,9 C 45,1 km/h (6 Bft) 95,65 %
12.05.2016 16:37 16,7 C 80 % 993,3 hPa 0,0 l/m 23,7 km/h (4 Bft) NO 54 0 min 0,000 mm 0,6 UV-I 148 W/m 13,2 C 11,2 C 32,2 km/h (5 Bft) 100,00 %
12.05.2016 16:38 16,7 C 81 % 993,3 hPa 0,0 l/m 28,4 km/h (4 Bft) O-NO 71 0 min 0,000 mm 0,6 UV-I 148 W/m 13,4 C 10,3 C 41,8 km/h (6 Bft) 98,67 %
12.05.2016 16:39 16,7 C 80 % 993,3 hPa 0,0 l/m 32,6 km/h (5 Bft) NO 55 0 min 0,000 mm 0,6 UV-I 149 W/m 13,2 C 9,7 C 40,2 km/h (6 Bft) 100,00 %
12.05.2016 16:40 16,6 C 81 % 993,3 hPa 0,0 l/m 27,3 km/h (4 Bft) NO 55 0 min 0,000 mm 0,6 UV-I 148 W/m 13,3 C 10,4 C 40,2 km/h (6 Bft) 91,67 %
12.05.2016 16:41 16,6 C 80 % 993,3 hPa 0,0 l/m 30,9 km/h (5 Bft) NO 51 0 min 0,000 mm 0,6 UV-I 148 W/m 13,1 C 9,8 C 41,8 km/h (6 Bft) 100,00 %
12.05.2016 16:42 16,6 C 81 % 993,4 hPa 0,0 l/m 24,4 km/h (4 Bft) O 84 0 min 0,000 mm 0,6 UV-I 146 W/m 13,3 C 10,9 C 32,2 km/h (5 Bft) 95,83 %
12.05.2016 16:43 16,6 C 81 % 993,5 hPa 0,0 l/m 24,9 km/h (4 Bft) NO 50 0 min 0,000 mm 0,6 UV-I 146 W/m 13,3 C 10,8 C 30,6 km/h (5 Bft) 100,00 %
12.05.2016 16:44 16,6 C 81 % 993,4 hPa 0,0 l/m 23,4 km/h (4 Bft) NO 40 0 min 0,000 mm 0,6 UV-I 143 W/m 13,3 C 11,1 C 29,0 km/h (5 Bft) 95,83 %
12.05.2016 16:45 16,6 C 81 % 993,4 hPa 0,0 l/m 27,8 km/h (4 Bft) NO 46 0 min 0,000 mm 0,6 UV-I 139 W/m 13,3 C 10,3 C 38,6 km/h (5 Bft) 96,55 %
12.05.2016 16:46 16,6 C 81 % 993,4 hPa 0,0 l/m 24,0 km/h (4 Bft) O-NO 70 0 min 0,000 mm 0,6 UV-I 135 W/m 13,3 C 11,0 C 33,8 km/h (5 Bft) 100,00 %
12.05.2016 16:47 16,6 C 81 % 993,5 hPa 0,0 l/m 20,9 km/h (4 Bft) NO 50 0 min 0,000 mm 0,6 UV-I 128 W/m 13,3 C 11,6 C 29,0 km/h (5 Bft) 94,12 %
12.05.2016 16:48 16,6 C 81 % 993,5 hPa 0,0 l/m 24,4 km/h (4 Bft) O-NO 72 0 min 0,000 mm 0,6 UV-I 127 W/m 13,3 C 10,9 C 35,4 km/h (5 Bft) 100,00 %
12.05.2016 16:49 16,6 C 81 % 993,5 hPa 0,0 l/m 28,4 km/h (4 Bft) O-NO 59 0 min 0,000 mm 0,5 UV-I 122 W/m 13,3 C 10,2 C 38,6 km/h (5 Bft) 96,15 %
12.05.2016 16:50 16,6 C 81 % 993,5 hPa 0,0 l/m 20,5 km/h (4 Bft) O-NO 65 0 min 0,000 mm 0,5 UV-I 118 W/m 13,3 C 11,7 C 29,0 km/h (5 Bft) 100,00 %
12.05.2016 16:51 16,6 C 81 % 993,5 hPa 0,0 l/m 24,0 km/h (4 Bft) O 82 0 min 0,000 mm 0,5 UV-I 114 W/m 13,3 C 11,0 C 33,8 km/h (5 Bft) 96,15 %
12.05.2016 16:52 16,6 C 81 % 993,5 hPa 0,0 l/m 20,1 km/h (4 Bft) O-NO 62 0 min 0,000 mm 0,5 UV-I 110 W/m 13,3 C 11,8 C 25,7 km/h (4 Bft) 96,30 %
12.05.2016 16:53 16,6 C 81 % 993,6 hPa 0,0 l/m 16,1 km/h (3 Bft) O-NO 69 0 min 0,000 mm 0,5 UV-I 107 W/m 13,3 C 12,8 C 19,3 km/h (3 Bft) 100,00 %
12.05.2016 16:54 16,6 C 81 % 993,5 hPa 0,0 l/m 26,0 km/h (4 Bft) NO 54 0 min 0,000 mm 0,0 UV-I 102 W/m 13,3 C 10,6 C 37,0 km/h (5 Bft) 96,67 %
12.05.2016 16:55 16,6 C 80 % 993,5 hPa 0,0 l/m 22,4 km/h (4 Bft) NO 45 0 min 0,000 mm 0,0 UV-I 96 W/m 13,1 C 11,3 C 29,0 km/h (5 Bft) 100,00 %
12.05.2016 16:56 16,6 C 80 % 993,5 hPa 0,0 l/m 22,8 km/h (4 Bft) O-NO 67 0 min 0,000 mm 0,0 UV-I 92 W/m 13,1 C 11,2 C 32,2 km/h (5 Bft) 96,30 %
12.05.2016 16:57 16,6 C 80 % 993,6 hPa 0,0 l/m 19,2 km/h (3 Bft) NO 51 0 min 0,000 mm 0,0 UV-I 89 W/m 13,1 C 12,0 C 27,4 km/h (4 Bft) 100,00 %
12.05.2016 16:58 16,6 C 81 % 993,5 hPa 0,0 l/m 19,1 km/h (3 Bft) O-NO 60 0 min 0,000 mm 0,0 UV-I 85 W/m 13,3 C 12,0 C 24,1 km/h (4 Bft) 93,33 %
12.05.2016 16:59 16,5 C 81 % 993,5 hPa 0,0 l/m 17,9 km/h (3 Bft) O-NO 58 0 min 0,000 mm 0,0 UV-I 83 W/m 13,2 C 12,2 C 25,7 km/h (4 Bft) 100,00 %
12.05.2016 17:00 16,5 C 81 % 993,5 hPa 0,0 l/m 19,2 km/h (3 Bft) O 98 0 min 0,000 mm 0,0 UV-I 83 W/m 13,2 C 11,9 C 27,4 km/h (4 Bft) 96,15 %
12.05.2016 17:01 16,4 C 81 % 993,6 hPa 0,0 l/m 15,8 km/h (3 Bft) NO 36 0 min 0,178 mm 0,0 UV-I 83 W/m 13,1 C 12,7 C 22,5 km/h (4 Bft) 92,31 %
12.05.2016 17:02 16,4 C 82 % 993,5 hPa 0,0 l/m 14,2 km/h (3 Bft) NO 49 0 min 0,000 mm 0,0 UV-I 83 W/m 13,3 C 13,1 C 17,7 km/h (3 Bft) 100,00 %
12.05.2016 17:03 16,4 C 82 % 993,5 hPa 0,0 l/m 12,9 km/h (3 Bft) NO 53 0 min 0,000 mm 0,0 UV-I 84 W/m 13,3 C 13,6 C 17,7 km/h (3 Bft) 100,00 %
12.05.2016 17:04 16,4 C 81 % 993,5 hPa 0,0 l/m 22,1 km/h (4 Bft) NO 44 0 min 0,000 mm 0,0 UV-I 85 W/m 13,1 C 11,1 C 30,6 km/h (5 Bft) 96,88 %
12.05.2016 17:05 16,4 C 81 % 993,5 hPa 0,0 l/m 27,4 km/h (4 Bft) NO 42 0 min 0,000 mm 0,0 UV-I 86 W/m 13,1 C 10,1 C 35,4 km/h (5 Bft) 96,15 %
12.05.2016 17:06 16,3 C 81 % 993,5 hPa 0,0 l/m 20,6 km/h (4 Bft) O 90 0 min 0,000 mm 0,0 UV-I 84 W/m 13,0 C 11,3 C 30,6 km/h (5 Bft) 91,67 %
12.05.2016 17:07 16,3 C 82 % 993,5 hPa 0,0 l/m 21,8 km/h (4 Bft) N-NO 17 0 min 0,000 mm 0,0 UV-I 84 W/m 13,2 C 11,0 C 27,4 km/h (4 Bft) 96,67 %
12.05.2016 17:08 16,3 C 81 % 993,5 hPa 0,0 l/m 25,8 km/h (4 Bft) NO 55 0 min 0,000 mm 0,0 UV-I 82 W/m 13,0 C 10,2 C 35,4 km/h (5 Bft) 100,00 %
12.05.2016 17:09 16,3 C 81 % 993,5 hPa 0,0 l/m 22,4 km/h (4 Bft) O-NO 76 0 min 0,000 mm 0,0 UV-I 80 W/m 13,0 C 10,9 C 30,6 km/h (5 Bft) 91,67 %
12.05.2016 17:10 16,3 C 82 % 993,5 hPa 0,0 l/m 22,1 km/h (4 Bft) NO 42 0 min 0,000 mm 0,0 UV-I 77 W/m 13,2 C 11,0 C 32,2 km/h (5 Bft) 94,29 %
12.05.2016 17:11 16,2 C 81 % 993,6 hPa 0,0 l/m 22,0 km/h (4 Bft) O-NO 67 0 min 0,000 mm 0,0 UV-I 77 W/m 12,9 C 10,8 C 30,6 km/h (5 Bft) 100,00 %
12.05.2016 17:12 16,2 C 81 % 993,6 hPa 0,0 l/m 22,0 km/h (4 Bft) NO 45 0 min 0,000 mm 0,0 UV-I 76 W/m 12,9 C 10,8 C 29,0 km/h (5 Bft) 100,00 %
12.05.2016 17:13 16,2 C 82 % 993,6 hPa 0,0 l/m 19,8 km/h (3 Bft) N-NO 22 0 min 0,000 mm 0,0 UV-I 75 W/m 13,1 C 11,3 C 29,0 km/h (5 Bft) 96,67 %
12.05.2016 17:14 16,1 C 82 % 993,5 hPa 0,0 l/m 22,5 km/h (4 Bft) NO 53 0 min 0,000 mm 0,0 UV-I 74 W/m 13,0 C 10,6 C 40,2 km/h (6 Bft) 100,00 %
12.05.2016 17:15 16,1 C 81 % 993,5 hPa 0,0 l/m 28,1 km/h (4 Bft) O-NO 70 0 min 0,000 mm 0,0 UV-I 73 W/m 12,8 C 9,5 C 45,1 km/h (6 Bft) 100,00 %
12.05.2016 17:16 16,0 C 81 % 993,6 hPa 0,0 l/m 22,4 km/h (4 Bft) NO 38 0 min 0,000 mm 0,0 UV-I 72 W/m 12,7 C 10,5 C 32,2 km/h (5 Bft) 100,00 %
12.05.2016 17:17 15,9 C 82 % 993,6 hPa 0,0 l/m 23,6 km/h (4 Bft) O-NO 62 0 min 0,000 mm 0,0 UV-I 74 W/m 12,8 C 10,1 C 30,6 km/h (5 Bft) 100,00 %
12.05.2016 17:18 15,9 C 81 % 993,6 hPa 0,0 l/m 29,8 km/h (5 Bft) NO 44 0 min 0,000 mm 0,0 UV-I 74 W/m 12,6 C 9,0 C 38,6 km/h (5 Bft) 93,33 %
12.05.2016 17:19 15,9 C 81 % 993,6 hPa 0,0 l/m 29,6 km/h (5 Bft) O-NO 60 0 min 0,000 mm 0,0 UV-I 76 W/m 12,6 C 9,0 C 43,5 km/h (6 Bft) 96,15 %
12.05.2016 17:20 15,8 C 82 % 993,6 hPa 0,0 l/m 27,2 km/h (4 Bft) NO 42 0 min 0,000 mm 0,0 UV-I 76 W/m 12,7 C 9,3 C 35,4 km/h (5 Bft) 100,00 %
12.05.2016 17:21 15,8 C 82 % 993,7 hPa 0,0 l/m 24,3 km/h (4 Bft) O-NO 67 0 min 0,000 mm 0,0 UV-I 77 W/m 12,7 C 9,8 C 38,6 km/h (5 Bft) 93,33 %
12.05.2016 17:22 15,8 C 82 % 993,7 hPa 0,0 l/m 32,2 km/h (5 Bft) NO 46 0 min 0,000 mm 0,0 UV-I 79 W/m 12,7 C 8,5 C 38,6 km/h (5 Bft) 100,00 %
12.05.2016 17:23 15,8 C 82 % 993,7 hPa 0,0 l/m 28,1 km/h (4 Bft) O-NO 63 0 min 0,000 mm 0,0 UV-I 79 W/m 12,7 C 9,1 C 41,8 km/h (6 Bft) 100,00 %
12.05.2016 17:24 15,7 C 83 % 993,7 hPa 0,0 l/m 27,1 km/h (4 Bft) NO 52 0 min 0,000 mm 0,0 UV-I 79 W/m 12,8 C 9,2 C 40,2 km/h (6 Bft) 100,00 %
12.05.2016 17:25 15,7 C 83 % 993,8 hPa 0,0 l/m 27,3 km/h (4 Bft) O-NO 59 0 min 0,000 mm 0,0 UV-I 78 W/m 12,8 C 9,1 C 40,2 km/h (6 Bft) 96,15 %
12.05.2016 17:26 15,7 C 83 % 993,7 hPa 0,0 l/m 31,1 km/h (5 Bft) O-NO 75 0 min 0,000 mm 0,0 UV-I 77 W/m 12,8 C 8,5 C 38,6 km/h (5 Bft) 100,00 %
12.05.2016 17:27 15,7 C 83 % 993,7 hPa 0,0 l/m 29,6 km/h (5 Bft) O-NO 60 0 min 0,000 mm 0,0 UV-I 77 W/m 12,8 C 8,7 C 40,2 km/h (6 Bft) 100,00 %
12.05.2016 17:28 15,7 C 83 % 993,7 hPa 0,0 l/m 20,5 km/h (4 Bft) NO 53 0 min 0,000 mm 0,0 UV-I 77 W/m 12,8 C 10,5 C 32,2 km/h (5 Bft) 100,00 %
12.05.2016 17:29 15,7 C 83 % 993,8 hPa 0,0 l/m 27,2 km/h (4 Bft) NO 44 0 min 0,000 mm 0,0 UV-I 77 W/m 12,8 C 9,1 C 37,0 km/h (5 Bft) 100,00 %
12.05.2016 17:30 15,6 C 83 % 993,8 hPa 0,0 l/m 23,8 km/h (4 Bft) NO 55 0 min 0,000 mm 0,0 UV-I 78 W/m 12,7 C 9,7 C 33,8 km/h (5 Bft) 95,83 %
12.05.2016 17:31 15,6 C 83 % 993,7 hPa 0,0 l/m 32,8 km/h (5 Bft) NO 55 0 min 0,000 mm 0,0 UV-I 79 W/m 12,7 C 8,1 C 41,8 km/h (6 Bft) 100,00 %
12.05.2016 17:32 15,6 C 83 % 993,7 hPa 0,0 l/m 29,0 km/h (5 Bft) NO 40 0 min 0,000 mm 0,0 UV-I 80 W/m 12,7 C 8,7 C 37,0 km/h (5 Bft) 100,00 %
12.05.2016 17:33 15,6 C 83 % 993,7 hPa 0,0 l/m 30,6 km/h (5 Bft) O-NO 57 0 min 0,000 mm 0,0 UV-I 82 W/m 12,7 C 8,4 C 38,6 km/h (5 Bft) 100,00 %
12.05.2016 17:34 15,6 C 83 % 993,7 hPa 0,0 l/m 35,0 km/h (5 Bft) O-NO 65 0 min 0,000 mm 0,0 UV-I 83 W/m 12,7 C 7,8 C 41,8 km/h (6 Bft) 100,00 %
12.05.2016 17:35 15,6 C 83 % 993,6 hPa 0,0 l/m 38,6 km/h (5 Bft) NO 51 0 min 0,000 mm 0,0 UV-I 83 W/m 12,7 C 7,4 C 46,7 km/h (6 Bft) 100,00 %
12.05.2016 17:36 15,5 C 83 % 993,6 hPa 0,0 l/m 31,3 km/h (5 Bft) O-NO 66 0 min 0,000 mm 0,0 UV-I 84 W/m 12,6 C 8,2 C 40,2 km/h (6 Bft) 100,00 %
12.05.2016 17:37 15,5 C 83 % 993,7 hPa 0,0 l/m 29,1 km/h (5 Bft) O-NO 66 0 min 0,000 mm 0,0 UV-I 84 W/m 12,6 C 8,5 C 41,8 km/h (6 Bft) 95,65 %
12.05.2016 17:38 15,5 C 84 % 993,7 hPa 0,0 l/m 26,6 km/h (4 Bft) O-NO 59 0 min 0,000 mm 0,0 UV-I 85 W/m 12,8 C 9,0 C 43,5 km/h (6 Bft) 96,30 %
12.05.2016 17:39 15,5 C 84 % 993,7 hPa 0,0 l/m 30,2 km/h (5 Bft) O-NO 61 0 min 0,000 mm 0,0 UV-I 87 W/m 12,8 C 8,4 C 43,5 km/h (6 Bft) 100,00 %
12.05.2016 17:40 15,5 C 84 % 993,6 hPa 0,0 l/m 29,4 km/h (5 Bft) NO 49 0 min 0,000 mm 0,0 UV-I 88 W/m 12,8 C 8,5 C 40,2 km/h (6 Bft) 100,00 %
12.05.2016 17:41 15,5 C 84 % 993,6 hPa 0,0 l/m 33,3 km/h (5 Bft) O-NO 67 0 min 0,000 mm 0,0 UV-I 88 W/m 12,8 C 7,9 C 40,2 km/h (6 Bft) 100,00 %
12.05.2016 17:42 15,4 C 84 % 993,7 hPa 0,0 l/m 19,8 km/h (3 Bft) NO 46 0 min 0,000 mm 0,0 UV-I 88 W/m 12,7 C 10,3 C 29,0 km/h (5 Bft) 100,00 %
12.05.2016 17:43 15,5 C 84 % 993,6 hPa 0,0 l/m 28,0 km/h (4 Bft) O-NO 76 0 min 0,000 mm 0,0 UV-I 88 W/m 12,8 C 8,7 C 32,2 km/h (5 Bft) 100,00 %
12.05.2016 17:44 15,4 C 84 % 993,7 hPa 0,0 l/m 21,8 km/h (4 Bft) NO 36 0 min 0,000 mm 0,0 UV-I 88 W/m 12,7 C 9,8 C 35,4 km/h (5 Bft) 96,55 %
12.05.2016 17:45 15,4 C 84 % 993,7 hPa 0,0 l/m 29,8 km/h (5 Bft) O-NO 59 0 min 0,000 mm 0,0 UV-I 87 W/m 12,7 C 8,3 C 40,2 km/h (6 Bft) 100,00 %
12.05.2016 17:46 15,4 C 84 % 993,6 hPa 0,0 l/m 29,0 km/h (5 Bft) O-NO 69 0 min 0,000 mm 0,0 UV-I 84 W/m 12,7 C 8,4 C 37,0 km/h (5 Bft) 100,00 %
12.05.2016 17:47 15,4 C 84 % 993,7 hPa 0,0 l/m 26,0 km/h (4 Bft) O-NO 60 0 min 0,000 mm 0,0 UV-I 84 W/m 12,7 C 9,0 C 40,2 km/h (6 Bft) 100,00 %
12.05.2016 17:48 15,4 C 84 % 993,6 hPa 0,0 l/m 29,0 km/h (5 Bft) O-NO 68 0 min 0,000 mm 0,0 UV-I 84 W/m 12,7 C 8,4 C 41,8 km/h (6 Bft) 100,00 %
12.05.2016 17:49 15,4 C 84 % 993,7 hPa 0,0 l/m 21,4 km/h (4 Bft) NO 44 0 min 0,000 mm 0,0 UV-I 86 W/m 12,7 C 9,9 C 25,7 km/h (4 Bft) 100,00 %
12.05.2016 17:50 15,4 C 85 % 993,7 hPa 0,0 l/m 22,8 km/h (4 Bft) O-NO 71 0 min 0,000 mm 0,0 UV-I 89 W/m 12,9 C 9,6 C 35,4 km/h (5 Bft) 91,30 %
12.05.2016 17:51 15,4 C 85 % 993,7 hPa 0,0 l/m 27,4 km/h (4 Bft) NO 47 0 min 0,000 mm 0,0 UV-I 93 W/m 12,9 C 8,7 C 37,0 km/h (5 Bft) 100,00 %
12.05.2016 17:52 15,4 C 84 % 993,6 hPa 0,0 l/m 36,4 km/h (5 Bft) O-NO 67 0 min 0,000 mm 0,0 UV-I 95 W/m 12,7 C 7,3 C 43,5 km/h (6 Bft) 100,00 %
12.05.2016 17:53 15,4 C 84 % 993,6 hPa 0,0 l/m 28,7 km/h (4 Bft) NO 45 0 min 0,000 mm 0,0 UV-I 97 W/m 12,7 C 8,5 C 40,2 km/h (6 Bft) 100,00 %
12.05.2016 17:54 15,4 C 85 % 993,6 hPa 0,0 l/m 23,7 km/h (4 Bft) NO 41 0 min 0,000 mm 0,0 UV-I 97 W/m 12,9 C 9,4 C 32,2 km/h (5 Bft) 96,15 %
12.05.2016 17:55 15,3 C 85 % 993,7 hPa 0,0 l/m 17,1 km/h (3 Bft) NO 47 0 min 0,000 mm 0,0 UV-I 97 W/m 12,8 C 10,9 C 19,3 km/h (3 Bft) 100,00 %
12.05.2016 17:56 15,3 C 86 % 993,6 hPa 0,0 l/m 20,9 km/h (4 Bft) O-NO 59 0 min 0,000 mm 0,0 UV-I 94 W/m 13,0 C 9,9 C 35,4 km/h (5 Bft) 100,00 %
12.05.2016 17:57 15,3 C 86 % 993,6 hPa 0,0 l/m 18,8 km/h (3 Bft) NO 56 0 min 0,000 mm 0,0 UV-I 91 W/m 13,0 C 10,4 C 33,8 km/h (5 Bft) 100,00 %
12.05.2016 17:58 15,3 C 85 % 993,6 hPa 0,0 l/m 24,5 km/h (4 Bft) O-NO 75 0 min 0,000 mm 0,0 UV-I 93 W/m 12,8 C 9,1 C 33,8 km/h (5 Bft) 100,00 %
12.05.2016 17:59 15,3 C 85 % 993,6 hPa 0,0 l/m 27,8 km/h (4 Bft) O-NO 61 0 min 0,000 mm 0,0 UV-I 93 W/m 12,8 C 8,5 C 40,2 km/h (6 Bft) 100,00 %
12.05.2016 18:00 15,3 C 85 % 993,6 hPa 0,0 l/m 26,9 km/h (4 Bft) NO 51 0 min 0,102 mm 0,0 UV-I 97 W/m 12,8 C 8,6 C 32,2 km/h (5 Bft) 100,00 %
12.05.2016 18:01 15,3 C 85 % 993,6 hPa 0,0 l/m 27,7 km/h (4 Bft) NO 34 0 min 0,000 mm 0,0 UV-I 102 W/m 12,8 C 8,5 C 40,2 km/h (6 Bft) 91,30 %
12.05.2016 18:02 15,3 C 85 % 993,6 hPa 0,0 l/m 24,0 km/h (4 Bft) N-NO 12 0 min 0,000 mm 0,0 UV-I 105 W/m 12,8 C 9,2 C 29,0 km/h (5 Bft) 100,00 %
12.05.2016 18:03 15,3 C 86 % 993,6 hPa 0,0 l/m 23,2 km/h (4 Bft) O-NO 69 0 min 0,000 mm 0,0 UV-I 106 W/m 13,0 C 9,4 C 29,0 km/h (5 Bft) 100,00 %
12.05.2016 18:04 15,3 C 85 % 993,6 hPa 0,0 l/m 24,7 km/h (4 Bft) O-NO 60 0 min 0,000 mm 0,0 UV-I 104 W/m 12,8 C 9,1 C 30,6 km/h (5 Bft) 100,00 %
12.05.2016 18:05 15,3 C 85 % 993,6 hPa 0,0 l/m 22,6 km/h (4 Bft) O-NO 67 0 min 0,000 mm 0,0 UV-I 106 W/m 12,8 C 9,5 C 32,2 km/h (5 Bft) 100,00 %
12.05.2016 18:06 15,3 C 85 % 993,6 hPa 0,0 l/m 30,3 km/h (5 Bft) NO 55 0 min 0,000 mm 0,0 UV-I 104 W/m 12,8 C 8,1 C 38,6 km/h (5 Bft) 100,00 %
12.05.2016 18:07 15,2 C 85 % 993,6 hPa 0,0 l/m 27,6 km/h (4 Bft) NO 54 0 min 0,000 mm 0,0 UV-I 99 W/m 12,7 C 8,4 C 33,8 km/h (5 Bft) 90,91 %
12.05.2016 18:08 15,2 C 85 % 993,6 hPa 0,0 l/m 23,9 km/h (4 Bft) O-NO 58 0 min 0,000 mm 0,0 UV-I 97 W/m 12,7 C 9,1 C 33,8 km/h (5 Bft) 100,00 %
12.05.2016 18:09 15,2 C 85 % 993,6 hPa 0,0 l/m 22,8 km/h (4 Bft) NO 38 0 min 0,000 mm 0,0 UV-I 100 W/m 12,7 C 9,3 C 33,8 km/h (5 Bft) 100,00 %
12.05.2016 18:10 15,2 C 85 % 993,6 hPa 0,0 l/m 26,6 km/h (4 Bft) O-NO 63 0 min 0,000 mm 0,0 UV-I 98 W/m 12,7 C 8,6 C 38,6 km/h (5 Bft) 100,00 %
12.05.2016 18:11 15,2 C 85 % 993,6 hPa 0,0 l/m 27,7 km/h (4 Bft) NO 51 0 min 0,000 mm 0,0 UV-I 94 W/m 12,7 C 8,4 C 41,8 km/h (6 Bft) 100,00 %
12.05.2016 18:12 15,2 C 85 % 993,6 hPa 0,0 l/m 20,4 km/h (4 Bft) NO 36 0 min 0,000 mm 0,0 UV-I 92 W/m 12,7 C 9,9 C 30,6 km/h (5 Bft) 100,00 %
12.05.2016 18:13 15,2 C 86 % 993,6 hPa 0,0 l/m 25,3 km/h (4 Bft) O-NO 68 0 min 0,000 mm 0,0 UV-I 90 W/m 12,9 C 8,8 C 33,8 km/h (5 Bft) 100,00 %
12.05.2016 18:14 15,2 C 85 % 993,6 hPa 0,0 l/m 22,2 km/h (4 Bft) O-NO 57 0 min 0,000 mm 0,0 UV-I 85 W/m 12,7 C 9,5 C 32,2 km/h (5 Bft) 100,00 %
12.05.2016 18:15 15,2 C 85 % 993,6 hPa 0,0 l/m 24,6 km/h (4 Bft) NO 46 0 min 0,000 mm 0,0 UV-I 81 W/m 12,7 C 9,0 C 33,8 km/h (5 Bft) 100,00 %
12.05.2016 18:16 15,2 C 85 % 993,7 hPa 0,0 l/m 24,2 km/h (4 Bft) O-NO 74 0 min 0,000 mm 0,0 UV-I 83 W/m 12,7 C 9,0 C 33,8 km/h (5 Bft) 93,33 %
12.05.2016 18:17 15,2 C 85 % 993,6 hPa 0,0 l/m 21,6 km/h (4 Bft) O-NO 57 0 min 0,000 mm 0,0 UV-I 86 W/m 12,7 C 9,6 C 30,6 km/h (5 Bft) 100,00 %
12.05.2016 18:18 15,2 C 85 % 993,6 hPa 0,0 l/m 29,8 km/h (5 Bft) O-NO 65 0 min 0,000 mm 0,0 UV-I 86 W/m 12,7 C 8,0 C 40,2 km/h (6 Bft) 100,00 %
12.05.2016 18:19 15,2 C 85 % 993,6 hPa 0,0 l/m 32,9 km/h (5 Bft) NO 55 0 min 0,000 mm 0,0 UV-I 87 W/m 12,7 C 7,5 C 40,2 km/h (6 Bft) 100,00 %
12.05.2016 18:20 15,2 C 85 % 993,6 hPa 0,0 l/m 29,2 km/h (5 Bft) NO 55 0 min 0,000 mm 0,0 UV-I 86 W/m 12,7 C 8,1 C 35,4 km/h (5 Bft) 96,15 %
12.05.2016 18:21 15,2 C 85 % 993,6 hPa 0,0 l/m 31,9 km/h (5 Bft) O-NO 59 0 min 0,000 mm 0,0 UV-I 80 W/m 12,7 C 7,7 C 43,5 km/h (6 Bft) 100,00 %
12.05.2016 18:22 15,2 C 85 % 993,6 hPa 0,0 l/m 27,0 km/h (4 Bft) O 88 0 min 0,000 mm 0,0 UV-I 81 W/m 12,7 C 8,5 C 35,4 km/h (5 Bft) 100,00 %
12.05.2016 18:23 15,2 C 85 % 993,6 hPa 0,0 l/m 24,8 km/h (4 Bft) O-NO 78 0 min 0,000 mm 0,0 UV-I 85 W/m 12,7 C 8,9 C 35,4 km/h (5 Bft) 100,00 %
12.05.2016 18:24 15,2 C 86 % 993,6 hPa 0,0 l/m 25,1 km/h (4 Bft) O-NO 63 0 min 0,000 mm 0,0 UV-I 85 W/m 12,9 C 8,9 C 38,6 km/h (5 Bft) 96,55 %
12.05.2016 18:25 15,1 C 86 % 993,6 hPa 0,0 l/m 22,9 km/h (4 Bft) O 84 0 min 0,000 mm 0,0 UV-I 82 W/m 12,8 C 9,2 C 32,2 km/h (5 Bft) 100,00 %
12.05.2016 18:26 15,1 C 86 % 993,6 hPa 0,0 l/m 22,2 km/h (4 Bft) NO 42 0 min 0,000 mm 0,0 UV-I 82 W/m 12,8 C 9,3 C 30,6 km/h (5 Bft) 100,00 %
12.05.2016 18:27 15,1 C 86 % 993,6 hPa 0,0 l/m 18,1 km/h (3 Bft) NO 56 0 min 0,000 mm 0,0 UV-I 75 W/m 12,8 C 10,4 C 24,1 km/h (4 Bft) 100,00 %
12.05.2016 18:28 15,1 C 86 % 993,7 hPa 0,0 l/m 21,5 km/h (4 Bft) NO 52 0 min 0,000 mm 0,0 UV-I 70 W/m 12,8 C 9,5 C 33,8 km/h (5 Bft) 92,86 %
12.05.2016 18:29 15,2 C 85 % 993,6 hPa 0,0 l/m 22,1 km/h (4 Bft) NO 55 0 min 0,000 mm 0,0 UV-I 70 W/m 12,7 C 9,5 C 30,6 km/h (5 Bft) 100,00 %
12.05.2016 18:30 15,1 C 85 % 993,6 hPa 0,0 l/m 21,3 km/h (4 Bft) O-NO 60 0 min 0,000 mm 0,0 UV-I 69 W/m 12,6 C 9,6 C 29,0 km/h (5 Bft) 100,00 %
12.05.2016 18:31 15,1 C 85 % 993,6 hPa 0,0 l/m 21,4 km/h (4 Bft) NO 53 0 min 0,000 mm 0,0 UV-I 70 W/m 12,6 C 9,5 C 27,4 km/h (4 Bft) 100,00 %
12.05.2016 18:32 15,1 C 85 % 993,7 hPa 0,0 l/m 19,1 km/h (3 Bft) NO 42 0 min 0,000 mm 0,0 UV-I 71 W/m 12,6 C 10,1 C 24,1 km/h (4 Bft) 100,00 %
12.05.2016 18:33 15,1 C 85 % 993,7 hPa 0,0 l/m 19,3 km/h (3 Bft) O-NO 57 0 min 0,000 mm 0,0 UV-I 66 W/m 12,6 C 10,1 C 27,4 km/h (4 Bft) 100,00 %
12.05.2016 18:34 15,1 C 85 % 993,6 hPa 0,0 l/m 20,4 km/h (4 Bft) NO 47 0 min 0,000 mm 0,0 UV-I 64 W/m 12,6 C 9,8 C 30,6 km/h (5 Bft) 100,00 %
12.05.2016 18:35 15,1 C 86 % 993,6 hPa 0,0 l/m 29,0 km/h (5 Bft) NO 53 0 min 0,000 mm 0,0 UV-I 68 W/m 12,8 C 8,0 C 40,2 km/h (6 Bft) 100,00 %
12.05.2016 18:36 15,1 C 85 % 993,7 hPa 0,0 l/m 20,1 km/h (4 Bft) NO 53 0 min 0,000 mm 0,0 UV-I 69 W/m 12,6 C 9,9 C 27,4 km/h (4 Bft) 96,55 %
12.05.2016 18:37 15,1 C 85 % 993,6 hPa 0,0 l/m 16,5 km/h (3 Bft) O-NO 65 0 min 0,000 mm 0,0 UV-I 68 W/m 12,6 C 10,8 C 25,7 km/h (4 Bft) 100,00 %
12.05.2016 18:38 15,1 C 85 % 993,6 hPa 0,0 l/m 23,3 km/h (4 Bft) O-NO 62 0 min 0,000 mm 0,0 UV-I 68 W/m 12,6 C 9,1 C 32,2 km/h (5 Bft) 100,00 %
12.05.2016 18:39 15,1 C 85 % 993,6 hPa 0,0 l/m 19,7 km/h (3 Bft) NO 55 0 min 0,000 mm 0,0 UV-I 70 W/m 12,6 C 10,0 C 24,1 km/h (4 Bft) 95,65 %
12.05.2016 18:40 15,1 C 85 % 993,6 hPa 0,0 l/m 22,3 km/h (4 Bft) O-NO 68 0 min 0,000 mm 0,0 UV-I 71 W/m 12,6 C 9,3 C 29,0 km/h (5 Bft) 91,67 %
12.05.2016 18:41 15,1 C 85 % 993,6 hPa 0,0 l/m 19,8 km/h (3 Bft) NO 55 0 min 0,000 mm 0,0 UV-I 75 W/m 12,6 C 9,9 C 25,7 km/h (4 Bft) 100,00 %
12.05.2016 18:42 15,1 C 85 % 993,6 hPa 0,0 l/m 19,2 km/h (3 Bft) O-NO 77 0 min 0,000 mm 0,0 UV-I 70 W/m 12,6 C 10,1 C 25,7 km/h (4 Bft) 96,30 %
12.05.2016 18:43 15,1 C 85 % 993,6 hPa 0,0 l/m 14,1 km/h (3 Bft) NO 41 0 min 0,000 mm 0,0 UV-I 67 W/m 12,6 C 11,6 C 20,9 km/h (4 Bft) 100,00 %
12.05.2016 18:44 15,1 C 86 % 993,6 hPa 0,0 l/m 15,7 km/h (3 Bft) O-NO 78 0 min 0,000 mm 0,0 UV-I 64 W/m 12,8 C 11,1 C 20,9 km/h (4 Bft) 95,83 %
12.05.2016 18:45 15,1 C 86 % 993,6 hPa 0,0 l/m 14,9 km/h (3 Bft) NO 40 0 min 0,000 mm 0,0 UV-I 62 W/m 12,8 C 11,3 C 20,9 km/h (4 Bft) 100,00 %
12.05.2016 18:46 15,1 C 86 % 993,7 hPa 0,0 l/m 14,3 km/h (3 Bft) O-NO 63 0 min 0,000 mm 0,0 UV-I 61 W/m 12,8 C 11,5 C 22,5 km/h (4 Bft) 96,30 %
12.05.2016 18:47 15,1 C 86 % 993,6 hPa 0,0 l/m 20,8 km/h (4 Bft) NO 51 0 min 0,000 mm 0,0 UV-I 56 W/m 12,8 C 9,7 C 32,2 km/h (5 Bft) 96,15 %
12.05.2016 18:48 15,1 C 86 % 993,7 hPa 0,0 l/m 24,6 km/h (4 Bft) O-NO 57 0 min 0,000 mm 0,0 UV-I 53 W/m 12,8 C 8,8 C 32,2 km/h (5 Bft) 100,00 %
12.05.2016 18:49 15,1 C 85 % 993,7 hPa 0,0 l/m 26,0 km/h (4 Bft) O-NO 64 0 min 0,000 mm 0,0 UV-I 53 W/m 12,6 C 8,5 C 32,2 km/h (5 Bft) 92,86 %
12.05.2016 18:50 15,1 C 85 % 993,7 hPa 0,0 l/m 23,8 km/h (4 Bft) NO 43 0 min 0,000 mm 0,0 UV-I 53 W/m 12,6 C 9,0 C 32,2 km/h (5 Bft) 100,00 %
12.05.2016 18:51 15,0 C 86 % 993,6 hPa 0,0 l/m 17,3 km/h (3 Bft) O-NO 63 0 min 0,000 mm 0,0 UV-I 49 W/m 12,7 C 10,5 C 24,1 km/h (4 Bft) 96,15 %
12.05.2016 18:52 15,0 C 86 % 993,7 hPa 0,0 l/m 22,7 km/h (4 Bft) O-NO 61 0 min 0,000 mm 0,0 UV-I 50 W/m 12,7 C 9,1 C 33,8 km/h (5 Bft) 100,00 %
12.05.2016 18:53 15,0 C 86 % 993,6 hPa 0,0 l/m 22,3 km/h (4 Bft) O-NO 58 0 min 0,000 mm 0,0 UV-I 51 W/m 12,7 C 9,2 C 29,0 km/h (5 Bft) 91,30 %
12.05.2016 18:54 15,0 C 86 % 993,7 hPa 0,0 l/m 26,2 km/h (4 Bft) NO 56 0 min 0,000 mm 0,0 UV-I 51 W/m 12,7 C 8,4 C 33,8 km/h (5 Bft) 100,00 %
12.05.2016 18:55 15,0 C 85 % 993,6 hPa 0,0 l/m 22,4 km/h (4 Bft) NO 43 0 min 0,000 mm 0,0 UV-I 49 W/m 12,5 C 9,2 C 29,0 km/h (5 Bft) 95,83 %
12.05.2016 18:56 15,0 C 86 % 993,6 hPa 0,0 l/m 21,0 km/h (4 Bft) NO 53 0 min 0,000 mm 0,0 UV-I 50 W/m 12,7 C 9,5 C 27,4 km/h (4 Bft) 93,75 %
12.05.2016 18:57 15,0 C 86 % 993,6 hPa 0,0 l/m 24,8 km/h (4 Bft) NO 55 0 min 0,000 mm 0,0 UV-I 53 W/m 12,7 C 8,6 C 33,8 km/h (5 Bft) 100,00 %
12.05.2016 18:58 15,0 C 86 % 993,6 hPa 0,0 l/m 20,5 km/h (4 Bft) O-NO 67 0 min 0,000 mm 0,0 UV-I 55 W/m 12,7 C 9,6 C 29,0 km/h (5 Bft) 96,55 %
12.05.2016 18:59 15,0 C 86 % 993,6 hPa 0,0 l/m 17,7 km/h (3 Bft) NO 46 0 min 0,000 mm 0,0 UV-I 53 W/m 12,7 C 10,4 C 25,7 km/h (4 Bft) 100,00 %
12.05.2016 19:00 15,0 C 86 % 993,6 hPa 0,0 l/m 19,6 km/h (3 Bft) NO 44 0 min 0,000 mm 0,0 UV-I 54 W/m 12,7 C 9,8 C 25,7 km/h (4 Bft) 92,86 %
12.05.2016 19:01 15,0 C 86 % 993,6 hPa 0,0 l/m 23,5 km/h (4 Bft) O-NO 62 0 min 0,076 mm 0,0 UV-I 55 W/m 12,7 C 8,9 C 35,4 km/h (5 Bft) 100,00 %
12.05.2016 19:02 15,0 C 86 % 993,6 hPa 0,0 l/m 27,2 km/h (4 Bft) O-NO 66 0 min 0,000 mm 0,0 UV-I 54 W/m 12,7 C 8,2 C 40,2 km/h (6 Bft) 96,15 %
12.05.2016 19:03 14,9 C 86 % 993,6 hPa 0,0 l/m 26,9 km/h (4 Bft) NO 51 0 min 0,000 mm 0,0 UV-I 54 W/m 12,6 C 8,1 C 33,8 km/h (5 Bft) 100,00 %
12.05.2016 19:04 14,9 C 86 % 993,6 hPa 0,0 l/m 26,6 km/h (4 Bft) O-NO 57 0 min 0,000 mm 0,0 UV-I 54 W/m 12,6 C 8,2 C 40,2 km/h (6 Bft) 96,55 %
12.05.2016 19:05 14,9 C 86 % 993,6 hPa 0,0 l/m 27,9 km/h (4 Bft) O-NO 67 0 min 0,000 mm 0,0 UV-I 53 W/m 12,6 C 7,9 C 35,4 km/h (5 Bft) 96,67 %
12.05.2016 19:06 14,9 C 86 % 993,6 hPa 0,0 l/m 25,6 km/h (4 Bft) O-NO 61 0 min 0,000 mm 0,0 UV-I 50 W/m 12,6 C 8,4 C 30,6 km/h (5 Bft) 100,00 %
12.05.2016 19:07 14,9 C 86 % 993,6 hPa 0,0 l/m 25,0 km/h (4 Bft) O-NO 57 0 min 0,000 mm 0,0 UV-I 49 W/m 12,6 C 8,5 C 35,4 km/h (5 Bft) 92,59 %
12.05.2016 19:08 14,9 C 86 % 993,6 hPa 0,0 l/m 20,0 km/h (4 Bft) NO 55 0 min 0,000 mm 0,0 UV-I 46 W/m 12,6 C 9,6 C 27,4 km/h (4 Bft) 100,00 %
12.05.2016 19:09 14,9 C 86 % 993,6 hPa 0,0 l/m 24,9 km/h (4 Bft) NO 54 0 min 0,000 mm 0,0 UV-I 47 W/m 12,6 C 8,5 C 32,2 km/h (5 Bft) 95,83 %
12.05.2016 19:10 14,9 C 86 % 993,6 hPa 0,0 l/m 25,2 km/h (4 Bft) O-NO 59 0 min 0,000 mm 0,0 UV-I 50 W/m 12,6 C 8,4 C 35,4 km/h (5 Bft) 100,00 %
12.05.2016 19:11 14,9 C 86 % 993,7 hPa 0,0 l/m 24,1 km/h (4 Bft) O-NO 76 0 min 0,000 mm 0,0 UV-I 51 W/m 12,6 C 8,7 C 32,2 km/h (5 Bft) 100,00 %
12.05.2016 19:12 14,9 C 86 % 993,7 hPa 0,0 l/m 30,0 km/h (5 Bft) NO 53 0 min 0,000 mm 0,0 UV-I 49 W/m 12,6 C 7,5 C 38,6 km/h (5 Bft) 100,00 %
12.05.2016 19:13 14,9 C 86 % 993,6 hPa 0,0 l/m 30,3 km/h (5 Bft) NO 47 0 min 0,000 mm 0,0 UV-I 46 W/m 12,6 C 7,5 C 40,2 km/h (6 Bft) 100,00 %
12.05.2016 19:14 14,9 C 86 % 993,7 hPa 0,0 l/m 30,6 km/h (5 Bft) NO 54 0 min 0,000 mm 0,0 UV-I 44 W/m 12,6 C 7,4 C 38,6 km/h (5 Bft) 97,37 %
12.05.2016 19:15 14,8 C 86 % 993,7 hPa 0,0 l/m 21,9 km/h (4 Bft) NO 49 0 min 0,000 mm 0,0 UV-I 39 W/m 12,5 C 9,0 C 27,4 km/h (4 Bft) 100,00 %
12.05.2016 19:16 14,9 C 86 % 993,7 hPa 0,0 l/m 19,9 km/h (4 Bft) O-NO 61 0 min 0,000 mm 0,0 UV-I 36 W/m 12,6 C 9,6 C 24,1 km/h (4 Bft) 100,00 %
12.05.2016 19:17 14,8 C 86 % 993,7 hPa 0,0 l/m 21,7 km/h (4 Bft) O 92 0 min 0,000 mm 0,0 UV-I 35 W/m 12,5 C 9,1 C 24,1 km/h (4 Bft) 100,00 %
12.05.2016 19:18 14,8 C 86 % 993,7 hPa 0,0 l/m 23,2 km/h (4 Bft) O-NO 76 0 min 0,000 mm 0,0 UV-I 36 W/m 12,5 C 8,7 C 33,8 km/h (5 Bft) 96,30 %
12.05.2016 19:19 14,8 C 86 % 993,7 hPa 0,0 l/m 25,8 km/h (4 Bft) NO 42 0 min 0,000 mm 0,0 UV-I 36 W/m 12,5 C 8,2 C 33,8 km/h (5 Bft) 100,00 %
12.05.2016 19:20 14,8 C 86 % 993,7 hPa 0,0 l/m 15,4 km/h (3 Bft) O-NO 59 0 min 0,000 mm 0,0 UV-I 35 W/m 12,5 C 10,8 C 19,3 km/h (3 Bft) 100,00 %
12.05.2016 19:21 14,8 C 86 % 993,7 hPa 0,0 l/m 15,5 km/h (3 Bft) O-NO 57 0 min 0,000 mm 0,0 UV-I 32 W/m 12,5 C 10,8 C 19,3 km/h (3 Bft) 100,00 %
12.05.2016 19:22 14,8 C 86 % 993,7 hPa 0,0 l/m 22,6 km/h (4 Bft) NO 47 0 min 0,000 mm 0,0 UV-I 31 W/m 12,5 C 8,9 C 30,6 km/h (5 Bft) 100,00 %
12.05.2016 19:23 14,8 C 86 % 993,7 hPa 0,0 l/m 20,5 km/h (4 Bft) NO 40 0 min 0,000 mm 0,0 UV-I 30 W/m 12,5 C 9,4 C 24,1 km/h (4 Bft) 100,00 %
12.05.2016 19:24 14,8 C 86 % 993,7 hPa 0,0 l/m 15,2 km/h (3 Bft) NO 52 0 min 0,000 mm 0,0 UV-I 27 W/m 12,5 C 10,9 C 20,9 km/h (4 Bft) 100,00 %
12.05.2016 19:25 14,8 C 86 % 993,7 hPa 0,0 l/m 17,6 km/h (3 Bft) O-NO 61 0 min 0,000 mm 0,0 UV-I 26 W/m 12,5 C 10,1 C 24,1 km/h (4 Bft) 100,00 %
12.05.2016 19:26 14,8 C 87 % 993,7 hPa 0,0 l/m 12,7 km/h (3 Bft) O-NO 57 0 min 0,000 mm 0,0 UV-I 26 W/m 12,7 C 11,8 C 19,3 km/h (3 Bft) 93,33 %
12.05.2016 19:27 14,8 C 87 % 993,7 hPa 0,0 l/m 17,1 km/h (3 Bft) NO 34 0 min 0,000 mm 0,0 UV-I 25 W/m 12,7 C 10,3 C 19,3 km/h (3 Bft) 100,00 %
12.05.2016 19:28 14,8 C 87 % 993,7 hPa 0,0 l/m 23,0 km/h (4 Bft) NO 51 0 min 0,000 mm 0,0 UV-I 24 W/m 12,7 C 8,8 C 29,0 km/h (5 Bft) 100,00 %
12.05.2016 19:29 14,8 C 86 % 993,7 hPa 0,0 l/m 20,7 km/h (4 Bft) O 84 0 min 0,000 mm 0,0 UV-I 23 W/m 12,5 C 9,3 C 25,7 km/h (4 Bft) 100,00 %
12.05.2016 19:30 14,8 C 87 % 993,8 hPa 0,0 l/m 21,3 km/h (4 Bft) NO 55 0 min 0,000 mm 0,0 UV-I 22 W/m 12,7 C 9,2 C 25,7 km/h (4 Bft) 100,00 %
12.05.2016 19:31 14,8 C 87 % 993,7 hPa 0,0 l/m 20,8 km/h (4 Bft) O-NO 75 0 min 0,000 mm 0,0 UV-I 19 W/m 12,7 C 9,3 C 29,0 km/h (5 Bft) 96,15 %
12.05.2016 19:32 14,8 C 87 % 993,7 hPa 0,0 l/m 19,4 km/h (3 Bft) O 80 0 min 0,000 mm 0,0 UV-I 19 W/m 12,7 C 9,6 C 27,4 km/h (4 Bft) 100,00 %
12.05.2016 19:33 14,8 C 87 % 993,7 hPa 0,0 l/m 19,1 km/h (3 Bft) O-NO 66 0 min 0,000 mm 0,0 UV-I 19 W/m 12,7 C 9,7 C 24,1 km/h (4 Bft) 100,00 %
12.05.2016 19:34 14,8 C 86 % 993,8 hPa 0,0 l/m 19,4 km/h (3 Bft) O 79 0 min 0,000 mm 0,0 UV-I 19 W/m 12,5 C 9,6 C 24,1 km/h (4 Bft) 100,00 %
12.05.2016 19:35 14,8 C 87 % 993,8 hPa 0,0 l/m 15,6 km/h (3 Bft) NO 45 0 min 0,000 mm 0,0 UV-I 18 W/m 12,7 C 10,8 C 20,9 km/h (4 Bft) 96,30 %
12.05.2016 19:36 14,8 C 87 % 993,8 hPa 0,0 l/m 21,0 km/h (4 Bft) O-NO 75 0 min 0,000 mm 0,0 UV-I 18 W/m 12,7 C 9,2 C 27,4 km/h (4 Bft) 100,00 %
12.05.2016 19:37 14,7 C 87 % 993,8 hPa 0,0 l/m 17,1 km/h (3 Bft) NO 56 0 min 0,000 mm 0,0 UV-I 18 W/m 12,6 C 10,2 C 22,5 km/h (4 Bft) 100,00 %
12.05.2016 19:38 14,7 C 87 % 993,8 hPa 0,0 l/m 16,6 km/h (3 Bft) O-NO 78 0 min 0,000 mm 0,0 UV-I 16 W/m 12,6 C 10,3 C 22,5 km/h (4 Bft) 100,00 %
12.05.2016 19:39 14,7 C 87 % 993,8 hPa 0,0 l/m 13,4 km/h (3 Bft) O 82 0 min 0,000 mm 0,0 UV-I 14 W/m 12,6 C 11,4 C 17,7 km/h (3 Bft) 100,00 %
12.05.2016 19:40 14,7 C 87 % 993,8 hPa 0,0 l/m 16,8 km/h (3 Bft) O-NO 76 0 min 0,000 mm 0,0 UV-I 14 W/m 12,6 C 10,3 C 22,5 km/h (4 Bft) 100,00 %
12.05.2016 19:41 14,7 C 87 % 993,8 hPa 0,0 l/m 14,0 km/h (3 Bft) O 86 0 min 0,000 mm 0,0 UV-I 14 W/m 12,6 C 11,2 C 17,7 km/h (3 Bft) 100,00 %
12.05.2016 19:42 14,7 C 87 % 993,9 hPa 0,0 l/m 12,7 km/h (3 Bft) O-NO 67 0 min 0,000 mm 0,0 UV-I 14 W/m 12,6 C 11,7 C 17,7 km/h (3 Bft) 100,00 %
12.05.2016 19:43 14,7 C 87 % 993,9 hPa 0,0 l/m 16,1 km/h (3 Bft) N-NO 32 0 min 0,000 mm 0,0 UV-I 14 W/m 12,6 C 10,5 C 20,9 km/h (4 Bft) 100,00 %
12.05.2016 19:44 14,7 C 87 % 993,9 hPa 0,0 l/m 15,1 km/h (3 Bft) O-NO 64 0 min 0,000 mm 0,0 UV-I 12 W/m 12,6 C 10,8 C 20,9 km/h (4 Bft) 100,00 %
12.05.2016 19:45 14,7 C 87 % 993,9 hPa 0,0 l/m 14,4 km/h (3 Bft) O-NO 57 0 min 0,000 mm 0,0 UV-I 12 W/m 12,6 C 11,0 C 19,3 km/h (3 Bft) 100,00 %
12.05.2016 19:46 14,7 C 87 % 993,9 hPa 0,0 l/m 12,3 km/h (3 Bft) O-NO 59 0 min 0,000 mm 0,0 UV-I 11 W/m 12,6 C 11,8 C 17,7 km/h (3 Bft) 94,12 %
12.05.2016 19:47 14,7 C 87 % 993,9 hPa 0,0 l/m 19,0 km/h (3 Bft) O-NO 57 0 min 0,000 mm 0,0 UV-I 10 W/m 12,6 C 9,6 C 24,1 km/h (4 Bft) 100,00 %
12.05.2016 19:48 14,7 C 87 % 993,9 hPa 0,0 l/m 18,5 km/h (3 Bft) NO 55 0 min 0,000 mm 0,0 UV-I 9 W/m 12,6 C 9,8 C 25,7 km/h (4 Bft) 95,65 %
12.05.2016 19:49 14,7 C 87 % 993,9 hPa 0,0 l/m 11,8 km/h (2 Bft) O 88 0 min 0,000 mm 0,0 UV-I 9 W/m 12,6 C 12,0 C 14,5 km/h (3 Bft) 100,00 %
12.05.2016 19:50 14,7 C 87 % 993,9 hPa 0,0 l/m 15,9 km/h (3 Bft) O-NO 60 0 min 0,000 mm 0,0 UV-I 9 W/m 12,6 C 10,5 C 24,1 km/h (4 Bft) 100,00 %
12.05.2016 19:51 14,7 C 87 % 993,9 hPa 0,0 l/m 10,0 km/h (2 Bft) O-NO 66 0 min 0,000 mm 0,0 UV-I 9 W/m 12,6 C 12,8 C 16,1 km/h (3 Bft) 100,00 %
12.05.2016 19:52 14,7 C 87 % 994,0 hPa 0,0 l/m 16,6 km/h (3 Bft) O-NO 75 0 min 0,000 mm 0,0 UV-I 8 W/m 12,6 C 10,3 C 20,9 km/h (4 Bft) 100,00 %
12.05.2016 19:53 14,7 C 87 % 993,9 hPa 0,0 l/m 14,0 km/h (3 Bft) NO 54 0 min 0,000 mm 0,0 UV-I 8 W/m 12,6 C 11,2 C 17,7 km/h (3 Bft) 100,00 %
12.05.2016 19:54 14,7 C 87 % 994,0 hPa 0,0 l/m 14,2 km/h (3 Bft) O-NO 69 0 min 0,000 mm 0,0 UV-I 9 W/m 12,6 C 11,1 C 22,5 km/h (4 Bft) 95,65 %
12.05.2016 19:55 14,7 C 87 % 994,0 hPa 0,0 l/m 10,2 km/h (2 Bft) O-NO 77 0 min 0,000 mm 0,0 UV-I 7 W/m 12,6 C 12,7 C 16,1 km/h (3 Bft) 100,00 %
12.05.2016 19:56 14,7 C 87 % 994,0 hPa 0,0 l/m 10,4 km/h (2 Bft) O-NO 71 0 min 0,000 mm 0,0 UV-I 7 W/m 12,6 C 12,6 C 17,7 km/h (3 Bft) 100,00 %
12.05.2016 19:57 14,6 C 87 % 994,0 hPa 0,0 l/m 11,0 km/h (2 Bft) NO 41 0 min 0,000 mm 0,0 UV-I 6 W/m 12,5 C 12,2 C 16,1 km/h (3 Bft) 100,00 %
12.05.2016 19:58 14,6 C 88 % 994,1 hPa 0,0 l/m 8,9 km/h (2 Bft) O-SO 119 0 min 0,000 mm 0,0 UV-I 6 W/m 12,6 C 13,2 C 14,5 km/h (3 Bft) 100,00 %
12.05.2016 19:59 14,6 C 87 % 994,1 hPa 0,0 l/m 13,3 km/h (3 Bft) O-NO 72 0 min 0,000 mm 0,0 UV-I 7 W/m 12,5 C 11,3 C 22,5 km/h (4 Bft) 100,00 %
12.05.2016 20:00 14,6 C 87 % 994,1 hPa 0,0 l/m 16,2 km/h (3 Bft) NO 38 0 min 0,000 mm 0,0 UV-I 6 W/m 12,5 C 10,3 C 25,7 km/h (4 Bft) 95,83 %
12.05.2016 20:01 14,6 C 87 % 994,1 hPa 0,0 l/m 15,3 km/h (3 Bft) O-NO 70 0 min 0,051 mm 0,0 UV-I 5 W/m 12,5 C 10,6 C 20,9 km/h (4 Bft) 95,65 %
12.05.2016 20:02 14,6 C 87 % 994,1 hPa 0,0 l/m 13,5 km/h (3 Bft) O-NO 74 0 min 0,000 mm 0,0 UV-I 5 W/m 12,5 C 11,2 C 19,3 km/h (3 Bft) 100,00 %
12.05.2016 20:03 14,6 C 87 % 994,1 hPa 0,0 l/m 14,1 km/h (3 Bft) O 95 0 min 0,000 mm 0,0 UV-I 5 W/m 12,5 C 11,0 C 22,5 km/h (4 Bft) 92,86 %
12.05.2016 20:04 14,6 C 87 % 994,1 hPa 0,0 l/m 14,2 km/h (3 Bft) NO 48 0 min 0,000 mm 0,0 UV-I 5 W/m 12,5 C 11,0 C 24,1 km/h (4 Bft) 100,00 %
12.05.2016 20:05 14,6 C 87 % 994,1 hPa 0,0 l/m 17,8 km/h (3 Bft) O-NO 69 0 min 0,000 mm 0,0 UV-I 5 W/m 12,5 C 9,8 C 22,5 km/h (4 Bft) 100,00 %
12.05.2016 20:06 14,6 C 87 % 994,1 hPa 0,0 l/m 21,8 km/h (4 Bft) O-NO 64 0 min 0,000 mm 0,0 UV-I 5 W/m 12,5 C 8,8 C 25,7 km/h (4 Bft) 100,00 %
12.05.2016 20:07 14,6 C 87 % 994,1 hPa 0,0 l/m 19,7 km/h (3 Bft) NO 48 0 min 0,000 mm 0,0 UV-I 5 W/m 12,5 C 9,3 C 27,4 km/h (4 Bft) 95,65 %
12.05.2016 20:08 14,6 C 87 % 994,1 hPa 0,0 l/m 21,0 km/h (4 Bft) O-NO 71 0 min 0,000 mm 0,0 UV-I 5 W/m 12,5 C 9,0 C 27,4 km/h (4 Bft) 100,00 %
12.05.2016 20:09 14,6 C 87 % 994,1 hPa 0,0 l/m 18,4 km/h (3 Bft) O 80 0 min 0,000 mm 0,0 UV-I 5 W/m 12,5 C 9,7 C 24,1 km/h (4 Bft) 100,00 %
12.05.2016 20:10 14,6 C 88 % 994,1 hPa 0,0 l/m 20,3 km/h (4 Bft) O 93 0 min 0,000 mm 0,0 UV-I 5 W/m 12,6 C 9,2 C 29,0 km/h (5 Bft) 100,00 %
12.05.2016 20:11 14,6 C 87 % 994,2 hPa 0,0 l/m 21,4 km/h (4 Bft) O 86 0 min 0,000 mm 0,0 UV-I 1 W/m 12,5 C 8,9 C 27,4 km/h (4 Bft) 98,63 %
12.05.2016 20:12 14,6 C 87 % 994,1 hPa 0,0 l/m 21,3 km/h (4 Bft) O 99 0 min 0,000 mm 0,0 UV-I 0 W/m 12,5 C 8,9 C 25,7 km/h (4 Bft) 98,21 %
12.05.2016 20:13 14,6 C 88 % 994,1 hPa 0,0 l/m 20,3 km/h (4 Bft) NO 54 0 min 0,000 mm 0,0 UV-I 0 W/m 12,6 C 9,2 C 24,1 km/h (4 Bft) 95,65 %
12.05.2016 20:14 14,6 C 88 % 994,1 hPa 0,0 l/m 24,5 km/h (4 Bft) O 89 0 min 0,000 mm 0,0 UV-I 0 W/m 12,6 C 8,2 C 32,2 km/h (5 Bft) 100,00 %
12.05.2016 20:15 14,6 C 88 % 994,2 hPa 0,0 l/m 29,6 km/h (5 Bft) NO 39 0 min 0,000 mm 0,0 UV-I 0 W/m 12,6 C 7,2 C 37,0 km/h (5 Bft) 100,00 %
12.05.2016 20:16 14,6 C 88 % 994,1 hPa 0,0 l/m 20,8 km/h (4 Bft) O 92 0 min 0,000 mm 0,0 UV-I 0 W/m 12,6 C 9,0 C 25,7 km/h (4 Bft) 100,00 %
12.05.2016 20:17 14,5 C 88 % 994,1 hPa 0,0 l/m 21,8 km/h (4 Bft) O-NO 75 0 min 0,000 mm 0,0 UV-I 0 W/m 12,5 C 8,6 C 30,6 km/h (5 Bft) 98,63 %
12.05.2016 20:18 14,6 C 88 % 994,2 hPa 0,0 l/m 18,1 km/h (3 Bft) O-NO 72 0 min 0,000 mm 0,0 UV-I 0 W/m 12,6 C 9,7 C 25,7 km/h (4 Bft) 100,00 %
12.05.2016 20:19 14,5 C 88 % 994,1 hPa 0,0 l/m 14,5 km/h (3 Bft) O 82 0 min 0,000 mm 0,0 UV-I 0 W/m 12,5 C 10,8 C 20,9 km/h (4 Bft) 100,00 %
12.05.2016 20:20 14,5 C 88 % 994,2 hPa 0,0 l/m 18,7 km/h (3 Bft) O-NO 63 0 min 0,000 mm 0,0 UV-I 0 W/m 12,5 C 9,5 C 25,7 km/h (4 Bft) 96,15 %
12.05.2016 20:21 14,5 C 88 % 994,2 hPa 0,0 l/m 17,6 km/h (3 Bft) O-NO 75 0 min 0,000 mm 0,0 UV-I 0 W/m 12,5 C 9,8 C 24,1 km/h (4 Bft) 100,00 %
12.05.2016 20:22 14,5 C 88 % 994,1 hPa 0,0 l/m 17,8 km/h (3 Bft) O-NO 68 0 min 0,000 mm 0,0 UV-I 0 W/m 12,5 C 9,7 C 24,1 km/h (4 Bft) 96,43 %
12.05.2016 20:23 14,5 C 88 % 994,2 hPa 0,0 l/m 19,5 km/h (3 Bft) NO 51 0 min 0,000 mm 0,0 UV-I 0 W/m 12,5 C 9,2 C 24,1 km/h (4 Bft) 100,00 %
12.05.2016 20:24 14,5 C 88 % 994,2 hPa 0,0 l/m 12,7 km/h (3 Bft) O 89 0 min 0,000 mm 0,0 UV-I 0 W/m 12,5 C 11,4 C 19,3 km/h (3 Bft) 100,00 %
12.05.2016 20:25 14,5 C 88 % 994,2 hPa 0,0 l/m 13,0 km/h (3 Bft) O-NO 76 0 min 0,000 mm 0,0 UV-I 0 W/m 12,5 C 11,3 C 17,7 km/h (3 Bft) 100,00 %
12.05.2016 20:26 14,5 C 88 % 994,2 hPa 0,0 l/m 14,6 km/h (3 Bft) O 80 0 min 0,000 mm 0,0 UV-I 0 W/m 12,5 C 10,7 C 19,3 km/h (3 Bft) 96,15 %
12.05.2016 20:27 14,5 C 88 % 994,2 hPa 0,0 l/m 13,6 km/h (3 Bft) O-NO 76 0 min 0,000 mm 0,0 UV-I 0 W/m 12,5 C 11,1 C 16,1 km/h (3 Bft) 100,00 %
12.05.2016 20:28 14,4 C 88 % 994,2 hPa 0,0 l/m 8,8 km/h (2 Bft) O-NO 63 0 min 0,000 mm 0,0 UV-I 0 W/m 12,4 C 13,0 C 17,7 km/h (3 Bft) 96,55 %
12.05.2016 20:29 14,5 C 88 % 994,3 hPa 0,0 l/m 10,5 km/h (2 Bft) O-NO 73 0 min 0,000 mm 0,0 UV-I 0 W/m 12,5 C 12,3 C 17,7 km/h (3 Bft) 100,00 %
12.05.2016 20:30 14,4 C 89 % 994,2 hPa 0,0 l/m 15,7 km/h (3 Bft) O-NO 74 0 min 0,000 mm 0,0 UV-I 0 W/m 12,6 C 10,2 C 19,3 km/h (3 Bft) 100,00 %
12.05.2016 20:31 14,5 C 89 % 994,2 hPa 0,0 l/m 12,0 km/h (2 Bft) O-SO 109 0 min 0,000 mm 0,0 UV-I 0 W/m 12,7 C 11,7 C 17,7 km/h (3 Bft) 100,00 %
12.05.2016 20:32 14,4 C 89 % 994,3 hPa 0,0 l/m 11,9 km/h (2 Bft) O-NO 67 0 min 0,000 mm 0,0 UV-I 0 W/m 12,6 C 11,6 C 14,5 km/h (3 Bft) 96,15 %
12.05.2016 20:33 14,4 C 89 % 994,3 hPa 0,0 l/m 16,5 km/h (3 Bft) O 88 0 min 0,000 mm 0,0 UV-I 0 W/m 12,6 C 10,0 C 19,3 km/h (3 Bft) 100,00 %
12.05.2016 20:34 14,4 C 89 % 994,3 hPa 0,0 l/m 11,5 km/h (2 Bft) O 98 0 min 0,000 mm 0,0 UV-I 0 W/m 12,6 C 11,8 C 16,1 km/h (3 Bft) 100,00 %
12.05.2016 20:35 14,4 C 89 % 994,3 hPa 0,0 l/m 10,5 km/h (2 Bft) O-NO 67 0 min 0,000 mm 0,0 UV-I 0 W/m 12,6 C 12,2 C 14,5 km/h (3 Bft) 100,00 %
12.05.2016 20:36 14,4 C 89 % 994,3 hPa 0,0 l/m 7,8 km/h (2 Bft) O 97 0 min 0,000 mm 0,0 UV-I 0 W/m 12,6 C 13,6 C 14,5 km/h (3 Bft) 100,00 %
12.05.2016 20:37 14,4 C 89 % 994,2 hPa 0,0 l/m 13,1 km/h (3 Bft) O 84 0 min 0,000 mm 0,0 UV-I 0 W/m 12,6 C 11,1 C 20,9 km/h (4 Bft) 95,83 %
12.05.2016 20:38 14,4 C 88 % 994,2 hPa 0,0 l/m 20,4 km/h (4 Bft) SO 144 0 min 0,000 mm 0,0 UV-I 0 W/m 12,4 C 8,9 C 29,0 km/h (5 Bft) 96,15 %
12.05.2016 20:39 14,4 C 88 % 994,3 hPa 0,0 l/m 15,1 km/h (3 Bft) O-SO 108 0 min 0,000 mm 0,0 UV-I 0 W/m 12,4 C 10,4 C 19,3 km/h (3 Bft) 100,00 %
12.05.2016 20:40 14,4 C 88 % 994,2 hPa 0,0 l/m 14,8 km/h (3 Bft) SO 140 0 min 0,000 mm 0,0 UV-I 0 W/m 12,4 C 10,5 C 19,3 km/h (3 Bft) 96,67 %
12.05.2016 20:41 14,3 C 88 % 994,3 hPa 0,0 l/m 3,9 km/h (1 Bft) S-SO 165 0 min 0,000 mm 0,0 UV-I 0 W/m 12,3 C 14,3 C 8,0 km/h (2 Bft) 100,00 %
12.05.2016 20:42 14,3 C 88 % 994,3 hPa 0,0 l/m 3,5 km/h (1 Bft) SW 227 0 min 0,000 mm 0,0 UV-I 0 W/m 12,3 C 14,3 C 4,8 km/h (1 Bft) 91,67 %
12.05.2016 20:43 14,3 C 88 % 994,3 hPa 0,0 l/m 3,8 km/h (1 Bft) S-SW 194 0 min 0,000 mm 0,0 UV-I 0 W/m 12,3 C 14,3 C 6,4 km/h (2 Bft) 100,00 %
12.05.2016 20:44 14,3 C 88 % 994,4 hPa 0,0 l/m 5,6 km/h (1 Bft) SW 224 0 min 0,000 mm 0,0 UV-I 0 W/m 12,3 C 14,3 C 9,7 km/h (2 Bft) 96,30 %
12.05.2016 20:45 14,2 C 88 % 994,3 hPa 0,0 l/m 6,8 km/h (2 Bft) SW 227 0 min 0,000 mm 0,0 UV-I 0 W/m 12,2 C 14,0 C 11,3 km/h (2 Bft) 100,00 %
12.05.2016 20:46 14,2 C 88 % 994,3 hPa 0,0 l/m 12,8 km/h (3 Bft) S-SW 202 0 min 0,000 mm 0,0 UV-I 0 W/m 12,2 C 11,0 C 16,1 km/h (3 Bft) 91,67 %
12.05.2016 20:47 14,2 C 89 % 994,4 hPa 0,0 l/m 10,3 km/h (2 Bft) S 172 0 min 0,000 mm 0,0 UV-I 0 W/m 12,4 C 12,1 C 16,1 km/h (3 Bft) 93,75 %
12.05.2016 20:48 14,1 C 89 % 994,4 hPa 0,0 l/m 5,8 km/h (2 Bft) S 176 0 min 0,000 mm 0,0 UV-I 0 W/m 12,3 C 14,1 C 9,7 km/h (2 Bft) 100,00 %
12.05.2016 20:49 14,1 C 89 % 994,4 hPa 0,0 l/m 4,6 km/h (1 Bft) S 188 0 min 0,000 mm 0,0 UV-I 0 W/m 12,3 C 14,1 C 6,4 km/h (2 Bft) 86,96 %
12.05.2016 20:50 14,1 C 89 % 994,4 hPa 0,0 l/m 13,0 km/h (3 Bft) W-SW 251 0 min 0,000 mm 0,0 UV-I 0 W/m 12,3 C 10,8 C 16,1 km/h (3 Bft) 100,00 %
12.05.2016 20:51 14,0 C 89 % 994,4 hPa 0,0 l/m 15,9 km/h (3 Bft) W-SW 247 0 min 0,000 mm 0,0 UV-I 0 W/m 12,2 C 9,7 C 24,1 km/h (4 Bft) 95,65 %
12.05.2016 20:52 13,9 C 89 % 994,4 hPa 0,0 l/m 10,5 km/h (2 Bft) SW 227 0 min 0,000 mm 0,0 UV-I 0 W/m 12,1 C 11,7 C 16,1 km/h (3 Bft) 100,00 %
12.05.2016 20:53 13,9 C 89 % 994,3 hPa 0,0 l/m 14,3 km/h (3 Bft) W 264 0 min 0,000 mm 0,0 UV-I 0 W/m 12,1 C 10,1 C 29,0 km/h (5 Bft) 96,15 %
12.05.2016 20:54 13,8 C 89 % 994,3 hPa 0,2 l/m 16,3 km/h (3 Bft) W-SW 237 0 min 0,000 mm 0,0 UV-I 0 W/m 12,0 C 9,3 C 25,7 km/h (4 Bft) 100,00 %
12.05.2016 20:55 13,8 C 89 % 994,4 hPa 0,0 l/m 16,9 km/h (3 Bft) S-SW 209 0 min 0,000 mm 0,0 UV-I 0 W/m 12,0 C 9,1 C 24,1 km/h (4 Bft) 96,15 %
12.05.2016 20:56 13,7 C 89 % 994,4 hPa 0,0 l/m 17,8 km/h (3 Bft) W-SW 238 0 min 0,000 mm 0,0 UV-I 0 W/m 11,9 C 8,7 C 27,4 km/h (4 Bft) 92,59 %
12.05.2016 20:57 13,7 C 89 % 994,4 hPa 0,0 l/m 17,1 km/h (3 Bft) W-SW 243 0 min 0,000 mm 0,0 UV-I 0 W/m 11,9 C 8,9 C 25,7 km/h (4 Bft) 100,00 %
12.05.2016 20:58 13,6 C 89 % 994,4 hPa 0,0 l/m 13,1 km/h (3 Bft) W-SW 245 0 min 0,000 mm 0,0 UV-I 0 W/m 11,8 C 10,2 C 20,9 km/h (4 Bft) 93,33 %
12.05.2016 20:59 13,5 C 89 % 994,4 hPa 0,0 l/m 16,6 km/h (3 Bft) W-SW 240 0 min 0,000 mm 0,0 UV-I 0 W/m 11,7 C 8,8 C 22,5 km/h (4 Bft) 100,00 %
12.05.2016 21:00 13,4 C 89 % 994,4 hPa 0,0 l/m 16,8 km/h (3 Bft) SW 234 0 min 0,000 mm 0,0 UV-I 0 W/m 11,6 C 8,6 C 27,4 km/h (4 Bft) 96,15 %
12.05.2016 21:01 13,4 C 90 % 994,4 hPa 0,0 l/m 22,9 km/h (4 Bft) W-SW 255 0 min 0,025 mm 0,0 UV-I 0 W/m 11,8 C 6,9 C 32,2 km/h (5 Bft) 100,00 %
12.05.2016 21:02 13,3 C 89 % 994,5 hPa 0,0 l/m 19,8 km/h (3 Bft) S-SW 204 0 min 0,000 mm 0,0 UV-I 0 W/m 11,5 C 7,6 C 25,7 km/h (4 Bft) 81,82 %
12.05.2016 21:03 13,3 C 89 % 994,5 hPa 0,0 l/m 18,0 km/h (3 Bft) W-SW 256 0 min 0,000 mm 0,0 UV-I 0 W/m 11,5 C 8,1 C 20,9 km/h (4 Bft) 100,00 %
12.05.2016 21:04 13,2 C 90 % 994,5 hPa 0,0 l/m 16,6 km/h (3 Bft) W-SW 250 0 min 0,000 mm 0,0 UV-I 0 W/m 11,6 C 8,5 C 22,5 km/h (4 Bft) 92,31 %
12.05.2016 21:05 13,1 C 90 % 994,5 hPa 0,0 l/m 19,2 km/h (3 Bft) W-SW 242 0 min 0,000 mm 0,0 UV-I 0 W/m 11,5 C 7,5 C 25,7 km/h (4 Bft) 96,30 %
12.05.2016 21:06 13,1 C 90 % 994,5 hPa 0,0 l/m 15,2 km/h (3 Bft) W-SW 250 0 min 0,000 mm 0,0 UV-I 0 W/m 11,5 C 8,8 C 22,5 km/h (4 Bft) 100,00 %
12.05.2016 21:07 13,0 C 90 % 994,6 hPa 0,0 l/m 12,9 km/h (3 Bft) SW 216 0 min 0,000 mm 0,0 UV-I 0 W/m 11,4 C 9,6 C 20,9 km/h (4 Bft) 95,83 %
12.05.2016 21:08 12,9 C 90 % 994,6 hPa 0,0 l/m 17,7 km/h (3 Bft) SW 230 0 min 0,000 mm 0,0 UV-I 0 W/m 11,3 C 7,7 C 24,1 km/h (4 Bft) 92,86 %
12.05.2016 21:09 12,9 C 91 % 994,6 hPa 0,0 l/m 19,7 km/h (3 Bft) S-SW 194 0 min 0,000 mm 0,0 UV-I 0 W/m 11,5 C 7,1 C 25,7 km/h (4 Bft) 100,00 %
12.05.2016 21:10 12,8 C 91 % 994,6 hPa 0,0 l/m 19,7 km/h (3 Bft) S-SW 195 0 min 0,000 mm 0,0 UV-I 0 W/m 11,4 C 7,0 C 25,7 km/h (4 Bft) 100,00 %
12.05.2016 21:11 12,8 C 91 % 994,6 hPa 0,2 l/m 18,5 km/h (3 Bft) S-SW 193 0 min 0,000 mm 0,0 UV-I 0 W/m 11,4 C 7,3 C 24,1 km/h (4 Bft) 100,00 %
12.05.2016 21:12 12,8 C 91 % 994,6 hPa 0,0 l/m 17,8 km/h (3 Bft) SW 235 0 min 0,000 mm 0,0 UV-I 0 W/m 11,4 C 7,6 C 25,7 km/h (4 Bft) 95,65 %
12.05.2016 21:13 12,7 C 91 % 994,6 hPa 0,0 l/m 9,8 km/h (2 Bft) W-SW 240 0 min 0,000 mm 0,0 UV-I 0 W/m 11,3 C 10,7 C 14,5 km/h (3 Bft) 100,00 %
12.05.2016 21:14 12,7 C 91 % 994,6 hPa 0,0 l/m 16,8 km/h (3 Bft) W-SW 242 0 min 0,000 mm 0,0 UV-I 0 W/m 11,3 C 7,8 C 24,1 km/h (4 Bft) 100,00 %
12.05.2016 21:15 12,7 C 92 % 994,6 hPa 0,0 l/m 15,1 km/h (3 Bft) W-SW 253 0 min 0,000 mm 0,0 UV-I 0 W/m 11,4 C 8,4 C 17,7 km/h (3 Bft) 93,10 %
12.05.2016 21:16 12,6 C 92 % 994,6 hPa 0,2 l/m 17,2 km/h (3 Bft) S-SW 203 0 min 0,000 mm 0,0 UV-I 0 W/m 11,3 C 7,5 C 24,1 km/h (4 Bft) 100,00 %
12.05.2016 21:17 12,6 C 92 % 994,6 hPa 0,0 l/m 25,3 km/h (4 Bft) W 267 0 min 0,000 mm 0,0 UV-I 0 W/m 11,3 C 5,3 C 32,2 km/h (5 Bft) 100,00 %
12.05.2016 21:18 12,6 C 92 % 994,6 hPa 0,0 l/m 22,8 km/h (4 Bft) W 262 0 min 0,000 mm 0,0 UV-I 0 W/m 11,3 C 5,9 C 29,0 km/h (5 Bft) 100,00 %
12.05.2016 21:19 12,5 C 92 % 994,6 hPa 0,0 l/m 17,8 km/h (3 Bft) W-SW 258 0 min 0,000 mm 0,0 UV-I 0 W/m 11,2 C 7,2 C 22,5 km/h (4 Bft) 98,58 %
12.05.2016 21:20 12,5 C 92 % 994,6 hPa 0,0 l/m 18,0 km/h (3 Bft) W 280 0 min 0,000 mm 0,0 UV-I 0 W/m 11,2 C 7,1 C 25,7 km/h (4 Bft) 100,00 %
12.05.2016 21:21 12,5 C 92 % 994,6 hPa 0,0 l/m 17,8 km/h (3 Bft) W 265 0 min 0,000 mm 0,0 UV-I 0 W/m 11,2 C 7,2 C 24,1 km/h (4 Bft) 100,00 %
12.05.2016 21:22 12,5 C 92 % 994,6 hPa 0,0 l/m 14,2 km/h (3 Bft) W-SW 258 0 min 0,000 mm 0,0 UV-I 0 W/m 11,2 C 8,5 C 20,9 km/h (4 Bft) 100,00 %
12.05.2016 21:23 12,4 C 92 % 994,7 hPa 0,2 l/m 22,8 km/h (4 Bft) W 261 0 min 0,000 mm 0,0 UV-I 0 W/m 11,1 C 5,6 C 30,6 km/h (5 Bft) 100,00 %
12.05.2016 21:24 12,4 C 92 % 994,7 hPa 0,0 l/m 18,6 km/h (3 Bft) W-SW 258 0 min 0,000 mm 0,0 UV-I 0 W/m 11,1 C 6,8 C 27,4 km/h (4 Bft) 100,00 %
12.05.2016 21:25 12,4 C 93 % 994,7 hPa 0,0 l/m 19,6 km/h (3 Bft) W-SW 242 0 min 0,000 mm 0,0 UV-I 0 W/m 11,3 C 6,5 C 33,8 km/h (5 Bft) 100,00 %
12.05.2016 21:26 12,3 C 93 % 994,7 hPa 0,2 l/m 15,3 km/h (3 Bft) W 265 0 min 0,000 mm 0,0 UV-I 0 W/m 11,2 C 7,8 C 29,0 km/h (5 Bft) 100,00 %
12.05.2016 21:27 12,3 C 93 % 994,8 hPa 0,0 l/m 15,9 km/h (3 Bft) W 263 0 min 0,000 mm 0,0 UV-I 0 W/m 11,2 C 7,6 C 20,9 km/h (4 Bft) 100,00 %
12.05.2016 21:28 12,3 C 93 % 994,8 hPa 0,0 l/m 21,5 km/h (4 Bft) W-SW 242 0 min 0,000 mm 0,0 UV-I 0 W/m 11,2 C 5,8 C 30,6 km/h (5 Bft) 96,67 %
12.05.2016 21:29 12,3 C 93 % 994,8 hPa 0,0 l/m 18,4 km/h (3 Bft) W-SW 258 0 min 0,000 mm 0,0 UV-I 0 W/m 11,2 C 6,7 C 25,7 km/h (4 Bft) 100,00 %
12.05.2016 21:30 12,3 C 93 % 994,9 hPa 0,0 l/m 17,8 km/h (3 Bft) W 266 0 min 0,000 mm 0,0 UV-I 0 W/m 11,2 C 6,9 C 25,7 km/h (4 Bft) 96,30 %
12.05.2016 21:31 12,2 C 93 % 994,9 hPa 0,0 l/m 17,5 km/h (3 Bft) S-SW 204 0 min 0,000 mm 0,0 UV-I 0 W/m 11,1 C 6,9 C 25,7 km/h (4 Bft) 100,00 %
12.05.2016 21:32 12,2 C 93 % 994,9 hPa 0,2 l/m 21,6 km/h (4 Bft) W-SW 251 0 min 0,000 mm 0,0 UV-I 0 W/m 11,1 C 5,7 C 27,4 km/h (4 Bft) 100,00 %
12.05.2016 21:33 12,2 C 93 % 994,9 hPa 0,0 l/m 19,2 km/h (3 Bft) SW 220 0 min 0,000 mm 0,0 UV-I 0 W/m 11,1 C 6,4 C 27,4 km/h (4 Bft) 96,67 %
12.05.2016 21:34 12,2 C 93 % 994,9 hPa 0,0 l/m 17,3 km/h (3 Bft) W 259 0 min 0,000 mm 0,0 UV-I 0 W/m 11,1 C 7,0 C 24,1 km/h (4 Bft) 100,00 %
12.05.2016 21:35 12,2 C 93 % 994,9 hPa 0,2 l/m 15,2 km/h (3 Bft) W-SW 251 0 min 0,000 mm 0,0 UV-I 0 W/m 11,1 C 7,7 C 20,9 km/h (4 Bft) 100,00 %
12.05.2016 21:36 12,1 C 93 % 995,0 hPa 0,0 l/m 17,7 km/h (3 Bft) W-SW 248 0 min 0,000 mm 0,0 UV-I 0 W/m 11,0 C 6,7 C 27,4 km/h (4 Bft) 100,00 %
12.05.2016 21:37 12,1 C 93 % 995,0 hPa 0,0 l/m 15,4 km/h (3 Bft) W-SW 248 0 min 0,000 mm 0,0 UV-I 0 W/m 11,0 C 7,5 C 22,5 km/h (4 Bft) 100,00 %
12.05.2016 21:38 12,1 C 93 % 995,0 hPa 0,0 l/m 17,6 km/h (3 Bft) W-SW 252 0 min 0,000 mm 0,0 UV-I 0 W/m 11,0 C 6,8 C 24,1 km/h (4 Bft) 100,00 %
12.05.2016 21:39 12,1 C 93 % 995,0 hPa 0,0 l/m 14,1 km/h (3 Bft) W 260 0 min 0,000 mm 0,0 UV-I 0 W/m 11,0 C 8,0 C 17,7 km/h (3 Bft) 100,00 %
12.05.2016 21:40 12,1 C 93 % 995,0 hPa 0,0 l/m 14,6 km/h (3 Bft) W 260 0 min 0,000 mm 0,0 UV-I 0 W/m 11,0 C 7,8 C 19,3 km/h (3 Bft) 100,00 %
12.05.2016 21:41 12,1 C 93 % 995,0 hPa 0,2 l/m 13,4 km/h (3 Bft) W 270 0 min 0,000 mm 0,0 UV-I 0 W/m 11,0 C 8,3 C 16,1 km/h (3 Bft) 100,00 %
12.05.2016 21:42 12,0 C 93 % 995,1 hPa 0,0 l/m 15,4 km/h (3 Bft) W-SW 254 0 min 0,000 mm 0,0 UV-I 0 W/m 10,9 C 7,4 C 22,5 km/h (4 Bft) 96,15 %
12.05.2016 21:43 12,0 C 93 % 995,0 hPa 0,2 l/m 17,5 km/h (3 Bft) W 260 0 min 0,000 mm 0,0 UV-I 0 W/m 10,9 C 6,7 C 24,1 km/h (4 Bft) 100,00 %
12.05.2016 21:44 12,0 C 94 % 995,0 hPa 0,0 l/m 11,8 km/h (2 Bft) W-SW 257 0 min 0,000 mm 0,0 UV-I 0 W/m 11,1 C 8,9 C 16,1 km/h (3 Bft) 96,15 %
12.05.2016 21:45 11,9 C 94 % 995,1 hPa 0,2 l/m 11,7 km/h (2 Bft) W-SW 251 0 min 0,000 mm 0,0 UV-I 0 W/m 11,0 C 8,8 C 17,7 km/h (3 Bft) 100,00 %
12.05.2016 21:46 11,9 C 94 % 995,1 hPa 0,0 l/m 11,4 km/h (2 Bft) W 279 0 min 0,000 mm 0,0 UV-I 0 W/m 11,0 C 9,0 C 14,5 km/h (3 Bft) 96,88 %
12.05.2016 21:47 11,9 C 94 % 995,0 hPa 0,2 l/m 12,6 km/h (3 Bft) W-SW 254 0 min 0,000 mm 0,0 UV-I 0 W/m 11,0 C 8,4 C 17,7 km/h (3 Bft) 100,00 %
12.05.2016 21:48 11,9 C 94 % 995,1 hPa 0,0 l/m 11,7 km/h (2 Bft) W-SW 254 0 min 0,000 mm 0,0 UV-I 0 W/m 11,0 C 8,8 C 16,1 km/h (3 Bft) 100,00 %
12.05.2016 21:49 11,9 C 94 % 995,1 hPa 0,2 l/m 7,3 km/h (2 Bft) SW 221 0 min 0,000 mm 0,0 UV-I 0 W/m 11,0 C 11,3 C 11,3 km/h (2 Bft) 100,00 %
12.05.2016 21:50 11,9 C 94 % 995,1 hPa 0,2 l/m 11,6 km/h (2 Bft) W-SW 257 0 min 0,000 mm 0,0 UV-I 0 W/m 11,0 C 8,9 C 14,5 km/h (3 Bft) 91,30 %
12.05.2016 21:51 11,9 C 94 % 995,1 hPa 0,0 l/m 15,2 km/h (3 Bft) W 260 0 min 0,000 mm 0,0 UV-I 0 W/m 11,0 C 7,4 C 17,7 km/h (3 Bft) 100,00 %
12.05.2016 21:52 11,9 C 94 % 995,1 hPa 0,2 l/m 9,6 km/h (2 Bft) SW 234 0 min 0,000 mm 0,0 UV-I 0 W/m 11,0 C 9,9 C 14,5 km/h (3 Bft) 100,00 %
12.05.2016 21:53 11,9 C 94 % 995,2 hPa 0,0 l/m 12,5 km/h (3 Bft) W-SW 249 0 min 0,000 mm 0,0 UV-I 0 W/m 11,0 C 8,5 C 16,1 km/h (3 Bft) 100,00 %
12.05.2016 21:54 11,9 C 94 % 995,2 hPa 0,2 l/m 8,5 km/h (2 Bft) W-SW 251 0 min 0,000 mm 0,0 UV-I 0 W/m 11,0 C 10,5 C 11,3 km/h (2 Bft) 100,00 %
12.05.2016 21:55 11,9 C 94 % 995,2 hPa 0,0 l/m 7,3 km/h (2 Bft) W-SW 250 0 min 0,000 mm 0,0 UV-I 0 W/m 11,0 C 11,3 C 9,7 km/h (2 Bft) 100,00 %
12.05.2016 21:56 11,9 C 94 % 995,2 hPa 0,0 l/m 8,9 km/h (2 Bft) W-SW 250 0 min 0,000 mm 0,0 UV-I 0 W/m 11,0 C 10,3 C 14,5 km/h (3 Bft) 96,55 %
12.05.2016 21:57 11,9 C 94 % 995,2 hPa 0,0 l/m 7,5 km/h (2 Bft) W 273 0 min 0,000 mm 0,0 UV-I 0 W/m 11,0 C 11,2 C 11,3 km/h (2 Bft) 93,33 %
12.05.2016 21:58 11,9 C 94 % 995,2 hPa 0,2 l/m 10,5 km/h (2 Bft) W 265 0 min 0,000 mm 0,0 UV-I 0 W/m 11,0 C 9,4 C 17,7 km/h (3 Bft) 100,00 %
12.05.2016 21:59 11,9 C 94 % 995,2 hPa 0,0 l/m 9,7 km/h (2 Bft) W 270 0 min 0,000 mm 0,0 UV-I 0 W/m 11,0 C 9,9 C 16,1 km/h (3 Bft) 100,00 %
12.05.2016 22:00 11,8 C 95 % 995,2 hPa 0,2 l/m 11,3 km/h (2 Bft) W-SW 239 0 min 0,000 mm 0,0 UV-I 0 W/m 11,0 C 8,9 C 16,1 km/h (3 Bft) 100,00 %
12.05.2016 22:01 11,9 C 95 % 995,2 hPa 0,0 l/m 12,2 km/h (2 Bft) SW 234 0 min 0,025 mm 0,0 UV-I 0 W/m 11,1 C 8,6 C 16,1 km/h (3 Bft) 100,00 %
12.05.2016 22:02 11,8 C 95 % 995,3 hPa 0,0 l/m 10,1 km/h (2 Bft) W-SW 239 0 min 0,000 mm 0,0 UV-I 0 W/m 11,0 C 9,5 C 14,5 km/h (3 Bft) 100,00 %
12.05.2016 22:03 11,9 C 95 % 995,2 hPa 0,2 l/m 9,2 km/h (2 Bft) SW 227 0 min 0,000 mm 0,0 UV-I 0 W/m 11,1 C 10,1 C 12,9 km/h (3 Bft) 100,00 %
12.05.2016 22:04 11,9 C 95 % 995,3 hPa 0,2 l/m 10,2 km/h (2 Bft) W 262 0 min 0,000 mm 0,0 UV-I 0 W/m 11,1 C 9,6 C 14,5 km/h (3 Bft) 100,00 %
12.05.2016 22:05 11,8 C 95 % 995,3 hPa 0,0 l/m 9,4 km/h (2 Bft) SW 218 0 min 0,000 mm 0,0 UV-I 0 W/m 11,0 C 9,9 C 12,9 km/h (3 Bft) 100,00 %
12.05.2016 22:06 11,9 C 95 % 995,3 hPa 0,2 l/m 11,1 km/h (2 Bft) W-SW 251 0 min 0,000 mm 0,0 UV-I 0 W/m 11,1 C 9,1 C 16,1 km/h (3 Bft) 100,00 %
12.05.2016 22:07 11,8 C 95 % 995,3 hPa 0,0 l/m 9,8 km/h (2 Bft) SW 214 0 min 0,000 mm 0,0 UV-I 0 W/m 11,0 C 9,7 C 16,1 km/h (3 Bft) 100,00 %
12.05.2016 22:08 11,8 C 95 % 995,3 hPa 0,2 l/m 10,5 km/h (2 Bft) W-SW 255 0 min 0,000 mm 0,0 UV-I 0 W/m 11,0 C 9,3 C 16,1 km/h (3 Bft) 100,00 %
12.05.2016 22:09 11,8 C 95 % 995,3 hPa 0,0 l/m 11,0 km/h (2 Bft) W 260 0 min 0,000 mm 0,0 UV-I 0 W/m 11,0 C 9,1 C 12,9 km/h (3 Bft) 92,31 %
12.05.2016 22:10 11,8 C 95 % 995,3 hPa 0,0 l/m 9,2 km/h (2 Bft) W-SW 258 0 min 0,000 mm 0,0 UV-I 0 W/m 11,0 C 10,0 C 12,9 km/h (3 Bft) 100,00 %
12.05.2016 22:11 11,8 C 95 % 995,3 hPa 0,2 l/m 8,7 km/h (2 Bft) W-SW 255 0 min 0,000 mm 0,0 UV-I 0 W/m 11,0 C 10,3 C 11,3 km/h (2 Bft) 100,00 %
12.05.2016 22:12 11,8 C 95 % 995,3 hPa 0,0 l/m 8,4 km/h (2 Bft) W-SW 244 0 min 0,000 mm 0,0 UV-I 0 W/m 11,0 C 10,5 C 12,9 km/h (3 Bft) 100,00 %
12.05.2016 22:13 11,8 C 95 % 995,3 hPa 0,2 l/m 6,8 km/h (2 Bft) W-SW 258 0 min 0,000 mm 0,0 UV-I 0 W/m 11,0 C 11,5 C 9,7 km/h (2 Bft) 100,00 %
12.05.2016 22:14 11,8 C 95 % 995,3 hPa 0,0 l/m 6,9 km/h (2 Bft) SW 218 0 min 0,000 mm 0,0 UV-I 0 W/m 11,0 C 11,5 C 9,7 km/h (2 Bft) 100,00 %
12.05.2016 22:15 11,8 C 95 % 995,3 hPa 0,2 l/m 10,9 km/h (2 Bft) W-SW 246 0 min 0,000 mm 0,0 UV-I 0 W/m 11,0 C 9,1 C 14,5 km/h (3 Bft) 100,00 %
12.05.2016 22:16 11,8 C 95 % 995,3 hPa 0,2 l/m 9,7 km/h (2 Bft) W 260 0 min 0,000 mm 0,0 UV-I 0 W/m 11,0 C 9,7 C 16,1 km/h (3 Bft) 100,00 %
12.05.2016 22:17 11,9 C 95 % 995,3 hPa 0,0 l/m 9,5 km/h (2 Bft) SW 236 0 min 0,000 mm 0,0 UV-I 0 W/m 11,1 C 10,0 C 14,5 km/h (3 Bft) 100,00 %
12.05.2016 22:18 11,8 C 95 % 995,3 hPa 0,2 l/m 9,9 km/h (2 Bft) W-SW 250 0 min 0,000 mm 0,0 UV-I 0 W/m 11,0 C 9,6 C 14,5 km/h (3 Bft) 100,00 %
12.05.2016 22:19 11,8 C 95 % 995,3 hPa 0,2 l/m 8,4 km/h (2 Bft) SW 234 0 min 0,000 mm 0,0 UV-I 0 W/m 11,0 C 10,5 C 17,7 km/h (3 Bft) 100,00 %
12.05.2016 22:20 11,8 C 95 % 995,3 hPa 0,0 l/m 15,9 km/h (3 Bft) SW 233 0 min 0,000 mm 0,0 UV-I 0 W/m 11,0 C 7,0 C 20,9 km/h (4 Bft) 100,00 %
12.05.2016 22:21 11,8 C 95 % 995,3 hPa 0,0 l/m 13,8 km/h (3 Bft) SW 228 0 min 0,000 mm 0,0 UV-I 0 W/m 11,0 C 7,8 C 20,9 km/h (4 Bft) 100,00 %
12.05.2016 22:22 11,8 C 95 % 995,3 hPa 0,2 l/m 15,7 km/h (3 Bft) SW 234 0 min 0,000 mm 0,0 UV-I 0 W/m 11,0 C 7,0 C 22,5 km/h (4 Bft) 100,00 %
12.05.2016 22:23 11,8 C 95 % 995,2 hPa 0,0 l/m 15,0 km/h (3 Bft) SW 225 0 min 0,000 mm 0,0 UV-I 0 W/m 11,0 C 7,3 C 20,9 km/h (4 Bft) 100,00 %
12.05.2016 22:24 11,8 C 95 % 995,3 hPa 0,2 l/m 16,5 km/h (3 Bft) SW 234 0 min 0,000 mm 0,0 UV-I 0 W/m 11,0 C 6,8 C 20,9 km/h (4 Bft) 100,00 %
12.05.2016 22:25 11,8 C 95 % 995,3 hPa 0,0 l/m 17,8 km/h (3 Bft) SW 229 0 min 0,000 mm 0,0 UV-I 0 W/m 11,0 C 6,3 C 24,1 km/h (4 Bft) 100,00 %
12.05.2016 22:26 11,8 C 95 % 995,3 hPa 0,2 l/m 14,2 km/h (3 Bft) SW 227 0 min 0,000 mm 0,0 UV-I 0 W/m 11,0 C 7,6 C 20,9 km/h (4 Bft) 100,00 %
12.05.2016 22:27 11,8 C 95 % 995,3 hPa 0,2 l/m 12,1 km/h (2 Bft) S-SW 205 0 min 0,000 mm 0,0 UV-I 0 W/m 11,0 C 8,5 C 17,7 km/h (3 Bft) 100,00 %
12.05.2016 22:28 11,8 C 95 % 995,3 hPa 0,0 l/m 12,4 km/h (3 Bft) SW 221 0 min 0,000 mm 0,0 UV-I 0 W/m 11,0 C 8,4 C 14,5 km/h (3 Bft) 96,15 %
12.05.2016 22:29 11,8 C 95 % 995,3 hPa 0,2 l/m 15,7 km/h (3 Bft) W-SW 246 0 min 0,000 mm 0,0 UV-I 0 W/m 11,0 C 7,0 C 25,7 km/h (4 Bft) 96,30 %
12.05.2016 22:30 11,8 C 95 % 995,3 hPa 0,2 l/m 10,5 km/h (2 Bft) W-SW 254 0 min 0,000 mm 0,0 UV-I 0 W/m 11,0 C 9,3 C 14,5 km/h (3 Bft) 100,00 %
12.05.2016 22:31 11,8 C 95 % 995,3 hPa 0,0 l/m 11,8 km/h (2 Bft) W-SW 246 0 min 0,000 mm 0,0 UV-I 0 W/m 11,0 C 8,7 C 14,5 km/h (3 Bft) 100,00 %
12.05.2016 22:32 11,7 C 95 % 995,3 hPa 0,2 l/m 14,2 km/h (3 Bft) SW 217 0 min 0,000 mm 0,0 UV-I 0 W/m 10,9 C 7,5 C 19,3 km/h (3 Bft) 100,00 %
12.05.2016 22:33 11,7 C 95 % 995,3 hPa 0,2 l/m 12,0 km/h (2 Bft) W-SW 255 0 min 0,000 mm 0,0 UV-I 0 W/m 10,9 C 8,5 C 20,9 km/h (4 Bft) 100,00 %
12.05.2016 22:34 11,7 C 95 % 995,3 hPa 0,0 l/m 9,5 km/h (2 Bft) W-SW 242 0 min 0,000 mm 0,0 UV-I 0 W/m 10,9 C 9,7 C 14,5 km/h (3 Bft) 100,00 %
12.05.2016 22:35 11,7 C 95 % 995,3 hPa 0,2 l/m 9,6 km/h (2 Bft) W-SW 240 0 min 0,000 mm 0,0 UV-I 0 W/m 10,9 C 9,7 C 14,5 km/h (3 Bft) 100,00 %
12.05.2016 22:36 11,7 C 95 % 995,4 hPa 0,0 l/m 11,1 km/h (2 Bft) W-SW 249 0 min 0,000 mm 0,0 UV-I 0 W/m 10,9 C 8,9 C 19,3 km/h (3 Bft) 100,00 %
12.05.2016 22:37 11,7 C 95 % 995,3 hPa 0,0 l/m 15,3 km/h (3 Bft) SW 231 0 min 0,000 mm 0,0 UV-I 0 W/m 10,9 C 7,1 C 20,9 km/h (4 Bft) 95,65 %
12.05.2016 22:38 11,7 C 95 % 995,3 hPa 0,2 l/m 11,8 km/h (2 Bft) W-SW 255 0 min 0,000 mm 0,0 UV-I 0 W/m 10,9 C 8,6 C 16,1 km/h (3 Bft) 100,00 %
12.05.2016 22:39 11,7 C 95 % 995,3 hPa 0,0 l/m 15,0 km/h (3 Bft) SW 232 0 min 0,000 mm 0,0 UV-I 0 W/m 10,9 C 7,2 C 20,9 km/h (4 Bft) 95,65 %
12.05.2016 22:40 11,7 C 95 % 995,3 hPa 0,0 l/m 12,2 km/h (2 Bft) W 261 0 min 0,000 mm 0,0 UV-I 0 W/m 10,9 C 8,4 C 17,7 km/h (3 Bft) 96,30 %
12.05.2016 22:41 11,7 C 95 % 995,3 hPa 0,2 l/m 13,7 km/h (3 Bft) SW 236 0 min 0,000 mm 0,0 UV-I 0 W/m 10,9 C 7,7 C 19,3 km/h (3 Bft) 100,00 %
12.05.2016 22:42 11,7 C 95 % 995,3 hPa 0,0 l/m 15,5 km/h (3 Bft) SW 222 0 min 0,000 mm 0,0 UV-I 0 W/m 10,9 C 7,0 C 20,9 km/h (4 Bft) 96,30 %
12.05.2016 22:43 11,6 C 95 % 995,3 hPa 0,2 l/m 13,8 km/h (3 Bft) W-SW 240 0 min 0,000 mm 0,0 UV-I 0 W/m 10,8 C 7,6 C 17,7 km/h (3 Bft) 100,00 %
12.05.2016 22:44 11,6 C 95 % 995,3 hPa 0,0 l/m 16,4 km/h (3 Bft) SW 223 0 min 0,000 mm 0,0 UV-I 0 W/m 10,8 C 6,5 C 20,9 km/h (4 Bft) 91,67 %
12.05.2016 22:45 11,6 C 95 % 995,3 hPa 0,2 l/m 17,3 km/h (3 Bft) SW 236 0 min 0,000 mm 0,0 UV-I 0 W/m 10,8 C 6,2 C 24,1 km/h (4 Bft) 100,00 %
12.05.2016 22:46 11,6 C 95 % 995,3 hPa 0,0 l/m 15,3 km/h (3 Bft) SW 235 0 min 0,000 mm 0,0 UV-I 0 W/m 10,8 C 7,0 C 22,5 km/h (4 Bft) 97,73 %
12.05.2016 22:47 11,6 C 95 % 995,3 hPa 0,0 l/m 17,9 km/h (3 Bft) SW 223 0 min 0,000 mm 0,0 UV-I 0 W/m 10,8 C 6,0 C 22,5 km/h (4 Bft) 100,00 %
12.05.2016 22:48 11,6 C 95 % 995,3 hPa 0,2 l/m 13,8 km/h (3 Bft) W-SW 238 0 min 0,000 mm 0,0 UV-I 0 W/m 10,8 C 7,6 C 17,7 km/h (3 Bft) 95,83 %
12.05.2016 22:49 11,6 C 95 % 995,4 hPa 0,0 l/m 10,8 km/h (2 Bft) W 271 0 min 0,000 mm 0,0 UV-I 0 W/m 10,8 C 8,9 C 16,1 km/h (3 Bft) 93,10 %
12.05.2016 22:50 11,6 C 95 % 995,3 hPa 0,0 l/m 9,1 km/h (2 Bft) SW 223 0 min 0,000 mm 0,0 UV-I 0 W/m 10,8 C 9,9 C 14,5 km/h (3 Bft) 100,00 %
12.05.2016 22:51 11,6 C 95 % 995,4 hPa 0,2 l/m 17,6 km/h (3 Bft) W-SW 248 0 min 0,000 mm 0,0 UV-I 0 W/m 10,8 C 6,1 C 22,5 km/h (4 Bft) 95,65 %
12.05.2016 22:52 11,6 C 95 % 995,4 hPa 0,0 l/m 14,4 km/h (3 Bft) SW 231 0 min 0,000 mm 0,0 UV-I 0 W/m 10,8 C 7,3 C 20,9 km/h (4 Bft) 95,83 %
12.05.2016 22:53 11,5 C 95 % 995,4 hPa 0,2 l/m 18,2 km/h (3 Bft) SW 215 0 min 0,000 mm 0,0 UV-I 0 W/m 10,7 C 5,8 C 24,1 km/h (4 Bft) 91,67 %
12.05.2016 22:54 11,5 C 95 % 995,3 hPa 0,0 l/m 16,7 km/h (3 Bft) W 260 0 min 0,000 mm 0,0 UV-I 0 W/m 10,7 C 6,3 C 25,7 km/h (4 Bft) 100,00 %
12.05.2016 22:55 11,5 C 95 % 995,4 hPa 0,0 l/m 17,8 km/h (3 Bft) W-SW 254 0 min 0,000 mm 0,0 UV-I 0 W/m 10,7 C 5,9 C 27,4 km/h (4 Bft) 92,31 %
12.05.2016 22:56 11,5 C 95 % 995,4 hPa 0,2 l/m 18,5 km/h (3 Bft) W 267 0 min 0,000 mm 0,0 UV-I 0 W/m 10,7 C 5,7 C 24,1 km/h (4 Bft) 96,30 %
12.05.2016 22:57 11,4 C 95 % 995,3 hPa 0,0 l/m 20,4 km/h (4 Bft) W-SW 252 0 min 0,000 mm 0,0 UV-I 0 W/m 10,6 C 5,0 C 30,6 km/h (5 Bft) 100,00 %
12.05.2016 22:58 11,4 C 95 % 995,4 hPa 0,0 l/m 19,6 km/h (3 Bft) W-SW 244 0 min 0,000 mm 0,0 UV-I 0 W/m 10,6 C 5,2 C 25,7 km/h (4 Bft) 96,15 %
12.05.2016 22:59 11,4 C 95 % 995,4 hPa 0,2 l/m 20,4 km/h (4 Bft) W-SW 248 0 min 0,000 mm 0,0 UV-I 0 W/m 10,6 C 5,0 C 25,7 km/h (4 Bft) 92,59 %
12.05.2016 23:00 11,4 C 95 % 995,4 hPa 0,0 l/m 15,4 km/h (3 Bft) W 274 0 min 0,000 mm 0,0 UV-I 0 W/m 10,6 C 6,7 C 20,9 km/h (4 Bft) 92,31 %
12.05.2016 23:01 11,4 C 95 % 995,4 hPa 0,0 l/m 22,4 km/h (4 Bft) W 260 0 min 0,000 mm 0,0 UV-I 0 W/m 10,6 C 4,4 C 29,0 km/h (5 Bft) 100,00 %
12.05.2016 23:02 11,4 C 95 % 995,3 hPa 0,2 l/m 14,2 km/h (3 Bft) W 267 0 min 0,000 mm 0,0 UV-I 0 W/m 10,6 C 7,2 C 19,3 km/h (3 Bft) 96,15 %
12.05.2016 23:03 11,3 C 95 % 995,3 hPa 0,0 l/m 12,5 km/h (3 Bft) W-SW 253 0 min 0,000 mm 0,0 UV-I 0 W/m 10,5 C 7,8 C 19,3 km/h (3 Bft) 96,30 %
12.05.2016 23:04 11,3 C 95 % 995,4 hPa 0,2 l/m 17,0 km/h (3 Bft) W-SW 257 0 min 0,000 mm 0,0 UV-I 0 W/m 10,5 C 6,0 C 22,5 km/h (4 Bft) 91,30 %
12.05.2016 23:05 11,3 C 95 % 995,4 hPa 0,0 l/m 15,7 km/h (3 Bft) SW 228 0 min 0,000 mm 0,0 UV-I 0 W/m 10,5 C 6,4 C 24,1 km/h (4 Bft) 95,83 %
12.05.2016 23:06 11,2 C 95 % 995,3 hPa 0,0 l/m 12,0 km/h (2 Bft) W-SW 254 0 min 0,000 mm 0,0 UV-I 0 W/m 10,4 C 7,9 C 17,7 km/h (3 Bft) 100,00 %
12.05.2016 23:07 11,2 C 94 % 995,4 hPa 0,2 l/m 13,5 km/h (3 Bft) W-SW 245 0 min 0,000 mm 0,0 UV-I 0 W/m 10,3 C 7,2 C 20,9 km/h (4 Bft) 100,00 %
12.05.2016 23:08 11,2 C 94 % 995,3 hPa 0,0 l/m 14,7 km/h (3 Bft) SW 229 0 min 0,000 mm 0,0 UV-I 0 W/m 10,3 C 6,7 C 17,7 km/h (3 Bft) 96,15 %
12.05.2016 23:09 11,1 C 94 % 995,3 hPa 0,0 l/m 14,4 km/h (3 Bft) W-SW 257 0 min 0,000 mm 0,0 UV-I 0 W/m 10,2 C 6,7 C 19,3 km/h (3 Bft) 96,30 %
12.05.2016 23:10 11,1 C 94 % 995,4 hPa 0,2 l/m 13,9 km/h (3 Bft) W-SW 242 0 min 0,000 mm 0,0 UV-I 0 W/m 10,2 C 6,9 C 19,3 km/h (3 Bft) 100,00 %
12.05.2016 23:11 11,1 C 94 % 995,4 hPa 0,0 l/m 11,5 km/h (2 Bft) W-SW 254 0 min 0,000 mm 0,0 UV-I 0 W/m 10,2 C 8,0 C 14,5 km/h (3 Bft) 96,15 %
12.05.2016 23:12 11,1 C 95 % 995,4 hPa 0,0 l/m 9,2 km/h (2 Bft) W-SW 250 0 min 0,000 mm 0,0 UV-I 0 W/m 10,3 C 9,3 C 11,3 km/h (2 Bft) 100,00 %
12.05.2016 23:13 11,1 C 95 % 995,3 hPa 0,2 l/m 15,8 km/h (3 Bft) W 264 0 min 0,000 mm 0,0 UV-I 0 W/m 10,3 C 6,2 C 20,9 km/h (4 Bft) 97,56 %
12.05.2016 23:14 11,1 C 95 % 995,4 hPa 0,0 l/m 10,8 km/h (2 Bft) W-SW 244 0 min 0,000 mm 0,0 UV-I 0 W/m 10,3 C 8,4 C 17,7 km/h (3 Bft) 100,00 %
12.05.2016 23:15 11,1 C 95 % 995,4 hPa 0,0 l/m 14,7 km/h (3 Bft) W-SW 238 0 min 0,000 mm 0,0 UV-I 0 W/m 10,3 C 6,6 C 22,5 km/h (4 Bft) 98,56 %
12.05.2016 23:16 11,1 C 95 % 995,4 hPa 0,2 l/m 13,4 km/h (3 Bft) SW 232 0 min 0,000 mm 0,0 UV-I 0 W/m 10,3 C 7,1 C 19,3 km/h (3 Bft) 100,00 %
12.05.2016 23:17 11,1 C 95 % 995,4 hPa 0,0 l/m 13,7 km/h (3 Bft) W-SW 246 0 min 0,000 mm 0,0 UV-I 0 W/m 10,3 C 7,0 C 17,7 km/h (3 Bft) 100,00 %
12.05.2016 23:18 11,1 C 95 % 995,4 hPa 0,0 l/m 12,7 km/h (3 Bft) W-SW 251 0 min 0,000 mm 0,0 UV-I 0 W/m 10,3 C 7,5 C 16,1 km/h (3 Bft) 100,00 %
12.05.2016 23:19 11,1 C 95 % 995,4 hPa 0,0 l/m 15,7 km/h (3 Bft) W-SW 252 0 min 0,000 mm 0,0 UV-I 0 W/m 10,3 C 6,2 C 22,5 km/h (4 Bft) 100,00 %
12.05.2016 23:20 11,1 C 95 % 995,4 hPa 0,0 l/m 14,4 km/h (3 Bft) S-SW 212 0 min 0,000 mm 0,0 UV-I 0 W/m 10,3 C 6,7 C 17,7 km/h (3 Bft) 96,30 %
12.05.2016 23:21 11,1 C 95 % 995,4 hPa 0,2 l/m 13,9 km/h (3 Bft) SW 232 0 min 0,000 mm 0,0 UV-I 0 W/m 10,3 C 6,9 C 17,7 km/h (3 Bft) 100,00 %
12.05.2016 23:22 11,1 C 95 % 995,4 hPa 0,0 l/m 17,1 km/h (3 Bft) W-SW 238 0 min 0,000 mm 0,0 UV-I 0 W/m 10,3 C 5,7 C 22,5 km/h (4 Bft) 100,00 %
12.05.2016 23:23 11,1 C 95 % 995,4 hPa 0,0 l/m 18,9 km/h (3 Bft) SW 220 0 min 0,000 mm 0,0 UV-I 0 W/m 10,3 C 5,1 C 27,4 km/h (4 Bft) 98,57 %
12.05.2016 23:24 11,1 C 95 % 995,4 hPa 0,2 l/m 16,8 km/h (3 Bft) W-SW 238 0 min 0,000 mm 0,0 UV-I 0 W/m 10,3 C 5,8 C 24,1 km/h (4 Bft) 100,00 %
12.05.2016 23:25 11,1 C 95 % 995,4 hPa 0,0 l/m 13,1 km/h (3 Bft) SW 233 0 min 0,000 mm 0,0 UV-I 0 W/m 10,3 C 7,3 C 17,7 km/h (3 Bft) 100,00 %
12.05.2016 23:26 11,1 C 95 % 995,4 hPa 0,0 l/m 13,0 km/h (3 Bft) S-SW 196 0 min 0,000 mm 0,0 UV-I 0 W/m 10,3 C 7,3 C 20,9 km/h (4 Bft) 96,30 %
12.05.2016 23:27 11,0 C 95 % 995,3 hPa 0,0 l/m 15,8 km/h (3 Bft) SW 232 0 min 0,000 mm 0,0 UV-I 0 W/m 10,2 C 6,0 C 20,9 km/h (4 Bft) 100,00 %
12.05.2016 23:28 11,0 C 95 % 995,4 hPa 0,0 l/m 17,4 km/h (3 Bft) SW 232 0 min 0,000 mm 0,0 UV-I 0 W/m 10,2 C 5,4 C 25,7 km/h (4 Bft) 100,00 %
12.05.2016 23:29 11,0 C 95 % 995,3 hPa 0,0 l/m 15,6 km/h (3 Bft) SW 236 0 min 0,000 mm 0,0 UV-I 0 W/m 10,2 C 6,1 C 20,9 km/h (4 Bft) 100,00 %
12.05.2016 23:30 10,9 C 95 % 995,3 hPa 0,2 l/m 15,5 km/h (3 Bft) W 260 0 min 0,000 mm 0,0 UV-I 0 W/m 10,1 C 6,0 C 20,9 km/h (4 Bft) 100,00 %
12.05.2016 23:31 10,9 C 95 % 995,3 hPa 0,0 l/m 17,0 km/h (3 Bft) W-SW 239 0 min 0,000 mm 0,0 UV-I 0 W/m 10,1 C 5,5 C 33,8 km/h (5 Bft) 100,00 %
12.05.2016 23:32 10,9 C 94 % 995,3 hPa 0,2 l/m 19,5 km/h (3 Bft) SW 228 0 min 0,000 mm 0,0 UV-I 0 W/m 10,0 C 4,6 C 25,7 km/h (4 Bft) 100,00 %
12.05.2016 23:33 10,9 C 94 % 995,3 hPa 0,0 l/m 18,7 km/h (3 Bft) SW 225 0 min 0,000 mm 0,0 UV-I 0 W/m 10,0 C 4,9 C 25,7 km/h (4 Bft) 100,00 %
12.05.2016 23:34 10,9 C 94 % 995,4 hPa 0,0 l/m 15,4 km/h (3 Bft) W-SW 244 0 min 0,000 mm 0,0 UV-I 0 W/m 10,0 C 6,1 C 24,1 km/h (4 Bft) 100,00 %
12.05.2016 23:35 10,9 C 94 % 995,3 hPa 0,0 l/m 16,5 km/h (3 Bft) SW 233 0 min 0,000 mm 0,0 UV-I 0 W/m 10,0 C 5,6 C 24,1 km/h (4 Bft) 100,00 %
12.05.2016 23:36 10,9 C 94 % 995,3 hPa 0,2 l/m 20,1 km/h (4 Bft) SW 226 0 min 0,000 mm 0,0 UV-I 0 W/m 10,0 C 4,4 C 27,4 km/h (4 Bft) 100,00 %
12.05.2016 23:37 10,9 C 94 % 995,3 hPa 0,0 l/m 15,8 km/h (3 Bft) W-SW 241 0 min 0,000 mm 0,0 UV-I 0 W/m 10,0 C 5,9 C 22,5 km/h (4 Bft) 100,00 %
12.05.2016 23:38 10,8 C 94 % 995,3 hPa 0,0 l/m 11,9 km/h (2 Bft) W-SW 251 0 min 0,000 mm 0,0 UV-I 0 W/m 9,9 C 7,5 C 17,7 km/h (3 Bft) 100,00 %
12.05.2016 23:39 10,8 C 94 % 995,3 hPa 0,2 l/m 15,9 km/h (3 Bft) SW 226 0 min 0,000 mm 0,0 UV-I 0 W/m 9,9 C 5,7 C 19,3 km/h (3 Bft) 100,00 %
12.05.2016 23:40 10,8 C 94 % 995,3 hPa 0,0 l/m 15,9 km/h (3 Bft) W-SW 244 0 min 0,000 mm 0,0 UV-I 0 W/m 9,9 C 5,7 C 22,5 km/h (4 Bft) 100,00 %
12.05.2016 23:41 10,8 C 94 % 995,3 hPa 0,0 l/m 19,1 km/h (3 Bft) W-SW 239 0 min 0,000 mm 0,0 UV-I 0 W/m 9,9 C 4,6 C 24,1 km/h (4 Bft) 100,00 %
12.05.2016 23:42 10,8 C 94 % 995,3 hPa 0,0 l/m 16,7 km/h (3 Bft) W-SW 239 0 min 0,000 mm 0,0 UV-I 0 W/m 9,9 C 5,4 C 25,7 km/h (4 Bft) 90,91 %
12.05.2016 23:43 10,8 C 94 % 995,3 hPa 0,0 l/m 17,6 km/h (3 Bft) W-SW 242 0 min 0,000 mm 0,0 UV-I 0 W/m 9,9 C 5,1 C 24,1 km/h (4 Bft) 100,00 %
12.05.2016 23:44 10,8 C 94 % 995,3 hPa 0,0 l/m 15,8 km/h (3 Bft) SW 218 0 min 0,000 mm 0,0 UV-I 0 W/m 9,9 C 5,8 C 20,9 km/h (4 Bft) 100,00 %
12.05.2016 23:45 10,8 C 94 % 995,3 hPa 0,0 l/m 18,3 km/h (3 Bft) SW 236 0 min 0,000 mm 0,0 UV-I 0 W/m 9,9 C 4,9 C 22,5 km/h (4 Bft) 100,00 %
12.05.2016 23:46 10,8 C 94 % 995,4 hPa 0,0 l/m 13,5 km/h (3 Bft) SW 221 0 min 0,000 mm 0,0 UV-I 0 W/m 9,9 C 6,7 C 19,3 km/h (3 Bft) 100,00 %
12.05.2016 23:47 10,8 C 94 % 995,3 hPa 0,2 l/m 11,4 km/h (2 Bft) W-SW 253 0 min 0,000 mm 0,0 UV-I 0 W/m 9,9 C 7,7 C 16,1 km/h (3 Bft) 100,00 %
12.05.2016 23:48 10,8 C 94 % 995,4 hPa 0,0 l/m 16,9 km/h (3 Bft) SW 215 0 min 0,000 mm 0,0 UV-I 0 W/m 9,9 C 5,4 C 20,9 km/h (4 Bft) 100,00 %
12.05.2016 23:49 10,8 C 94 % 995,4 hPa 0,0 l/m 14,2 km/h (3 Bft) SW 229 0 min 0,000 mm 0,0 UV-I 0 W/m 9,9 C 6,4 C 17,7 km/h (3 Bft) 100,00 %
12.05.2016 23:50 10,8 C 94 % 995,4 hPa 0,0 l/m 12,1 km/h (2 Bft) SW 214 0 min 0,000 mm 0,0 UV-I 0 W/m 9,9 C 7,4 C 19,3 km/h (3 Bft) 100,00 %
12.05.2016 23:51 10,8 C 94 % 995,4 hPa 0,0 l/m 15,8 km/h (3 Bft) SW 229 0 min 0,000 mm 0,0 UV-I 0 W/m 9,9 C 5,8 C 19,3 km/h (3 Bft) 100,00 %
12.05.2016 23:52 10,8 C 94 % 995,4 hPa 0,0 l/m 14,7 km/h (3 Bft) W-SW 248 0 min 0,000 mm 0,0 UV-I 0 W/m 9,9 C 6,2 C 17,7 km/h (3 Bft) 100,00 %
12.05.2016 23:53 10,8 C 95 % 995,4 hPa 0,2 l/m 15,4 km/h (3 Bft) SW 236 0 min 0,000 mm 0,0 UV-I 0 W/m 10,0 C 5,9 C 20,9 km/h (4 Bft) 95,65 %
12.05.2016 23:54 10,9 C 95 % 995,4 hPa 0,0 l/m 16,1 km/h (3 Bft) W-SW 237 0 min 0,000 mm 0,0 UV-I 0 W/m 10,1 C 5,8 C 24,1 km/h (4 Bft) 100,00 %
12.05.2016 23:55 10,9 C 95 % 995,4 hPa 0,0 l/m 11,0 km/h (2 Bft) SW 229 0 min 0,000 mm 0,0 UV-I 0 W/m 10,1 C 8,1 C 16,1 km/h (3 Bft) 100,00 %
12.05.2016 23:56 10,9 C 95 % 995,4 hPa 0,0 l/m 12,2 km/h (2 Bft) SW 219 0 min 0,000 mm 0,0 UV-I 0 W/m 10,1 C 7,5 C 19,3 km/h (3 Bft) 100,00 %
12.05.2016 23:57 10,9 C 95 % 995,4 hPa 0,0 l/m 12,4 km/h (3 Bft) W-SW 247 0 min 0,000 mm 0,0 UV-I 0 W/m 10,1 C 7,4 C 17,7 km/h (3 Bft) 100,00 %
12.05.2016 23:58 10,9 C 95 % 995,4 hPa 0,0 l/m 10,5 km/h (2 Bft) W-SW 249 0 min 0,000 mm 0,0 UV-I 0 W/m 10,1 C 8,3 C 14,5 km/h (3 Bft) 100,00 %
12.05.2016 23:59 10,9 C 95 % 995,3 hPa 0,0 l/m 11,6 km/h (2 Bft) W-SW 251 0 min 0,000 mm 0,0 UV-I 0 W/m 10,1 C 7,7 C 17,7 km/h (3 Bft) 100,00 %
_ Min-Zeit 23:38 12:42 15:06 - 20:42 - - - - - - 23:38 23:01 20:42 21:02
Minimum _ 10,8 C 63 % 993,1 hPa - 3,5 km/h (1 Bft) - - - - - - 9,9 C 4,4 C 4,8 km/h (1 Bft) 81,82 %
_ Max-Zeit 12:41 22:00 00:00 20:54 13:46 - - 08:21 13:00 12:47 13:46 12:35 12:36 13:18 00:00
Maximum _ 20,9 C 95 % 1000,4 hPa 0,2 l/m 42,4 km/h
O-NO (6 Bft)
- - 1 min 0,610 mm 6,1 UV-I 1076 W/m 14,8 C 16,3 C 57,9 km/h
O-NO (7 Bft)
100,00 %
Durchschnitt _ 15,3 C 82 % 995,7 hPa #11,8 l/m 21,9 km/h (4 Bft) O-NO - #5:53 h #4,216 mm 3,0 UV-I 357 W/m 12,1 C 10,0 C 29,5 km/h (5 Bft) 98,56 %